     2.11           OBSERVATION DATA    G (GPS)             RINEX VERSION / TYPE
teqc 2010Oct21 OPUS Account 20111025 17:43:27UTC            PGM / RUN BY / DATE
M 1521                                                      MARKER NAME
1142                                                        MARKER NUMBER
CSMIDDLETON NGS                                             OBSERVER / AGENCY
4820152812 TRIMBLE R7 2.32                                  REC # / TYPE / VERS
60244996 TRM41249.00 NONE                                   ANT # / TYPE
  -740410.3896 -5464833.1613  3193846.6257                  APPROX POSITION XYZ
        2.0030        0.0000        0.0000                  ANTENNA: DELTA H/E/N
     1     1                                                WAVELENGTH FACT L1/2
     5    L1    L2    C1    P1    P2                        # / TYPES OF OBSERV
    15                                                      LEAP SECONDS
  2011     7    25     0     0   30.0000000     GPS         TIME OF FIRST OBS
                                                            END OF HEADER
 11  7 25  0  0 30.0000000  0  8G27G02G17G04G10G09G20G28
 -10354169.12757  -8052265.51255  22512399.4454                   22512397.7274
  -8530571.39957  -6629363.68155  22753027.1094                   22753024.2114
 -10162014.47757  -7888883.12656  21255064.6804                   21255061.2274
 -19634249.92658 -15200552.31556  20046738.1484                   20046735.7734
  -2494793.48856  -1928960.60952  24042760.4224                   24042760.8554
  -7307180.18058  -5689123.51155  22357797.1484                   22357795.5664
    142956.06756    118617.44053  24092184.1564                   24092182.1054
  -4615155.21658  -3482216.46555  21633089.7194                   21633086.4454
 11  7 25  0  1  0.0000000  0  8G27G02G17G04G10G09G20G28
 -10352911.40547  -8051285.48145  22512638.9304                   22512636.8874
  -8593796.75947  -6678630.11745  22740996.0004                   22740992.3404
 -10109798.01648  -7848194.98446  21265001.1564                   21264997.9184
 -19640060.26648 -15205079.85246  20045632.5004                   20045629.4534
  -2565499.98846  -1984056.39543  24029304.2584                   24029304.6644
  -7326322.96147  -5704039.96945  22354154.7424                   22354152.4064
    188307.49146    153956.19642  24100814.0314                   24100812.4024
  -4549691.18048  -3431205.55145  21645547.0944                   21645543.8984
 11  7 25  0  1 30.0000000  0  8G27G02G17G04G10G09G20G28
 -10351093.33247  -8049868.80145  22512984.8284                   22512982.7894
  -8656695.77747  -6727642.25045  22729026.4614                   22729022.8954
 -10057400.74248  -7807365.94946  21274971.7814                   21274969.1254
 -19645225.64848 -15209104.80946  20044649.4064                   20044647.0354
  -2636166.32045  -2039120.90642  24015856.2274                   24015858.4224
  -7344781.46947  -5718423.19545  22350642.1334                   22350640.2234
    234236.34446    189744.95743  24109554.3134                   24109552.1724
  -4483788.18748  -3379852.59845  21658088.0784                   21658085.0744
 11  7 25  0  2  0.0000000  0  8G27G02G17G04G10G09G20G28
 -10348727.71647  -8048025.45045  22513434.7584                   22513432.7344
  -8719280.21947  -6776409.25945  22717116.7194                   22717113.6804
 -10004836.52848  -7766406.82046  21284974.7344                   21284971.0664
 -19649759.10448 -15212637.35746  20043786.9224                   20043783.8014
  -2706802.80945  -2094162.03542  24002414.8204                   24002417.5474
  -7362568.09047  -5732282.86745  22347257.2504                   22347255.5204
    280728.91446    225972.93243  24118400.2734                   24118399.4654
  -4417459.01748  -3328167.56145  21670710.3524                   21670706.5164
 11  7 25  0  2 30.0000000  0  8G27G02G17G04G10G09G20G28
 -10345827.91447  -8045765.85945  22513986.8984                   22513985.2114
  -8781562.30147  -6824940.67645  22705264.9844                   22705261.2664
  -9952119.91048  -7725328.94146  21295006.2734                   21295003.2894
 -19653674.06648 -15215687.95746  20043041.7664                   20043039.1954
  -2777420.61355  -2149188.73052  23988975.2424                   23988980.3984
  -7379694.93047  -5745628.44545  22343998.1174                   22343996.2664
    327771.49246    262629.52342  24127353.1254                   24127351.2114
  -4350717.38348  -3276161.11745  21683410.2894                   21683407.4384
 11  7 25  0  3  0.0000000  0  8G27G02G17G04G10G09G20G28
 -10342384.62947  -8043082.75845  22514642.2974                   22514640.3014
  -8843531.60547  -6873228.37645  22693472.2504                   22693469.1454
  -9899242.53948  -7684125.78846  21305068.5944                   21305065.1604
 -19656961.26748 -15218249.39646  20042416.5784                   20042414.0124
  -2848007.51246  -2204191.40242  23975544.6414                   23975547.9064
  -7396151.80447  -5758451.93345  22340866.4614                   22340864.7034
    375373.04746    299721.66842  24136412.3984                   24136409.2304
  -4283553.53148  -3223825.67245  21696191.7504                   21696188.3954
 11  7 25  0  3 30.0000000  0  8G27G02G17G04G10G09G20G28
 -10338397.50847  -8039975.89145  22515400.4694                   22515398.7974
  -8905186.59047  -6921271.14145  22681739.5084                   22681736.7664
  -9846204.84448  -7642797.71546  21315161.2194                   21315157.8284
 -19659620.43448 -15220321.45746  20041910.6564                   20041907.7504
  -2918560.62145  -2259167.69142  23962117.7814                   23962120.8164
  -7411937.78147  -5770752.65245  22337862.2034                   22337860.5234
    423533.12946    337249.05143  24145576.1174                   24145574.0784
  -4215967.85547  -3171161.53145  21709052.9144                   21709049.2234
 11  7 25  0  4  0.0000000  0  8G27G02G17G04G10G09G20G28
 -10333865.88747  -8036444.72345  22516263.3984                   22516261.5664
  -8966525.63747  -6969067.73045  22670067.5634                   22670063.7814
  -9793007.16048  -7601344.97346  21325284.7584                   21325281.4454
 -19661651.54348 -15221904.11746  20041524.0784                   20041521.0044
  -2989077.11746  -2314115.35242  23948699.7344                   23948700.8554
  -7427051.53947  -5782529.56645  22334986.2344                   22334984.1724
    472251.77546    375211.64043  24154845.3444                   24154845.0164
  -4147959.66448  -3118168.16045  21721994.1094                   21721991.0634
 11  7 25  0  4 30.0000000  0  8G27G02G17G04G10G09G20G28
 -10328787.89147  -8032487.82045  22517229.4064                   22517227.4224
  -9027545.58248  -7016615.65645  22658455.2894                   22658452.0744
  -9739648.53148  -7559766.81646  21335438.5084                   21335435.0474
 -19663052.73448 -15222995.92646  20041257.4064                   20041254.5984
  -3059552.27346  -2369030.77342  23935287.8134                   23935289.2424
  -7441490.27047  -5793780.48445  22332238.5394                   22332236.7664
    521530.48046    413610.63343  24164224.8914                   24164222.0864
  -4079527.16448  -3064844.15645  21735016.5084                   21735013.4064
 11  7 25  0  5  0.0000000  0  8G27G02G17G04G10G09G20G28
 -10323164.59847  -8028106.00445  22518299.4224                   22518297.6954
  -9088246.19148  -7063914.75845  22646904.5634                   22646900.9144
  -9686130.62148  -7518064.55546  21345622.3834                   21345618.9844
 -19663824.80948 -15223597.52246  20041110.0314                   20041107.3954
  -3129984.09446  -2423912.52742  23921886.2274                   23921887.1414
  -7455253.91047  -5804505.35545  22329619.8594                   22329617.1454
    571367.54346    452444.70343  24173707.9224                   24173706.1024
  -4010671.09048  -3011190.09845  21748119.6024                   21748115.8364
 11  7 25  0  5 30.0000000  0  8G27G02G17G04G10G09G20G28
 -10316996.06648  -8023299.32045  22519473.5004                   22519470.9964
  -9148626.36348  -7110964.17245  22635414.3054                   22635410.9224
  -9632454.40248  -7476238.91846  21355836.7734                   21355833.2114
 -19663968.33248 -15223709.32846  20041083.1254                   20041080.2304
  -3200370.40246  -2478758.93043  23908490.5634                   23908492.8014
  -7468341.79347  -5814703.66444  22327129.1484                   22327126.6054
    621762.46546    491713.52343  24183298.2424                   24183295.7114
  -3941391.97748  -2957206.37545  21761302.8364                   21761299.6024
 11  7 25  0  6  0.0000000  0  8G27G02G17G04G10G09G20G28
 -10310282.38747  -8018067.87145  22520750.3524                   22520748.8524
  -9208684.73047  -7157762.82845  22623985.8284                   22623982.5704
  -9578620.55548  -7434290.48046  21366080.7814                   21366077.6994
 -19663483.14548 -15223331.23446  20041174.9694                   20041172.5704
  -3270708.48846  -2533567.62942  23895105.9144                   23895107.3284
  -7480753.03547  -5824374.73445  22324767.3284                   22324764.8674
    672714.48046    531416.41443  24192994.0234                   24192991.5434
  -3871689.34048  -2902892.66045  21774566.5784                   21774563.6294
 11  7 25  0  6 30.0000000  0  8G27G02G17G04G10G09G20G28
 -10303015.11747  -8012405.03945  22522133.5474                   22522131.6484
  -9268411.84847  -7204303.37145  22612620.0234                   22612616.2734
  -9524621.48048  -7392213.28546  21376356.6414                   21376353.1134
 -19662361.14148 -15222456.91846  20041388.8054                   20041386.1254
  -3340986.93746  -2588329.91843  23881731.7114                   23881733.7074
  -7492478.57447  -5833511.48045  22322536.0554                   22322534.0664
    724231.65246    571559.64143  24202797.4694                   24202795.3914
  -3801555.10548  -2848242.63745  21787912.9224                   21787909.6844
 11  7 25  0  7  0.0000000  0  8G27G02G17G04G10G09G20G28
 -10295199.82047  -8006315.18045  22523621.1644                   22523619.0164
  -9327811.90247  -7250589.04345  22601316.6174                   22601312.9694
  -9470463.54348  -7350012.30546  21386662.3444                   21386659.1764
 -19660608.20748 -15221090.96946  20041722.3984                   20041719.4534
  -3411208.62546  -2643048.00043  23868370.9454                   23868370.2704
  -7503523.39847  -5842117.83245  22320434.4774                   22320431.9964
    776307.78146    612138.41043  24212706.6804                   24212705.0944
  -3730994.67248  -2793260.50445  21801340.3444                   21801337.1294
 11  7 25  0  7 30.0000000  0  8G27G02G17G04G10G09G20G28
 -10286838.47747  -7999799.83645  22525211.7584                   22525210.3364
  -9386885.62947  -7296620.43745  22590075.1094                   22590071.6914
  -9416149.46148  -7307689.65246  21396998.1954                   21396995.0514
 -19658226.28948 -15219234.91046  20042175.4224                   20042172.7234
  -3481372.68746  -2697721.14843  23855018.0164                   23855017.3524
  -7513888.36347  -5850194.39845  22318461.6804                   22318459.4924
    828940.31646    653150.78143  24222721.4384                   24222720.5084
  -3660010.16847  -2737947.93445  21814848.3594                   21814844.6334
 11  7 25  0  8  0.0000000  0  8G27G02G17G04G10G09G20G28
 -10277941.85547  -7992867.39145  22526904.7194                   22526903.2074
  -9445642.77347  -7342405.16445  22578893.7274                   22578890.7464
  -9361690.70748  -7265254.27046  21407361.2814                   21407357.9774
 -19655226.60548 -15216897.46546  20042746.0784                   20042743.3634
  -3551487.08246  -2752355.53543  23841675.9454                   23841674.4104
  -7523583.67247  -5857749.15645  22316617.0554                   22316614.5864
    882118.05546    694587.91843  24232841.7584                   24232839.7194
  -3588612.28548  -2682313.24645  21828434.7584                   21828431.8484
 11  7 25  0  8 30.0000000  0  8G27G02G17G04G10G09G20G28
 -10268502.98847  -7985512.42645  22528701.2034                   22528699.3984
  -9504074.94547  -7387936.64145  22567774.7734                   22567771.0474
  -9307080.79348  -7222701.11746  21417753.5474                   21417749.4264
 -19651602.10548 -15214073.16446  20043436.0704                   20043433.4224
  -3621542.05146  -2806943.68043  23828344.1884                   23828343.0594
  -7532601.55147  -5864776.05945  22314900.3284                   22314898.8524
    935847.48046    736455.05543  24243066.3524                   24243064.3054
  -3516794.18747  -2626351.11745  21842101.4774                   21842098.1094
 11  7 25  0  9  0.0000000  0  8G27G02G17G04G10G09G20G28
 -10258514.91847  -7977729.52345  22530601.7194                   22530599.7194
  -9562173.84447  -7433208.42645  22556718.8914                   22556715.4264
  -9252313.64148  -7180025.42646  21428175.2274                   21428171.8794
 -19647346.14148 -15210756.80546  20044245.6884                   20044243.0944
  -3691527.85246  -2861477.90243  23815025.6564                   23815024.9104
  -7540934.24647  -5871269.07045  22313314.6254                   22313312.8714
    990134.52346    778756.69943  24253396.1724                   24253394.8954
  -3444548.87548  -2570056.10545  21855849.2664                   21855846.1844
 11  7 25  0  9 30.0000000  0  8G27G02G17G04G10G09G20G28
 -10247981.31647  -7969521.52345  22532606.1414                   22532603.8524
  -9619941.86747  -7478222.38745  22545725.6094                   22545722.0664
  -9197393.19548  -7137230.28946  21438626.3914                   21438622.8054
 -19642462.57048 -15206951.41846  20045175.2114                   20045172.4654
  -3761445.54346  -2915959.06643  23801721.2114                   23801720.6804
  -7548584.71147  -5877230.47745  22311859.2504                   22311856.5234
   1044975.31346    821489.73443  24263831.2114                   24263830.7074
  -3371880.02748  -2513431.07045  21869677.7734                   21869674.3054
 11  7 25  0 10  0.0000000  0  8G27G02G17G04G10G09G20G28
 -10236905.50847  -7960891.03945  22534713.9844                   22534711.5904
  -9677381.07447  -7522980.13745  22534795.2734                   22534792.0704
  -9142323.42248  -7094318.77346  21449105.7034                   21449102.1644
 -19636955.06248 -15202659.83246  20046223.0164                   20046220.3244
  -3831295.14146  -2970387.23043  23788429.9304                   23788429.0204
  -7555555.24647  -5882662.06245  22310532.6174                   22310530.4614
   1100365.50446    864650.93843  24274373.4694                   24274370.9104
  -3298791.31248  -2456478.85545  21883585.8594                   21883582.2934
 11  7 25  0 10 30.0000000  0  8G27G02G17G04G10G09G20G28
 -10225291.10247  -7951840.86745  22536924.4534                   22536922.1254
  -9734493.72747  -7567483.43045  22523927.4614                   22523923.9264
  -9087108.82048  -7051294.41446  21459612.6884                   21459609.1644
 -19630827.13348 -15197884.80946  20047389.3364                   20047386.7234
  -3901076.87946  -3024762.42643  23775150.1174                   23775149.6884
  -7561848.95747  -5887566.25045  22309335.1094                   22309333.3324
   1156301.42646    908237.34843  24285018.1884                   24285014.9694
  -3225285.73047  -2399201.81645  21897574.1414                   21897570.4344
 11  7 25  0 11  0.0000000  0  8G27G02G17G04G10G09G20G28
 -10213133.74647  -7942367.62945  22539237.2194                   22539235.8134
  -9791273.96547  -7611727.69545  22513121.8594                   22513118.4184
  -9031745.00448  -7008153.75846  21470148.1644                   21470144.5084
 -19624074.58248 -15192623.07046  20048674.5704                   20048671.3794
  -3970783.66046  -3079079.25843  23761884.5004                   23761884.8874
  -7567460.60947  -5891938.97745  22308266.8594                   22308265.3554
   1212786.96146    952252.07843  24295765.7194                   24295763.9884
  -3151359.03948  -2341596.63345  21911641.3444                   21911638.1454
 11  7 25  0 11 30.0000000  0  8G27G02G17G04G10G09G20G28
 -10200429.50847  -7932468.23445  22541654.9924                   22541653.2704
  -9847716.67647  -7655708.93745  22502381.2584                   22502377.8014
  -8976228.57848  -6964894.22346  21480712.2814                   21480708.7154
 -19616693.77048 -15186871.78546  20050078.8284                   20050076.3714
  -4040408.53946  -3133332.25443  23748635.6644                   23748635.9144
  -7572385.75947  -5895776.74345  22307329.8984                   22307328.1764
   1269825.19546    996697.43443  24306620.1564                   24306618.1254
  -3077007.43047  -2283660.35545  21925789.7584                   21925787.3014
 11  7 25  0 12  0.0000000  0  8G27G02G17G04G10G09G20G28
 -10187179.66447  -7922143.68745  22544176.3914                   22544175.2544
  -9903821.91448  -7699427.23445  22491705.1334                   22491701.1564
  -8920561.40648  -6921517.19546  21491305.5084                   21491302.2234
 -19608686.24648 -15180632.13746  20051602.4384                   20051599.8754
  -4109949.89147  -3187520.20343  23735402.6254                   23735401.8484
  -7576624.89547  -5899079.96145  22306523.1804                   22306521.1524
   1327414.34046   1041572.07843  24317579.3204                   24317577.7464
  -3002232.07047  -2225393.87145  21940019.4064                   21940016.0744
 11  7 25  0 12 30.0000000  0  8G27G02G17G04G10G09G20G28
 -10173383.42247  -7911393.39545  22546801.8674                   22546800.1294
  -9959587.37148  -7742880.75045  22481093.4844                   22481089.1054
  -8864743.12148  -6878022.41846  21501927.5554                   21501924.0354
 -19600051.53548 -15173903.77746  20053245.6884                   20053242.8984
  -4179404.09047  -3241640.20343  23722185.5704                   23722185.3284
  -7580176.50447  -5901847.42245  22305847.1644                   22305845.6484
   1385554.45346   1086876.02343  24328643.1724                   24328641.1564
  -2927032.00447  -2166796.44945  21954329.4534                   21954326.3714
 11  7 25  0 13  0.0000000  0  8G27G02G17G04G10G09G20G28
 -10159049.09047  -7900223.80145  22549529.7734                   22549527.4264
 -10015020.00448  -7786074.93745  22470544.7424                   22470541.0164
  -8808782.38748  -6834416.64146  21512576.5784                   21512572.9844
 -19590797.83248 -15166693.09846  20055006.6644                   20055003.5204
  -4248775.71947  -3295695.91044  23708985.0004                   23708984.4734
  -7583048.21547  -5904085.09845  22305300.9534                   22305298.4844
   1444237.13346   1132602.71143  24339810.3984                   24339807.5744
  -2851415.39848  -2107874.44945  21968719.0474                   21968715.4304
 11  7 25  0 13 30.0000000  0  8G27G02G17G04G10G09G20G28
 -10144170.03547  -7888629.75445  22552361.0084                   22552359.1094
 -10070111.65248  -7829003.41845  22460060.8444                   22460056.4884
  -8752672.94148  -6790694.98046  21523253.4304                   21523250.1024
 -19580919.01648 -15158995.30146  20056886.3674                   20056883.5124
  -4318055.35547  -3349679.94143  23695801.6644                   23695800.1174
  -7585232.75847  -5905787.32845  22304885.2664                   22304882.4024
   1503468.09846   1178756.68843  24351080.9304                   24351079.7384
  -2775375.78947  -2048622.83645  21983189.0314                   21983185.7194
 11  7 25  0 14  0.0000000  0  8G27G02G17G04G10G09G20G28
 -10128750.14847  -7876614.27345  22555295.1644                   22555293.2304
 -10124864.86348  -7871668.19545  22449641.7034                   22449637.4804
  -8696418.74648  -6746860.55546  21533958.4384                   21533954.6954
 -19570418.94548 -15150813.42646  20058884.9224                   20058881.9694
  -4387243.41847  -3403592.55943  23682634.6804                   23682634.2894
  -7586733.01447  -5906956.31945  22304599.6414                   22304597.1094
   1563243.00846   1225334.53143  24362455.7664                   24362453.8524
  -2698916.90447  -1989044.50445  21997738.2974                   21997735.4104
 11  7 25  0 14 30.0000000  0  8G27G02G17G04G10G09G20G28
 -11688218.28147  -9091784.26645  22258538.2974                   22258536.3714
 -11754709.25448  -9141676.73045  22139492.1094                   22139487.9264
 -10215447.75448  -7930519.51646  21244896.8134                   21244893.5274
 -21134726.86348 -16369754.65246  19761206.8364                   19761203.6604
  -6031768.50046  -4685040.53944  23369691.7034                   23369692.1214
  -9162977.73047  -7135198.94545  22004650.0164                   22004647.7544
     48133.85546     44730.03143  24074139.0084                   24074138.5434
  -4197465.32047  -3156744.59845  21712574.0944                   21712570.8594
 11  7 25  0 15  0.0000000  0  8G27G02G17G04G10G09G20G28
 -11671729.17247  -9078935.63345  22261676.3984                   22261674.2504
 -11808793.38348  -9183820.12945  22129200.1804                   22129196.8244
 -10158917.46148  -7886469.94946  21255654.3444                   21255650.5784
 -21122997.46548 -16360614.84646  19763438.6094                   19763435.7584
  -6100776.41246  -4738812.82743  23356560.0554                   23356559.8364
  -9163119.78647  -7135309.62045  22004622.9534                   22004621.0594
    108982.64546     92144.64843  24085718.8054                   24085717.2624
  -4120179.72747  -3096522.07645  21727281.1334                   21727277.9304
 11  7 25  0 15 30.0000000  0  8G27G02G17G04G10G09G20G28
 -11654699.43447  -9065665.72745  22264917.1804                   22264914.8834
 -11862535.10548  -9225696.73045  22118973.6484                   22118970.1334
 -10102243.52348  -7842308.44546  21266438.8444                   21266435.4884
 -21110647.60248 -16350991.56646  19765788.9384                   19765786.0124
  -6169683.38346  -4792506.46944  23343447.2734                   23343446.5824
  -9162575.85547  -7134885.75445  22004726.9454                   22004724.2074
    170373.36346    139981.54343  24097401.5634                   24097399.6604
  -4042474.63347  -3035972.66045  21742067.6564                   21742065.1844
 11  7 25  0 16  0.0000000  0  8G27G02G17G04G10G09G20G28
 -11637133.49247  -9051978.01245  22268260.0004                   22268257.7584
 -11915937.48048  -9267308.91045  22108811.6254                   22108808.0984
 -10045431.13348  -7798039.05946  21277249.7584                   21277246.8054
 -21097682.35948 -16340888.77746  19768255.9924                   19768253.3164
  -6238490.80146  -4846122.53944  23330353.6884                   23330353.5394
  -9161350.12947  -7133930.60545  22004959.8984                   22004958.0124
    232300.84847    188236.69143  24109187.0784                   24109184.7584
  -3964354.93047  -2975100.20745  21756934.0394                   21756930.9384
 11  7 25  0 16 30.0000000  0  8G27G02G17G04G10G09G20G28
 -11619007.66047  -9037854.01245  22271709.5004                   22271706.8954
 -11968975.13748  -9308636.89145  22098718.6884                   22098714.6024
  -9988456.16848  -7753643.00446  21288092.0634                   21288088.5124
 -21084078.04748 -16330288.00446  19770844.7814                   19770841.9344
  -6307171.69146  -4899639.98444  23317284.8284                   23317284.1454
  -9159418.18747  -7132425.18745  22005327.7584                   22005325.4964
    294788.41846    236928.24643  24121076.5234                   24121075.3954
  -3885796.50847  -2913885.86345  21771882.7424                   21771879.8324
 11  7 25  0 17  0.0000000  0  8G27G02G17G04G10G09G20G28
 -11600344.94547  -9023311.64545  22275260.6804                   22275258.2344
 -12021669.45348  -9349697.32045  22088691.2584                   22088687.1524
  -9931341.55948  -7709138.12146  21298960.7504                   21298957.3914
 -21069857.83648 -16319207.30546  19773550.6954                   19773548.0314
  -6375745.76246  -4953074.23844  23304235.1564                   23304234.2894
  -9156802.08647  -7130386.65245  22005825.0944                   22005823.5004
    357812.62146    286038.00443  24133069.8754                   24133067.7154
  -3806821.91447  -2852347.24645  21786911.2894                   21786907.9574
 11  7 25  0 17 30.0000000  0  8G27G02G17G04G10G09G20G28
 -11581145.12947  -9008350.75445  22278914.1174                   22278911.7814
 -12074018.83648  -9390488.97345  22078729.6884                   22078725.4454
  -9874087.92648  -7664524.92646  21309855.7274                   21309852.3714
 -21055021.72748 -16307646.69946  19776374.2584                   19776371.3054
  -6444208.96946  -5006422.11344  23291207.2894                   23291205.7894
  -9153500.96947  -7127814.33645  22006453.4534                   22006451.5594
    421372.82046    335565.44943  24145165.1174                   24145163.0394
  -3727431.05547  -2790484.27345  21802019.0704                   21802015.6604
 11  7 25  0 18  0.0000000  0  8G27G02G17G04G10G09G20G28
 -11561397.00047  -8992962.61345  22282672.0084                   22282669.5984
 -12126010.85548  -9431002.16445  22068835.8524                   22068831.5944
  -9816683.81248  -7619794.47346  21320779.2274                   21320776.1954
 -21039558.92648 -16295597.76646  19779316.8984                   19779313.5314
  -6512546.89146  -5059672.30544  23278201.8984                   23278201.6684
  -9149503.18047  -7124699.16445  22007214.6334                   22007211.8054
    485479.99246    385519.12143  24157364.1094                   24157362.1484
  -3647612.71147  -2728288.18445  21817208.2274                   21817205.0474
 11  7 25  0 18 30.0000000  0  8G27G02G17G04G10G09G20G28
 -11541099.86447  -8977146.67445  22286534.0394                   22286532.3524
 -12177642.96048  -9471234.90645  22059010.3754                   22059006.1844
  -9759128.26648  -7574946.01946  21331731.7504                   21331728.5514
 -21023468.67848 -16283059.90346  19782378.1884                   19782375.2194
  -6580755.23846  -5112821.57043  23265221.6564                   23265221.5784
  -9144807.41147  -7121040.13545  22008108.1484                   22008105.8674
    550134.10846    435898.93943  24169667.5394                   24169665.5124
  -3567366.04947  -2665758.34645  21832478.3674                   21832474.8914
 11  7 25  0 19  0.0000000  0  8G27G02G17G04G10G09G20G28
 -11520256.19947  -8960904.86345  22290500.4384                   22290498.4574
 -12228916.13348  -9511187.94545  22049253.4774                   22049249.4224
  -9701424.01648  -7529981.67646  21342712.5634                   21342709.1724
 -21006753.87948 -16270035.37146  19785559.2664                   19785555.7814
  -6648833.09446  -5165869.15644  23252267.3204                   23252266.6524
  -9139415.30947  -7116838.50045  22009134.2274                   22009131.7114
    615332.36346    486702.77743  24182075.1804                   24182072.4064
  -3486692.96947  -2602896.23845  21847829.8054                   21847826.7384
 11  7 25  0 19 30.0000000  0  8G27G02G17G04G10G09G20G28
 -11498858.43447  -8944231.29345  22294572.5704                   22294570.5744
 -12279821.70748  -9550854.55945  22039566.6174                   22039562.3284
  -9643563.37948  -7484895.48446  21353722.8364                   21353719.9064
 -20989407.15648 -16256518.44546  19788860.3054                   19788857.0124
  -6716769.68746  -5218806.63343  23239339.6414                   23239338.9264
  -9133318.83247  -7112088.01245  22010294.3984                   22010291.7464
    681081.27346    537935.68443  24194586.1484                   24194584.2034
  -3405586.25847  -2539696.24245  21863263.8914                   21863260.9414
 11  7 25  0 20  0.0000000  0  8G27G02G17G04G10G09G20G28
 -11476921.95747  -8927137.94945  22298747.0234                   22298744.6644
 -12330372.91047  -9590245.02345  22029946.4694                   22029943.1334
  -9585561.68048  -7439699.37546  21364760.4694                   21364757.1644
 -20971443.84448 -16242521.05946  19792278.2974                   19792275.2774
  -6784576.46946  -5271642.98043  23226436.4614                   23226434.8914
  -9126532.69147  -7106800.11345  22011585.3284                   22011583.0984
    747365.31646    589585.59442  24207199.2274                   24207197.9384
  -3324060.73447  -2476169.90245  21878777.5474                   21878774.9144
 11  7 25  0 20 30.0000000  0  8G27G02G17G04G10G09G20G28
 -11454436.60747  -8909616.91345  22303025.9694                   22303024.1454
 -12380557.73848  -9629350.02045  22020396.8444                   22020393.1374
  -9527408.81248  -7394385.47346  21375826.6174                   21375823.4304
 -20952854.16548 -16228035.59346  19795815.9924                   19795813.1914
  -6852239.84846  -5324367.59843  23213560.1334                   23213559.5474
  -9119046.09047  -7100966.42245  22013010.5004                   22013007.8364
    814194.22346    641660.02742  24219916.1094                   24219914.5864
  -3242106.13347  -2412309.19945  21894373.3914                   21894370.3754
 11  7 25  0 21  0.0000000  0  8G27G02G17G04G10G09G20G28
 -11431411.38747  -8891675.18745  22307407.9144                   22307405.4964
 -12430384.19948  -9668175.75045  22010915.2664                   22010911.0944
  -9469113.68747  -7348960.71146  21386919.6804                   21386916.3244
 -20933647.53148 -16213069.37546  19799470.9774                   19799467.6024
  -6919765.34846  -5376984.73443  23200711.0864                   23200709.3634
  -9110867.77747  -7094593.72745  22014567.2344                   22014564.2704
    881558.14146    694151.33642  24232736.3834                   24232733.9304
  -3159731.60947  -2348121.28945  21910048.8524                   21910045.2934
 11  7 25  0 21 30.0000000  0  8G27G02G17G04G10G09G20G28
 -11407848.55147  -8873314.55145  22311891.3204                   22311888.9804
 -12479853.34448  -9706723.06645  22001501.3204                   22001497.1724
  -9410678.73447  -7303426.98846  21398039.3284                   21398036.4224
 -20913826.48848 -16197624.40246  19803242.7584                   19803239.6604
  -6987151.50846  -5429493.32444  23187887.4774                   23187886.4144
  -9101999.26647  -7087683.19545  22016254.2504                   22016252.1684
    949454.43846    747057.50443  24245656.6804                   24245653.8444
  -3076939.08647  -2283607.68045  21925803.4614                   21925800.5084
 11  7 25  0 22  0.0000000  0  8G27G02G17G04G10G09G20G28
 -11383731.48447  -8854522.05545  22316480.5704                   22316478.6094
 -12528946.53948  -9744977.43045  21992159.0474                   21992155.0944
  -9352086.95347  -7257771.07046  21409189.1414                   21409185.7424
 -20893374.55548 -16181687.82046  19807134.9224                   19807131.4344
  -7054378.36646  -5481877.82644  23175094.9614                   23175092.7504
  -9092423.51647  -7080221.58245  22018076.2114                   22018073.7624
   1017899.10546    800391.06642  24258680.0234                   24258678.4964
  -2993711.72747  -2218755.22345  21941641.3594                   21941638.2704
 11  7 25  0 22 30.0000000  0  8G27G02G17G04G10G09G20G28
 -11359067.13747  -8835303.09845  22321174.1484                   22321171.8914
 -12577669.08648  -9782942.98446  21982887.4694                   21982883.4494
  -9293344.96148  -7211998.09046  21420367.2734                   21420364.0354
 -20872299.02348 -16165265.32446  19811145.0394                   19811141.9964
  -7121449.32846  -5534140.79744  23162331.3674                   23162330.8484
  -9082146.85947  -7072213.82445  22020032.0944                   22020029.3794
   1086884.35946    854145.77742  24271808.3914                   24271805.3794
  -2910056.32447  -2153569.23045  21957560.4614                   21957557.6644
 11  7 25  0 23  0.0000000  0  8G27G02G17G04G10G09G20G28
 -11333855.48447  -8815657.67245  22325972.0784                   22325969.6954
 -12626019.23848  -9820618.37545  21973687.0394                   21973682.3524
  -9234452.24647  -7166107.65246  21431574.3204                   21431571.1294
 -20850599.80948 -16148356.83646  19815274.2424                   19815271.3594
  -7188360.31246  -5586279.13744  23149598.5634                   23149598.3404
  -9071168.68447  -7063659.39845  22022120.8984                   22022118.8914
   1156409.91046    908321.55542  24285038.3284                   24285036.6094
  -2825972.59447  -2088049.47345  21973560.5164                   21973557.9024
 11  7 25  0 23 30.0000000  0  8G27G02G17G04G10G09G20G28
 -11308100.98847  -8795589.27145  22330872.5164                   22330870.5004
 -12674000.12148  -9858006.01645  21964556.2114                   21964551.8404
  -9175413.28547  -7120103.27946  21442808.7814                   21442806.0004
 -20828281.80548 -16130966.16846  19819521.1884                   19819518.1604
  -7255112.06647  -5638293.39544  23136896.4614                   23136894.9804
  -9059492.82847  -7054561.34045  22024342.4534                   22024341.0124
   1226470.84846    962914.49642  24298369.9534                   24298368.1724
  -2741464.85947  -2022199.31945  21989642.3054                   21989639.4454
 11  7 25  0 24  0.0000000  0  8G27G02G17G04G10G09G20G28
 -11281803.46547  -8775097.72745  22335876.8914                   22335875.1524
 -12721609.77748  -9895104.39145  21955496.1334                   21955492.3754
  -9116227.93448  -7073984.82046  21454071.6174                   21454068.3204
 -20805345.13348 -16113093.42646  19823885.5784                   19823882.6914
  -7321701.02746  -5690180.77344  23124224.4454                   23124222.8164
  -9047118.85548  -7044919.30145  22026697.5784                   22026694.7504
   1297066.96146   1017924.38742  24311805.0314                   24311802.9574
  -2656532.78147  -1956018.51245  22005804.1484                   22005801.5354
 11  7 25  0 24 30.0000000  0  8G27G02G17G04G10G09G20G28
 -11254960.68447  -8754181.30945  22340984.6954                   22340982.5594
 -12768844.28148  -9931910.44145  21946507.6414                   21946503.5124
  -9056893.62147  -7027750.29346  21465362.5784                   21465359.1764
 -20781787.82848 -16094737.07846  19828368.9924                   19828366.0554
  -7388121.05147  -5741936.55144  23111585.3594                   23111583.8524
  -9034044.06247  -7034731.17245  22029185.8054                   22029183.0984
   1368199.35246   1073352.31642  24325339.9384                   24325338.8634
  -2571173.78547  -1889505.04745  22022048.1334                   22022045.1174
 11  7 25  0 25  0.0000000  0  9G27G02G17G12G04G10G09G20G28
 -11227577.37147  -8732843.70345  22346196.3284                   22346193.6914
 -12815706.87548  -9968426.71145  21937590.2664                   21937585.9574
  -8997414.65648  -6981403.05546  21476680.8754                   21476677.6524
  -1695408.46156  -1307103.31253  24589141.8284                   24589139.6334
 -20757614.77748 -16075900.92546  19832968.4224                   19832966.1524
  -7454373.31647  -5793561.59044  23098977.8054                   23098976.3404
  -9020272.54347  -7024000.13745  22031806.3054                   22031804.3754
   1439862.87546   1129193.94942  24338976.8054                   24338976.7624
  -2485392.31247  -1822662.36745  22038371.4534                   22038368.2074
 11  7 25  0 25 30.0000000  0  9G27G02G17G12G04G10G09G20G28
 -11199653.99247  -8711085.27345  22351509.7114                   22351507.3164
 -12862196.32848 -10004652.19145  21928743.6174                   21928739.5204
  -8937791.09448  -6934943.13346  21488026.9614                   21488023.6334
  -1766227.47346  -1362287.01243  24575666.0004                   24575663.6914
 -20732826.74248 -16056585.55946  19837686.0164                   19837682.4614
  -7520454.35547  -5845053.20744  23086403.4224                   23086402.1454
  -9005804.30147  -7012726.19945  22034559.2114                   22034557.6684
   1512056.73446   1185448.87543  24352715.8054                   24352713.9964
  -2399188.99647  -1755491.00045  22054775.4694                   22054772.4414
 11  7 25  0 26  0.0000000  0  9G27G02G17G12G04G10G09G20G28
 -11171205.69547  -8688917.80145  22356923.2194                   22356920.9344
 -12908326.39548 -10040597.65645  21919965.0784                   21919961.1994
  -8878037.90248  -6888382.20746  21499398.2194                   21499394.8204
  -1837026.93446  -1417455.45343  24562192.7034                   24562191.2034
 -20707439.32848 -16036803.15246  19842516.8594                   19842513.7774
  -7586375.46547  -5896420.21944  23073858.6174                   23073857.4104
  -8990653.97347  -7000920.77745  22037442.2894                   22037440.6094
   1584765.34846   1242105.01242  24366551.5004                   24366549.6954
  -2312578.52747  -1688002.35245  22071256.8754                   22071254.3284
 11  7 25  0 26 30.0000000  0  9G27G02G17G12G04G10G09G20G28
 -11142223.27347  -8666334.12945  22362438.4454                   22362435.8204
 -12954085.91448 -10076254.36345  21911257.3364                   21911253.4694
  -8818145.53947  -6841712.84846  21510795.2274                   21510791.6914
  -1907795.85946  -1472600.12543  24548725.6884                   24548724.3054
 -20681443.62948 -16016546.75846  19847463.6804                   19847459.9144
  -7652123.77346  -5947652.58244  23061347.1024                   23061345.7114
  -8974812.03947  -6988576.43445  22040457.3754                   22040455.5314
   1657997.01246   1299168.62943  24380486.4064                   24380485.2034
  -2225551.59447  -1620189.19945  22087817.7034                   22087814.4694
 11  7 25  0 27  0.0000000  0  9G27G02G17G12G04G10G09G20G28
 -11112704.02447  -8643332.15545  22368055.7194                   22368053.8014
 -12999470.29648 -10111618.76345  21902620.5634                   21902616.7664
  -8758109.98448  -6794931.89846  21522219.1564                   21522215.8364
  -1978529.06246  -1527716.92643  24535266.3054                   24535264.1294
 -20654836.94348 -15995814.26546  19852526.3984                   19852523.6804
  -7717692.39247  -5998744.89744  23048869.7274                   23048868.3204
  -8958275.23647  -6975690.63945  22043604.0004                   22043601.7734
   1731754.27046   1356641.77042  24394521.6094                   24394520.6644
  -2138105.10547  -1552049.13745  22104457.9144                   22104455.0354
 11  7 25  0 27 30.0000000  0  9G27G02G17G12G04G10G09G20G28
 -11082650.50047  -8619913.84845  22373774.7274                   22373772.5474
 -13044480.46148 -10146691.57045  21894056.0474                   21894051.4774
  -8697934.28947  -6748041.74646  21533670.3364                   21533667.0744
  -2049226.69546  -1582806.05543  24521812.4534                   24521811.1994
 -20627622.11348 -15974607.89546  19857705.3054                   19857702.2854
  -7783079.82446  -6049696.04344  23036426.3134                   23036425.0784
  -8941045.88747  -6962265.21945  22046882.8054                   22046880.5164
   1806033.55146   1414521.68043  24408657.0784                   24408655.6134
  -2050241.53547  -1483584.03545  22121177.8834                   22121175.4694
 11  7 25  0 28  0.0000000  0  9G27G02G17G12G04G10G09G20G28
 -11052060.00047  -8596077.12145  22379596.1884                   22379594.1884
 -13089112.40248 -10181469.64545  21885562.3984                   21885558.3204
  -8637615.07047  -6701039.76646  21545148.9534                   21545145.6764
  -2119883.64546  -1637863.35243  24508366.6954                   24508365.9224
 -20599796.91448 -15952925.90646  19863000.6174                   19862997.8754
  -7848279.73847  -6100501.10244  23024019.2734                   23024018.1914
  -8923120.64147  -6948297.52745  22050294.1254                   22050292.0004
   1880837.26646   1472810.23443  24422893.3594                   24422890.2464
  -1961957.75047  -1414791.53145  22137977.7584                   22137974.5594
 11  7 25  0 28 30.0000000  0  9G27G02G17G12G04G10G09G20G28
 -11020928.59447  -8571818.91445  22385520.2504                   22385517.9534
 -13133360.05548 -10215948.28146  21877142.5784                   21877138.3754
  -8577147.68047  -6653922.33246  21556655.4224                   21556652.0004
  -2190493.57846  -1692884.02044  24494929.6254                   24494929.3284
 -20571357.30948 -15930765.16446  19868412.2664                   19868409.0704
  -7913284.28946  -6151153.93044  23011649.6564                   23011648.0084
  -8904495.03547  -6933784.09445  22053838.2584                   22053836.5474
   1956169.02747   1531510.33243  24437227.5084                   24437225.1334
  -1873249.43747  -1345668.20745  22154858.0314                   22154855.9924
 11  7 25  0 29  0.0000000  0  9G27G02G17G12G04G10G09G20G28
 -10989264.12947  -8547145.31645  22391545.5084                   22391543.5634
 -13177229.68448 -10250132.35946  21868794.3204                   21868790.3874
  -8516539.41847  -6606695.13746  21568188.4614                   21568185.3674
  -2261062.15247  -1747872.41043  24481501.1094                   24481500.4344
 -20542311.63748 -15908132.16046  19873939.1334                   19873935.9964
  -7978097.34047  -6201657.50044  22999315.5554                   22999314.1294
  -8885176.62547  -6918730.81545  22057514.2894                   22057512.1604
   2032020.27047   1590615.19543  24451661.4304                   24451659.7234
  -1784124.41447  -1276220.18745  22171818.1334                   22171815.7704
 11  7 25  0 29 30.0000000  0  9G27G02G17G12G04G10G09G20G28
 -10957048.07047  -8522041.89845  22397676.2274                   22397674.4144
 -13220701.34048 -10284006.32446  21860522.1804                   21860518.2854
  -8455771.45347  -6559343.48446  21579752.5234                   21579748.7464
  -2331568.36746  -1802812.18043  24468084.4924                   24468083.0394
 -20512641.57848 -15885012.62146  19879585.3524                   19879582.5274
  -8042696.50447  -6251994.45344  22987022.7814                   22987021.7074
  -8865146.67648  -6903123.06645  22061326.0314                   22061323.9924
   2108409.13346   1650139.00843  24466197.2814                   24466196.0354
  -1694563.73447  -1206432.69145  22188861.2034                   22188858.5434
 11  7 25  0 30  0.0000000  0  9G27G02G17G12G04G10G09G20G28
 -10924283.26247  -8496510.87945  22403911.0554                   22403909.3674
 -13263775.40648 -10317570.47746  21852325.2114                   21852321.0554
  -8394845.47347  -6511868.70346  21591346.0314                   21591343.1414
  -2402012.86346  -1857703.89544  24454680.0394                   24454678.2304
 -20482350.28948 -15861409.00446  19885349.7344                   19885346.5634
  -8107080.26247  -6302163.53144  22974770.9614                   22974769.7704
  -8844407.55547  -6886962.73045  22065272.7894                   22065270.3874
   2185331.86746   1710078.76643  24480835.0784                   24480834.0124
  -1604570.12947  -1136307.85245  22205986.5394                   22205983.9884
 11  7 25  0 30 30.0000000  0  9G27G02G17G12G04G10G09G20G28
 -10890980.05547  -8470560.32745  22410248.0084                   22410246.7344
 -13306460.91048 -10350831.85246  21844202.8444                   21844198.0864
  -8333771.69147  -6464278.75446  21602968.3834                   21602965.0554
  -2472403.51046  -1912553.61743  24441284.5234                   24441282.7664
 -20451448.38348 -15837329.58246  19891230.1954                   19891227.1254
  -8171255.04747  -6352169.78944  22962559.0944                   22962557.6214
  -8822969.07847  -6870257.42245  22069351.9844                   22069349.8094
   2262777.82846   1770426.23443  24495573.8594                   24495571.1484
  -1514153.30147  -1065853.22345  22223192.7274                   22223189.4804
 11  7 25  0 31  0.0000000  0  9G27G02G17G12G04G10G09G20G28
 -10857127.53547  -8444181.73845  22416690.1484                   22416688.6414
 -13348745.35248 -10383780.71946  21836155.9454                   21836151.2504
  -8272538.50047  -6416564.59846  21614620.5704                   21614616.9144
  -2542726.66446  -1967350.73044  24427903.0004                   24427901.0394
 -20419925.37548 -15812766.18446  19897228.9064                   19897225.7544
  -8235206.00447  -6402001.66444  22950389.5394                   22950388.1174
  -8800820.21148  -6852998.56245  22073566.6174                   22073564.4844
   2340757.40646   1831189.55943  24510412.3134                   24510409.8834
  -1423302.66847   -995060.54745  22240480.9384                   22240478.3164
 11  7 25  0 31 30.0000000  0  9G27G02G17G12G04G10G09G20G28
 -10822730.29747  -8417378.68445  22423236.0084                   22423233.7704
 -13390631.67648 -10416419.36746  21828184.9844                   21828180.9574
  -8211149.60247  -6368729.10946  21626302.3284                   21626299.3054
  -2612984.58646  -2022097.01644  24414532.2114                   24414531.3484
 -20387785.78848 -15787722.34246  19903344.6334                   19903342.1484
  -8298933.40647  -6451659.30944  22938262.4064                   22938260.2894
  -8777964.98047  -6835189.29845  22077916.4924                   22077913.8444
   2419265.52047   1892364.71143  24525352.0784                   24525350.2584
  -1332022.05547   -923932.84045  22257851.0634                   22257847.9654
 11  7 25  0 32  0.0000000  0  9G27G02G17G12G04G10G09G20G28
 -10787788.35247  -8390151.17245  22429885.3134                   22429883.1804
 -13432117.55948 -10448745.96146  21820290.7194                   21820286.1954
  -8149604.21947  -6320771.68746  21638013.8754                   21638010.7154
  -2683174.73747  -2076790.50444  24401176.0394                   24401174.0944
 -20355029.93748 -15762198.28546  19909577.8594                   19909574.9184
  -8362433.21547  -6501139.59444  22926178.8134                   22926177.7584
  -8754403.12947  -6816829.41045  22082399.8834                   22082397.2544
   2498301.61747   1953951.29343  24540392.2664                   24540389.6254
  -1240311.14147   -852469.80945  22275303.0394                   22275300.4884
 11  7 25  0 32 30.0000000  0  9G27G02G17G12G04G10G09G20G28
 -10752305.97347  -8362502.55145  22436637.0084                   22436635.6094
 -13473205.43448 -10480762.43746  21812471.9304                   21812467.2774
  -8087906.03947  -6272695.19546  21649754.6564                   21649751.9024
  -2753298.97346  -2131432.65244  24387831.5474                   24387829.8484
 -20321662.49248 -15736197.66446  19915927.3524                   19915924.2384
  -8425705.69547  -6550442.74244  22914138.1804                   22914136.9884
  -8730138.47747  -6797921.88745  22087017.0634                   22087014.9614
   2577861.12947   2015945.71543  24555531.9614                   24555529.5044
  -1148174.27047   -780674.86745  22292835.7664                   22292833.3554
 11  7 25  0 33  0.0000000  0  9G27G02G17G12G04G10G09G20G28
 -10716287.09447  -8334435.88345  22443491.6174                   22443489.3054
 -13513897.83248 -10512470.75046  21804728.7814                   21804724.5514
  -8026058.12547  -6224502.03146  21661524.0234                   21661521.1604
  -2823358.19547  -2186024.16044  24374499.8914                   24374498.3094
 -20287687.79348 -15709723.85946  19922392.7584                   19922389.8164
  -8488750.67647  -6599568.62144  22902141.5634                   22902139.7774
  -8705174.45747  -6778469.37945  22091767.1334                   22091764.9734
   2657939.25446   2078344.25443  24570769.8364                   24570767.6484
  -1055614.98447   -708550.78145  22310449.1094                   22310446.6644
 11  7 25  0 33 30.0000000  0  9G27G02G17G12G04G10G09G20G28
 -10679730.14547  -8305949.92245  22450447.4304                   22450446.0434
 -13554191.41448 -10543868.28946  21797060.9924                   21797056.0664
  -7964058.28547  -6176190.47346  21673322.0394                   21673319.2504
  -2893348.56747  -2240562.00344  24361180.8284                   24361179.1094
 -20253104.32448 -15682775.69146  19928973.5004                   19928970.7774
  -8551562.30547  -6648512.64844  22890188.2814                   22890187.2424
  -8679509.45747  -6758470.67645  22096651.3594                   22096648.8554
   2738537.24246   2141147.89543  24586107.0234                   24586105.0314
   -962631.12547   -636095.85245  22328144.1884                   22328140.4494
 11  7 25  0 34  0.0000000  0  9G27G02G17G12G04G10G09G20G28
 -10642625.34047  -8277037.08645  22457508.7114                   22457507.0204
 -13594074.37548 -10574945.86746  21789471.0084                   21789466.6134
  -7901896.09047  -6127752.41446  21685151.7814                   21685147.9344
  -2963257.30947  -2295036.24644  24347877.4694                   24347875.9304
 -20217902.73448 -15655345.86746  19935672.3284                   19935669.4414
  -8614126.69547  -6697264.04744  22878283.2734                   22878281.7114
  -8653133.46547  -6737917.95745  22101670.6024                   22101668.1994
   2819664.19546   2204363.68443  24601545.7114                   24601543.5984
   -869212.77347   -563302.35945  22345920.4144                   22345918.2274
 11  7 25  0 34 30.0000000  0  9G27G02G17G12G04G10G09G20G28
 -10604986.27447  -8247707.93645  22464670.9694                   22464669.4104
 -13633558.39848 -10605712.58246  21781957.4304                   21781952.9694
  -7839583.78948  -6079197.39846  21697008.8364                   21697005.8914
  -3033095.59447  -2349455.63744  24334587.9064                   24334585.8634
 -20182096.63748 -15627445.00446  19942485.9614                   19942483.1094
  -8676452.88347  -6745829.84444  22866422.3754                   22866421.0274
  -8626059.45747  -6716821.32045  22106822.6024                   22106820.1844
   2901306.25446   2267980.88343  24617081.0164                   24617079.0234
   -775372.94947   -490180.43445  22363777.7664                   22363774.9264
 11  7 25  0 35  0.0000000  0  9G27G02G17G12G04G10G09G20G28
 -10566791.01647  -8217945.39545  22471939.3284                   22471937.6884
 -13672620.09848 -10636150.21146  21774524.4534                   21774520.1644
  -7777098.57048  -6030507.63746  21708899.6644                   21708895.9844
  -3102838.87946  -2403800.98843  24321315.5314                   24321314.1054
 -20145664.68748 -15599056.46546  19949418.9144                   19949416.0274
  -8738514.99247  -6794189.86344  22854612.2114                   22854611.1524
  -8598265.71947  -6695163.87545  22112111.5554                   22112109.6484
   2983484.51246   2332015.87943  24632719.8594                   24632717.6214
   -681089.79747   -416713.08645  22381719.0394                   22381717.1454
 11  7 25  0 35 30.0000000  0  8G27G02G17G12G04G10G09G28
 -10528060.51647  -8187765.78545  22479309.2194                   22479308.0234
 -13711278.08648 -10666273.26646  21767167.6884                   21767163.3794
  -7714460.56248  -5981698.80946  21720819.1804                   21720816.2274
  -3172504.98046  -2458086.25043  24308058.7664                   24308057.0824
 -20108627.75048 -15570196.50846  19956466.7274                   19956463.4734
  -8800329.27747  -6842356.77344  22842849.0234                   22842848.3634
  -8569772.42647  -6672961.31645  22117533.8054                   22117531.8284
   -586383.59047   -342916.04745  22399741.3834                   22399737.6374
 11  7 25  0 36  0.0000000  0  8G27G02G17G12G04G10G09G28
 -10488785.21147  -8157161.66845  22486783.3524                   22486781.9024
 -13749521.39848 -10696073.19146  21759890.2664                   21759885.7274
  -7651659.69147  -5932763.09446  21732769.3524                   21732766.6524
  -3242081.73847  -2512301.83643  24294818.5394                   24294817.9774
 -20070976.86348 -15540858.15646  19963631.1414                   19963628.0164
  -8861882.54747  -6890320.28544  22831136.3834                   22831135.0124
  -8540570.16447  -6650206.30545  22123090.3364                   22123088.7734
   -491244.78547   -268781.95745  22417845.7894                   22417843.4064
 11  7 25  0 36 30.0000000  0  8G27G02G17G12G04G10G09G28
 -10448952.32847  -8126123.06245  22494363.3834                   22494361.1254
 -13787335.34448 -10725538.53546  21752694.4774                   21752689.6024
  -7588681.84047  -5883689.44946  21744754.0554                   21744751.1254
  -3311553.25047  -2566435.48043  24281599.2584                   24281596.1024
 -20032699.28548 -15511031.46546  19970915.2814                   19970912.4734
  -8923157.25447  -6938066.73044  22819475.9144                   22819474.3834
  -8510645.77747  -6626888.60245  22128785.0314                   22128782.7664
   -395660.04347   -194300.39545  22436034.5004                   22436032.1414
 11  7 25  0 37  0.0000000  0  8G27G02G17G12G04G10G09G28
 -10408576.32447  -8094661.26245  22502046.9304                   22502044.8794
 -13824732.45348 -10754679.09046  21745577.5704                   21745573.3794
  -7525540.69548  -5834488.56246  21756769.6024                   21756766.5904
  -3380931.63747  -2620496.51643  24268397.3204                   24268394.3094
 -19993809.95348 -15480728.07446  19978315.9454                   19978312.9964
  -8984163.73047  -6985604.18744  22807866.8674                   22807864.5354
  -8480013.25047  -6603019.12145  22134614.8444                   22134612.2034
   -299643.37147   -119482.25045  22454306.4304                   22454303.4414
 11  7 25  0 37 30.0000000  0  8G27G02G17G12G04G10G09G28
 -10367652.18747  -8062772.32845  22509833.9304                   22509832.1214
 -13861705.47348 -10783489.16846  21738542.2664                   21738537.4654
  -7462229.65247  -5785155.28946  21768817.0314                   21768813.5664
  -3450208.34446  -2674478.34043  24255213.6094                   24255211.0434
 -19954303.62548 -15449943.92246  19985833.4454                   19985830.3674
  -9044892.14147  -7032924.95344  22796310.1564                   22796309.3134
  -8448667.42247  -6578593.78945  22140578.8594                   22140577.0164
   -203189.23447    -44323.20745  22472661.1094                   22472658.3324
 11  7 25  0 38  0.0000000  0  8G27G02G17G12G04G10G09G28
 -10326168.84447  -8030447.65645  22517728.6094                   22517726.7624
 -13898241.60948 -10811958.82446  21731589.7194                   21731585.5204
  -7398736.83648  -5735680.37946  21780899.8054                   21780896.9964
  -3519369.63146  -2728370.18443  24242052.0234                   24242050.2814
 -19914169.75848 -15418670.77746  19993470.7504                   19993467.7624
  -9105327.54847  -7080017.43744  22784810.2344                   22784808.6564
  -8416596.93047  -6553603.81645  22146682.5234                   22146679.8874
   -106286.38747     31185.44145  22491101.0004                   22491098.2154
 11  7 25  0 38 30.0000000  0  8G27G02G17G12G04G10G09G28
 -10284140.30147  -7997698.16845  22525726.5634                   22525724.0234
 -13934353.07848 -10840097.57446  21724717.6484                   21724713.1764
  -7335075.05948  -5686073.82446  21793014.6024                   21793010.6484
  -3588426.57847  -2782180.68444  24228911.2034                   24228909.0204
 -19873422.71948 -15386919.84046  20001224.5004                   20001222.0514
  -9165479.34847  -7126888.91444  22773363.1884                   22773362.3754
  -8383815.63347  -6528059.94145  22152920.4224                   22152917.9654
     -8948.35247    107033.21145  22509624.0634                   22509621.2504
 11  7 25  0 39  0.0000000  0  8G27G02G17G12G04G10G09G28
 -10241561.66847  -7964520.04345  22533828.7424                   22533826.5124
 -13970033.12148 -10867900.14846  21717927.7894                   21717923.7114
  -7271238.41448  -5636330.98046  21805161.9224                   21805158.6884
  -3657371.32047  -2835903.82844  24215792.1564                   24215788.9144
 -19832057.87548 -15354687.49246  20009096.0234                   20009093.4224
  -9225338.19947  -7173532.10544  22761972.5164                   22761971.1724
  -8350318.24247  -6501958.08645  22159294.2584                   22159292.5394
     88829.96947    183224.07045  22528230.4454                   22528228.4104
 11  7 25  0 39 30.0000000  0  8G27G02G17G12G04G10G09G28
 -10198439.16047  -7930918.10245  22542034.0554                   22542032.8594
 -14005286.18448 -10895370.01246  21711219.6094                   21711214.7854
  -7207232.24648  -5586456.06246  21817341.3444                   21817338.2274
  -3726207.01647  -2889541.92644  24202692.7274                   24202689.7624
 -19790081.49248 -15321978.61746  20017083.7504                   20017081.3244
  -9284905.68047  -7219948.32444  22750637.2274                   22750635.6954
  -8316110.86747  -6475302.99245  22165803.9384                   22165801.8364
    187042.86747    259753.55144  22546919.7034                   22546917.2734
 11  7 25  0 40  0.0000000  0  8G27G02G17G12G04G10G09G28
 -10154770.23047  -7896890.39545  22550344.4924                   22550342.8364
 -14040107.51848 -10922503.46346  21704593.4774                   21704588.7074
  -7143052.74948  -5536446.07746  21829554.7034                   21829551.2304
  -3794928.12147  -2943090.75744  24189615.3134                   24189612.8874
 -19747491.35048 -15288791.49846  20025188.6334                   20025185.6094
  -9344175.19147  -7266132.29344  22739359.5314                   22739356.9534
  -8281190.90647  -6448092.61345  22172449.4304                   22172447.4384
    285692.95747    336623.69145  22565692.6564                   22565689.8524
 11  7 25  0 40 30.0000000  0  8G27G02G17G12G04G10G09G28
 -10110557.43747  -7862438.89545  22558758.0474                   22558755.3244
 -14074497.96548 -10949301.16446  21698049.1024                   21698044.1604
  -7078701.22348  -5486302.02746  21841800.3754                   21841797.1844
  -3863534.30547  -2996550.05143  24176559.9384                   24176557.1684
 -19704290.28148 -15255128.32446  20033409.4774                   20033406.6844
  -9403144.33647  -7312082.22744  22728137.1724                   22728135.3984
  -8245560.66847  -6420328.77345  22179229.4694                   22179227.1054
    384778.65247    413833.29745  22584547.5314                   22584544.7584
 11  7 25  0 41  0.0000000  0  8G27G02G17G12G04G10G09G28
 -10065809.68447  -7827570.53145  22567272.6024                   22567271.3594
 -14108464.46948 -10975768.51246  21691585.3134                   21691580.7074
  -7014185.39547  -5436029.95746  21854077.4534                   21854074.1724
  -3932030.94547  -3049924.00043  24163525.4534                   24163522.6684
 -19660487.42648 -15220996.21946  20041744.6414                   20041742.0944
  -9461817.59447  -7357801.58245  22716971.9304                   22716971.0514
  -8209229.06247  -6392018.41045  22186142.8834                   22186140.2194
    484291.07047    491375.37545  22603484.6724                   22603481.5784
 11  7 25  0 41 30.0000000  0  8G27G02G17G12G04G10G09G28
 -10020521.00847  -7792280.68745  22575891.9144                   22575889.2934
 -14141998.99648 -11001899.28146  21685204.0314                   21685199.3054
  -6949498.09447  -5385624.27746  21866386.7424                   21866383.8204
  -4000409.31246  -3103205.74643  24150513.2114                   24150511.3164
 -19616077.12948 -15186390.78946  20050195.8524                   20050192.8984
  -9520184.74647  -7403282.43744  22705865.1334                   22705863.5664
  -8172189.60947  -6363156.48845  22193191.2584                   22193189.4344
    584236.44147    569254.83644  22622503.6254                   22622500.4224
 11  7 25  0 42  0.0000000  0  8G27G02G17G12G04G10G09G28
  -9974701.65947  -7756577.32945  22584610.5554                   22584608.5474
 -14175109.94548 -11027699.98046  21678902.8984                   21678898.4024
  -6884648.27748  -5335091.96146  21878727.5704                   21878724.0394
  -4068676.72747  -3156401.05544  24137521.8284                   24137519.9104
 -19571070.27048 -15151320.50846  20058760.2504                   20058757.2894
  -9578251.49547  -7448529.18044  22694815.1174                   22694813.4104
  -8134452.54747  -6333750.97345  22200372.4614                   22200370.5044
    684604.97347    647464.05544  22641602.5314                   22641600.1254
 11  7 25  0 42 30.0000000  0  8G27G02G17G12G04G10G09G28
  -9928337.28547  -7720449.27045  22593434.0944                   22593431.7304
 -14207781.00448 -11053157.91446  21672686.0234                   21672681.1914
  -6819619.94548  -5284420.53146  21891102.1254                   21891098.7734
  -4136815.19947  -3209495.84044  24124556.0314                   24124554.0274
 -19525452.01248 -15115773.80146  20067441.1024                   20067438.6454
  -9635998.58647  -7493526.85544  22683826.3754                   22683824.9224
  -8096003.35547  -6303790.55145  22207689.1174                   22207686.8444
    785411.77747    726014.75444  22660785.7504                   22660782.7344
 11  7 25  0 43  0.0000000  0  8G27G02G17G12G04G10G09G28
  -9881436.70747  -7683903.40645  22602358.1884                   22602356.2854
 -14240018.90248 -11078278.31646  21666551.2584                   21666546.1844
  -6754420.84448  -5233616.05146  21903509.1414                   21903505.9104
  -4204830.52047  -3262494.68044  24111613.3914                   24111611.2274
 -19479231.97748 -15079758.18746  20076236.7194                   20076233.6214
  -9693430.63747  -7538279.00045  22672898.0084                   22672896.1024
  -8056850.94547  -6273282.16845  22215139.9454                   22215137.2274
    886648.44547    804900.44544  22680049.9064                   22680048.3874
 11  7 25  0 43 30.0000000  0  8G27G02G17G12G04G10G09G28
  -9834001.43447  -7646940.87845  22611384.6724                   22611383.2154
 -14271823.42748 -11103061.03146  21660499.0314                   21660494.2154
  -6689051.27048  -5182678.73146  21915948.3984                   21915944.7704
  -4272721.11247  -3315396.35544  24098694.2664                   24098691.8834
 -19432411.68148 -15043274.84046  20085146.4144                   20085142.8794
  -9750544.66847  -7582783.36545  22662028.7114                   22662027.0864
  -8016996.55247  -6242226.78745  22222723.6724                   22222721.3134
    988313.42047    884119.83644  22699396.6334                   22699393.3674
 11  7 25  0 44  0.0000000  0  8G27G02G17G12G04G10G09G28
 -11361460.80147  -8837169.01645  22320719.4694                   22320716.6134
 -15878624.77348 -12355113.98846  21354734.6954                   21354730.0824
  -8198938.70748  -6359214.41046  21628625.8984                   21628623.0274
  -5915916.67247  -4595808.39544  23786004.3364                   23786002.2854
 -20960420.80148 -16233931.29746  19794375.6414                   19794373.0744
 -11382768.48847  -8854646.02345  22351427.2504                   22351425.9224
  -9551869.66447  -7438231.81645  21930646.4144                   21930644.9844
   -485020.04347   -263932.22744  22419030.6644                   22419028.2734
 11  7 25  0 44 30.0000000  0  8G27G02G17G12G04G10G09G28
 -11312972.90647  -8799386.28545  22329946.6254                   22329944.4224
 -15909573.39548 -12379229.77046  21348845.5004                   21348840.7854
  -8133240.77748  -6308021.23046  21641128.3134                   21641125.0784
  -5983564.01647  -4648520.52744  23773131.4304                   23773128.8594
 -20912417.53948 -16196526.15646  19803510.2894                   19803507.5864
 -11439248.60547  -8898656.43045  22340679.0164                   22340677.8834
  -9510627.74247  -7406095.25045  21938494.6724                   21938492.7814
   -382513.32447   -184056.91844  22438537.3134                   22438534.6174
 11  7 25  0 45  0.0000000  0  8G27G02G17G12G04G10G09G28
 -11263953.35547  -8761189.26645  22339274.1024                   22339272.9104
 -15940085.71548 -12403005.58246  21343039.1644                   21343034.6804
  -8067371.40647  -6256694.44946  21653662.8834                   21653659.5004
  -6051079.93046  -4701130.25044  23760283.2814                   23760280.6174
 -20863817.86348 -16158656.27746  19812758.8834                   19812755.9264
 -11495399.74647  -8942410.49244  22329993.4384                   22329991.7854
  -9468686.73047  -7373413.93745  21946475.3444                   21946474.0314
   -279579.72747   -103848.96944  22458124.8524                   22458122.1914
 11  7 25  0 45 30.0000000  0  8G27G02G17G12G04G10G09G28
 -11214399.03547  -8722575.57445  22348704.1094                   22348702.5474
 -15970156.64548 -12426437.43746  21337316.8984                   21337312.2424
  -8001325.67648  -6205230.25046  21666230.6644                   21666227.7034
  -6118457.51646  -4753632.21944  23747461.5474                   23747459.4384
 -20814618.88348 -16120319.40246  19822120.7734                   19822117.6414
 -11551213.67647  -8985901.80145  22319373.0314                   22319371.1684
  -9426043.57848  -7340185.52045  21954590.4144                   21954588.3444
   -176215.83647    -23305.75044  22477794.3284                   22477792.4144
 11  7 25  0 46  0.0000000  0  8G27G02G17G12G04G10G09G28
 -11164316.83647  -8683550.53945  22358234.4144                   22358232.7584
 -15999790.99648 -12449529.11346  21331677.6564                   21331673.2274
  -7935109.02748  -6153632.88746  21678831.2034                   21678828.2584
  -6185700.68746  -4806029.45344  23734665.7344                   23734663.2774
 -20764827.73048 -16081521.09446  19831595.9064                   19831593.0784
 -11606692.98847  -9029132.36345  22308815.4454                   22308813.4924
  -9382704.90248  -7306415.12545  21962837.9064                   21962835.8794
    -72427.93747     57567.88744  22497544.5084                   22497541.4224
 11  7 25  0 46 30.0000000  0  8G27G02G17G12G04G10G09G28
 -11113708.13347  -8644115.24245  22367864.8284                   22367863.1914
 -16028988.03948 -12472280.03546  21326121.3594                   21326116.7544
  -7868721.50848  -6101902.34445  21691464.6334                   21691461.3284
  -6252807.04746  -4858320.09844  23721896.4694                   23721893.3284
 -20714445.95648 -16042262.56846  19841183.1254                   19841180.4304
 -11661833.89547  -9072099.23445  22298322.3364                   22298320.3404
  -9338671.73048  -7272103.55145  21971217.1884                   21971215.0124
     31783.02347    138771.16045  22517375.6884                   22517373.8594
 11  7 25  0 47  0.0000000  0  8G27G02G17G12G04G10G09G28
 -11062567.73047  -8604265.64845  22377596.8754                   22377595.1564
 -16057740.73048 -12494684.69546  21320649.9614                   21320645.4614
  -7802156.39548  -6050033.42646  21704131.8524                   21704128.2814
  -6319768.04346  -4910497.44144  23709153.3594                   23709151.5824
 -20663468.63348 -16002539.98046  19850883.7194                   19850881.2154
 -11716626.78947  -9114794.93745  22287895.4304                   22287893.9534
  -9293938.96147  -7237246.85245  21979729.3984                   21979727.2664
    136422.71547    220308.49244  22537287.5164                   22537284.9774
 11  7 25  0 47 30.0000000  0  8G27G02G17G12G04G10G09G28
 -11010903.48047  -8564007.85545  22387427.8594                   22387426.5474
 -16086055.04348 -12516747.75846  21315262.0554                   21315257.4654
  -7735420.07448  -5998031.10246  21716831.1174                   21716827.8954
  -6386588.12946  -4962564.99643  23696437.7974                   23696435.5984
 -20611903.93048 -15962359.68046  19860696.0944                   19860693.0554
 -11771075.10547  -9157222.11745  22277534.7034                   22277532.8164
  -9248514.88348  -7201851.48045  21988372.9304                   21988370.9224
    241483.35247    302173.89844  22557279.8674                   22557277.4804
 11  7 25  0 48  0.0000000  0  8G27G02G17G12G04G10G09G28
 -10958712.65247  -8523339.75445  22397360.6804                   22397358.2854
 -16113926.28548 -12538465.58246  21309958.3984                   21309953.5164
  -7668508.21548  -5945892.00446  21729563.7274                   21729560.7584
  -6453261.15246  -5014517.94144  23683750.2734                   23683748.8014
 -20559749.42648 -15921719.79346  19870620.9454                   19870618.1764
 -11825171.05547  -9199374.75445  22267239.8834                   22267238.0164
  -9202396.42248  -7165915.02345  21997149.7734                   21997147.2664
    346968.23847    384369.78944  22577352.9384                   22577351.0944
 11  7 25  0 48 30.0000000  0  8G27G02G17G12G04G10G09G28
 -10906000.02347  -8482265.03145  22407390.7664                   22407389.2234
 -16141357.18448 -12559840.28146  21304738.4694                   21304733.7774
  -7601423.87948  -5893618.51246  21742329.7424                   21742326.3524
  -6519788.30947  -5066357.22344  23671090.5704                   23671088.9144
 -20507009.99648 -15880624.13346  19880656.9144                   19880654.1294
 -11878914.59847  -9241252.76645  22257012.8984                   22257011.3674
  -9155588.37547  -7129441.25045  22006056.7894                   22006054.5044
    452873.25047    466893.16444  22597505.9064                   22597503.2544
 11  7 25  0 49  0.0000000  0  8G27G02G17G12G04G10G09G28
 -10852768.90247  -8440786.31645  22417520.6724                   22417518.9304
 -16168349.00448 -12580872.84446  21299602.1804                   21299596.9384
  -7534168.98448  -5841212.11346  21755127.4384                   21755124.7544
  -6586169.23847  -5118082.55144  23658458.4774                   23658456.9264
 -20453689.28548 -15839075.51646  19890803.5314                   19890800.7424
 -11932304.41047  -9282855.14545  22246853.3594                   22246851.4694
  -9108093.91447  -7092432.58245  22015094.4844                   22015092.5004
    559195.44547    549741.51244  22617739.3284                   22617736.9304
 11  7 25  0 49 30.0000000  0  8G27G02G17G12G04G10G09G28
 -10799027.43647  -8398909.90445  22427746.5944                   22427745.1684
 -16194907.51348 -12601567.75246  21294547.8594                   21294543.6884
  -7466749.47648  -5788677.44246  21767957.0634                   21767953.9454
  -6652408.80246  -5169697.70444  23645853.6564                   23645852.6254
 -20399795.36048 -15797080.24146  19901058.9614                   19901056.0864
 -11985343.31747  -9324184.12945  22236760.1174                   22236757.8984
  -9059921.06848  -7054895.31545  22024261.4534                   22024259.6334
    665927.50347    632909.30344  22638049.5554                   22638046.7074
 11  7 25  0 50  0.0000000  0  8G27G02G17G12G04G10G09G28
 -10744764.34447  -8356627.02345  22438072.7034                   22438071.4614
 -16221019.62948 -12621914.82446  21289579.0634                   21289574.7274
  -7399153.07448  -5736004.92246  21780820.4774                   21780817.3714
  -6718491.91446  -5221190.96544  23633278.3754                   23633276.5204
 -20345317.43048 -15754629.90246  19911425.7664                   19911423.2624
 -12038015.69547  -9365227.47345  22226737.0084                   22226734.9694
  -9011058.68047  -7016820.75045  22033560.3204                   22033558.2464
    773080.74647    716405.27344  22658440.2424                   22658437.5084
 11  7 25  0 50 30.0000000  0  8G27G02G17G12G04G10G09G28
 -10689978.80547  -8313937.04345  22448497.8594                   22448496.5314
 -16246682.36748 -12641911.73046  21284695.6954                   21284690.8954
  -7331376.94148  -5683192.36346  21793717.8524                   21793714.8714
  -6784414.30547  -5272559.01644  23620733.3364                   23620731.6524
 -20290254.68048 -15711723.85246  19921904.0004                   19921901.3134
 -12090316.00047  -9405980.88745  22216784.1724                   22216783.3524
  -8961506.23847  -6978208.48045  22042989.3364                   22042986.9924
    880656.75047    800230.66044  22678910.1884                   22678908.9064
 11  7 25  0 51  0.0000000  0  8G27G02G17G12G04G10G09G28
 -10634672.70747  -8270841.43745  22459022.9534                   22459021.2074
 -16271895.79748 -12661558.52746  21279897.7424                   21279893.1414
  -7263421.33248  -5630239.94546  21806649.0944                   21806646.3014
  -6850173.92247  -5323800.26644  23608220.5864                   23608218.3014
 -20234609.35248 -15668363.85546  19932492.9534                   19932489.7854
 -12142241.17247  -9446442.02045  22206903.6254                   22206901.8134
  -8911265.32447  -6939059.73445  22052549.7034                   22052548.2974
    988654.19147    884384.42244  22699462.7894                   22699459.9224
 11  7 25  0 51 30.0000000  0  8G27G02G17G12G04G10G09G28
 -10578859.09047  -8227350.33245  22469643.8054                   22469642.8204
 -16296670.89848 -12680863.77046  21275182.8754                   21275178.4534
  -7195297.29748  -5577156.29746  21819612.9224                   21819609.9844
  -6915780.30147  -5374922.09844  23595736.0944                   23595733.5164
 -20178394.83648 -15624560.33646  19943190.3134                   19943187.1884
 -12193799.45747  -9486617.25845  22197092.2584                   22197090.5634
  -8860349.06247  -6899384.75045  22062238.8914                   22062237.2974
   1097060.14147    968856.56644  22720091.6254                   22720088.8134
 11  7 25  0 52  0.0000000  0  8G27G02G17G12G04G10G09G28
 -10522529.72947  -8183457.34845  22480362.4384                   22480361.3134
 -16320997.12548 -12699819.22346  21270553.7584                   21270548.9614
  -7126994.87947  -5523933.65246  21832610.9924                   21832607.2384
  -6981221.10547  -5425914.93744  23583282.8594                   23583280.4804
 -20121602.63348 -15580306.66046  19953997.1954                   19953994.4304
 -12244977.09047  -9526495.86745  22187353.5314                   22187351.1094
  -8808749.29748  -6859177.17245  22072058.1334                   22072055.8094
   1205883.80547   1053654.18844  22740799.9144                   22740796.6454
 11  7 25  0 52 30.0000000  0  8G27G02G17G12G04G10G09G28
 -10465688.66847  -8139165.64545  22491179.6954                   22491178.2464
 -16344876.55148 -12718426.53546  21266009.9384                   21266005.2274
  -7058516.66048  -5470574.00446  21845641.5084                   21845638.6764
  -7046497.06247  -5476779.32444  23570861.2974                   23570858.9654
 -20064237.43748 -15535606.50846  19964913.7274                   19964911.0354
 -12295773.85547  -9566077.71545  22177687.0004                   22177685.5514
  -8756470.26247  -6818440.29745  22082006.7894                   22082004.5944
   1315121.12947   1138774.13744  22761587.2584                   22761584.7344
 11  7 25  0 53  0.0000000  0  8G27G02G17G12G04G10G09G28
 -10408329.73047  -8094470.39145  22502094.7424                   22502092.8874
 -16368301.08248 -12736679.37146  21261552.5234                   21261547.4224
  -6989854.24248  -5417070.83246  21858707.6644                   21858704.3834
  -7111598.44946  -5527507.65644  23558473.1564                   23558471.0354
 -20006292.87948 -15490454.90246  19975940.0864                   19975937.3054
 -12346178.54747  -9605354.04745  22168095.0704                   22168093.0984
  -8703505.66847  -6777169.21945  22092085.3284                   22092083.5824
   1424779.44147   1224222.12544  22782453.9694                   22782452.1844
 11  7 25  0 53 30.0000000  0  8G27G02G17G12G04G10G09G28
 -10350466.08247  -8049381.84845  22513105.7194                   22513104.8204
 -16391281.84048 -12754586.41846  21257178.8594                   21257174.1884
  -6921019.35248  -5363433.27346  21871806.4224                   21871803.4694
  -7176534.22346  -5578106.94144  23546115.3444                   23546114.1334
 -19947782.66448 -15444862.53146  19987074.4614                   19987071.2154
 -12396199.39847  -9644331.29745  22158577.0004                   22158574.9494
  -8649868.64847  -6735374.18045  22102292.1254                   22102290.2974
   1534845.50047   1309987.84044  22803399.3594                   22803397.5634
 11  7 25  0 54  0.0000000  0  8G27G02G17G12G04G10G09G28
 -10292094.10947  -8003897.19545  22524213.3284                   22524211.8404
 -16413812.77348 -12772142.94946  21252891.5004                   21252887.2544
  -6852006.09447  -5309656.71546  21884939.4304                   21884935.9654
  -7241297.14147  -5628571.53544  23533791.9844                   23533789.7544
 -19888703.21548 -15398826.59846  19998316.8594                   19998313.8444
 -12445827.79347  -9683002.70345  22149131.6954                   22149130.6174
  -8595555.81247  -6693052.53945  22112627.3204                   22112625.8674
   1645323.54747   1396074.61344  22824422.4144                   22824419.7734
 11  7 25  0 54 30.0000000  0  8G27G02G17G12G04G10G09G28
 -10233225.02047  -7958025.17645  22535415.8134                   22535414.6764
 -16435903.12148 -12789356.15246  21248687.9144                   21248683.4774
  -6782824.08247  -5255748.67646  21898104.3134                   21898100.7734
  -7305894.36347  -5678907.04744  23521499.5164                   23521497.6454
 -19829065.91048 -15352355.97346  20009665.2734                   20009662.4654
 -12495069.95747  -9721373.16845  22139762.0234                   22139760.0314
  -8540578.47747  -6650213.10945  22123089.1644                   22123087.4344
   1756203.16047   1482474.23444  22845521.8834                   22845520.0434
 11  7 25  0 55  0.0000000  0  8G27G02G17G12G04G10G09G28
 -10173852.96147  -7911761.24045  22546713.7734                   22546712.5744
 -16457545.06548 -12806219.95846  21244569.2034                   21244564.6884
  -6713465.65347  -5201703.15446  21911302.4844                   21911299.5824
  -7370316.10047  -5729105.83844  23509241.2034                   23509237.8204
 -19768865.01848 -15305446.18746  20021121.3984                   20021118.6994
 -12543915.00947  -9759434.19045  22130467.3134                   22130465.4774
  -8484930.91747  -6606851.43945  22133678.7274                   22133676.7664
   1867490.72347   1569191.78144  22866699.5864                   22866696.7304
 11  7 25  0 55 30.0000000  0  8G27G02G17G12G04G10G09G28
 -10113975.48847  -7865103.46545  22558108.3754                   22558107.4694
 -16478734.11348 -12822730.85546  21240537.4774                   21240532.7424
  -6643926.06047  -5147516.46546  21924535.7194                   21924532.5124
  -7434556.49547  -5779163.32844  23497015.7974                   23497013.6914
 -19708098.50448 -15258095.66446  20032684.4844                   20032681.5704
 -12592355.83247  -9797180.22345  22121248.9304                   22121247.1054
  -8428610.76247  -6562965.66045  22144396.1954                   22144394.5744
   1979189.03947   1656229.41244  22887954.7344                   22887952.7974
 11  7 25  0 56  0.0000000  0  8G27G02G17G12G04G10G09G28
 -10053604.28147  -7818060.97345  22569596.5634                   22569595.8674
 -16499479.44148 -12838895.99246  21236589.4614                   21236584.9804
  -6574215.06647  -5093196.22745  21937801.3674                   21937798.4224
  -7498622.89147  -5829085.20744  23484824.4924                   23484822.1024
 -19646777.77048 -15210313.28546  20044353.5784                   20044350.9844
 -12640398.81647  -9834616.28945  22112106.6724                   22112104.7424
  -8371629.45747  -6518564.69145  22155239.6024                   22155237.9024
   2091287.10247   1743578.52344  22909286.6414                   22909283.8674
 11  7 25  0 56 30.0000000  0  8G27G02G17G12G04G10G09G28
  -9992738.95747  -7770633.45345  22581179.1094                   22581177.9964
 -16519778.90648 -12854713.71546  21232726.8284                   21232722.0004
  -6504330.48848  -5038740.73045  21951099.6174                   21951096.7664
  -7562510.87147  -5878868.07044  23472666.6954                   23472664.2814
 -19584902.71948 -15162098.96146  20056128.0634                   20056125.5084
 -12688038.55147  -9871738.10945  22103041.0784                   22103039.4454
  -8313986.82047  -6473648.40245  22166208.4454                   22166206.4104
   2203785.81647   1831239.79344  22930694.7734                   22930693.1334
 11  7 25  0 57  0.0000000  0  8G27G02G17G12G04G10G09G28
  -9931388.31647  -7722827.77045  22592853.4614                   22592852.0394
 -16539639.40248 -12870189.37546  21228947.1644                   21228942.4844
  -6434279.18048  -4984155.30946  21964430.0394                   21964427.1174
  -7626225.71147  -5928515.96144  23460542.3134                   23460540.2154
 -19522482.78948 -15113460.06646  20068006.3134                   20068003.2664
 -12735278.93447  -9908548.73045  22094051.6334                   22094049.8204
  -8255692.14147  -6428224.02345  22177301.5864                   22177299.8014
   2316676.56647   1919206.57444  22952176.6804                   22952174.6054
 11  7 25  0 57 30.0000000  0  8G27G02G17G12G04G10G09G28
  -9869542.56647  -7674636.28945  22604622.5164                   22604621.2934
 -16559048.84448 -12885313.58246  21225253.7344                   21225248.9414
  -6364049.32447  -4929430.77046  21977794.3984                   21977791.3714
  -7689753.67247  -5978018.22344  23448453.8134                   23448451.7934
 -19459508.07048 -15064388.85946  20079989.9614                   20079987.1954
 -12782105.26247  -9945036.74645  22085141.2894                   22085138.8204
  -8196735.82047  -6382284.08245  22188520.8444                   22188519.1764
   2429969.98047   2007487.14144  22973736.0864                   22973733.8874
 11  7 25  0 58  0.0000000  0  8G27G02G17G12G04G10G09G28
  -9807205.81647  -7626062.20745  22616484.3754                   22616483.5664
 -16578009.14548 -12900087.79746  21221645.6724                   21221641.2584
  -6293642.86348  -4874568.61745  21991192.6254                   21991189.4734
  -7753094.60947  -6027374.76244  23436400.4924                   23436398.1254
 -19395982.80548 -15014888.65646  20092078.5704                   20092075.7464
 -12828516.57447  -9981201.35545  22076309.0314                   22076307.0274
  -8137122.03547  -6335831.82845  22199864.8754                   22199863.0664
   2543662.19947   2096078.41044  22995371.0864                   22995369.2504
 11  7 25  0 58 30.0000000  0  8G27G02G17G12G04G10G09G28
  -9744395.99247  -7577119.51644  22628437.3834                   22628435.5664
 -16596536.35548 -12914524.53146  21218120.2504                   21218115.1054
  -6223075.91847  -4819581.40645  22004620.5314                   22004617.6884
  -7816262.18447  -6076596.21144  23424380.0314                   23424377.2234
 -19331925.23848 -14964973.66846  20104268.0164                   20104264.8554
 -12874525.75047 -10017052.61345  22067553.4694                   22067551.8714
  -8076868.81647  -6288881.32845  22211330.8914                   22211328.8014
   2657736.12147   2184967.15644  23017078.0394                   23017075.4494
 11  7 25  0 59  0.0000000  0  8G27G02G17G12G04G10G09G28
  -9681106.69147  -7527803.19544  22640480.6254                   22640478.8164
 -16614621.88548 -12928617.11546  21214678.6414                   21214673.6564
  -6152339.60547  -4764462.22745  22018081.8674                   22018078.3554
  -7879245.91047  -6125674.39544  23412394.4844                   23412392.3284
 -19267328.89148 -14914638.85546  20116560.5314                   20116557.4534
 -12920121.66047 -10052581.86345  22058877.2504                   22058874.8524
  -8015969.82047  -6241427.60545  22222920.2344                   22222917.5864
   2772198.52347   2274158.56644  23038860.1334                   23038857.5784
 11  7 25  0 59 30.0000000  0  8G27G02G17G12G04G10G09G28
  -9617335.67947  -7478111.50445  22652616.0944                   22652614.2074
 -16632261.38348 -12942362.14146  21211321.5944                   21211317.0904
  -6081430.01147  -4709208.01945  22031575.1564                   22031572.2154
  -7942040.06247  -6174604.80144  23400443.9614                   23400442.3134
 -19202191.65448 -14863882.57546  20128955.5554                   20128952.9534
 -12965296.56347 -10087783.03645  22050280.2664                   22050278.7304
  -7954423.11747  -6193469.17545  22234631.3444                   22234629.8404
   2887052.34447   2363655.02744  23060716.7424                   23060713.9574
 11  7 25  1  0  0.0000000  0  8G27G02G17G12G04G10G09G28
  -9553085.85247  -7428046.74944  22664842.8364                   22664840.7424
 -16649455.35948 -12955760.01246  21208049.8674                   21208045.1484
  -6010347.46147  -4653819.05145  22045101.4774                   22045098.8014
  -8004642.82947  -6223386.12044  23388532.0084                   23388529.5554
 -19136516.51248 -14812707.14546  20141453.1094                   20141450.3444
 -13010048.08647 -10122654.29345  22041764.3054                   22041762.2854
  -7892231.72747  -6145008.40445  22246466.1254                   22246464.3484
   3002295.37147   2453454.72144  23082646.0314                   23082643.6684
 11  7 25  1  0 30.0000000  0  8G27G02G17G12G04G10G09G28
  -9488359.48447  -7377610.63744  22677158.3754                   22677157.2234
 -16666204.07048 -12968810.91446  21204862.6564                   21204857.7194
  -5939092.35947  -4598295.61745  22058660.8914                   22058657.9964
  -8067052.44147  -6272016.89544  23376655.1174                   23376653.2384
 -19070306.16748 -14761114.66846  20154052.2814                   20154049.4494
 -13054373.89347 -10157193.82445  22033329.2344                   22033327.9304
  -7829398.28347  -6096047.31945  22258422.9614                   22258421.1644
   3117925.62147   2543556.12944  23104649.9614                   23104647.5784
 11  7 25  1  1  0.0000000  0  8G27G02G17G12G04G10G09G28
  -9423157.75547  -7326804.14844  22689566.6414                   22689564.9024
 -16682506.71548 -12981514.23646  21201760.2974                   21201755.3054
  -5867663.75547  -4542636.99645  22072253.2734                   22072250.6994
  -8129266.43747  -6320495.19945  23364816.8524                   23364815.2074
 -19003561.89148 -14709106.13746  20166753.6254                   20166750.8834
 -13098269.77747 -10191398.37145  22024976.5784                   22024974.4454
  -7765923.90347  -6046586.79645  22270502.4224                   22270499.6524
   3233942.71547   2633959.00844  23126727.2504                   23126724.9844
 11  7 25  1  1 30.0000000  0  9G27G02G17G05G12G04G10G09G28
  -9357482.84447  -7275628.92645  22702064.0554                   22702062.2304
 -16698363.42248 -12993870.09046  21198743.0394                   21198738.0314
  -5796061.65247  -4486843.18445  22085879.0944                   22085876.2344
  -3292755.68056  -2550665.63753  24706805.7504                   24706808.1214
  -8191282.59047  -6368819.37545  23353015.7424                   23353013.2974
 -18936285.85548 -14656683.24646  20179555.4844                   20179553.2584
 -13141733.02347 -10225265.78945  22016705.2974                   22016703.2934
  -7701811.26647  -5996628.89845  22282701.4614                   22282700.4264
   3350344.81647   2724661.87544  23148878.1804                   23148875.2664
 11  7 25  1  2  0.0000000  0  9G27G02G17G05G12G04G10G09G28
  -9291349.19547  -7224096.23844  22714649.7504                   22714646.8364
 -16713786.12148 -13005887.73846  21195808.2504                   21195803.0274
  -5724298.14847  -4430923.59045  22099534.6414                   22099532.0824
  -3366182.94146  -2607881.46143  24692833.0084                   24692835.6024
  -8253111.05947  -6416997.30544  23341249.8524                   23341247.7544
 -18868492.46548 -14603857.22346  20192456.4384                   20192453.9654
 -13184772.86347 -10258803.26245  22008515.1954                   22008513.4534
  -7637074.83247  -5946184.94945  22295020.6334                   22295018.4144
   3467118.25447   2815654.13344  23171099.4454                   23171096.8284
 11  7 25  1  2 30.0000000  0  9G27G02G17G05G12G04G10G09G28
  -9224754.58647  -7172204.37945  22727321.9064                   22727320.2544
 -16728770.70348 -13017563.99246  21192956.3204                   21192951.6844
  -5652368.78947  -4374874.74645  22113223.0784                   22113219.7274
  -3439622.91846  -2665107.14544  24678857.9614                   24678859.9844
  -8314745.34447  -6465023.91444  23329520.5784                   23329518.3164
 -18800179.96148 -14550626.69546  20205455.9774                   20205452.9614
 -13227382.41047 -10292005.45745  22000407.3204                   22000405.2464
  -7571712.62547  -5895253.38745  22307459.0864                   22307457.2664
   3584265.61747   2906937.73043  23193390.9614                   23193389.3794
 11  7 25  1  3  0.0000000  0  9G27G02G17G05G12G04G10G09G28
  -9157705.85647  -7119958.64844  22740080.5864                   22740079.4694
 -16743322.02048 -13028902.64146  21190187.3674                   21190182.5664
  -5580278.18047  -4318700.26645  22126941.3754                   22126938.4494
  -3513077.94946  -2722344.59543  24664879.8364                   24664881.2154
  -8376188.31747  -6512901.46144  23317828.0164                   23317825.7774
 -18731355.30548 -14496997.09446  20218552.5314                   20218550.3874
 -13269562.92647 -10324873.34445  21992380.2344                   21992378.0514
  -7505731.70347  -5843839.71145  22320015.1094                   22320012.5864
   3701780.70347   2998507.88344  23215754.5554                   23215751.5664
 11  7 25  1  3 30.0000000  0  9G27G02G17G05G12G04G10G09G28
  -9090188.51647  -7067347.76245  22752928.1484                   22752927.6054
 -16757423.32048 -13039890.63746  21187504.0474                   21187499.0864
  -5508009.46547  -4262387.00845  22140694.0554                   22140690.4964
  -3586528.77346  -2779578.68743  24650901.8284                   24650903.4804
  -8437420.99247  -6560615.14544  23306176.6804                   23306173.6414
 -18662003.75848 -14442956.93446  20231750.0864                   20231746.9694
 -13311294.81247 -10357391.65645  21984439.2424                   21984437.1524
  -7439117.73447  -5791932.73845  22332691.5394                   22332689.2074
   3819678.52047   3090376.25044  23238189.0234                   23238186.9384
 11  7 25  1  4  0.0000000  0  9G27G02G17G05G12G04G10G09G28
  -9022219.04747  -7014384.56644  22765863.6484                   22765861.8324
 -16771088.95348 -13050539.14546  21184903.1414                   21184898.5554
  -5435577.28947  -4205946.35945  22154476.6954                   22154474.0394
  -3659987.29746  -2836818.77043  24636923.4144                   24636924.2624
  -8498455.43747  -6608174.41044  23294562.0864                   23294558.9384
 -18592142.17248 -14388519.32846  20245043.8674                   20245041.1054
 -13352589.58647 -10389569.34045  21976580.7894                   21976578.7664
  -7371887.87947  -5739545.86345  22345484.4064                   22345481.9844
   3937943.21547   3182530.51643  23260694.3204                   23260691.9804
 11  7 25  1  4 30.0000000  0  9G27G02G17G05G12G04G10G09G28
  -8953793.70747  -6961066.16445  22778884.1804                   22778882.9454
 -16784312.83248 -13060843.43046  21182387.0234                   21182382.2114
  -5362974.97347  -4149373.11745  22168292.5164                   22168289.8524
  -3733445.58246  -2894058.70743  24622944.1564                   24622944.1054
  -8559283.58247  -6655572.86745  23282987.0234                   23282984.0164
 -18521766.78148 -14333681.36346  20258435.7504                   20258433.2194
 -13393438.42247 -10421399.56645  21968806.9534                   21968805.3444
  -7304038.40247  -5686676.14845  22358395.4924                   22358393.6374
   4056579.53147   3274974.34044  23283270.3284                   23283268.5044
 11  7 25  1  5  0.0000000  0  9G27G02G17G05G12G04G10G09G28
  -8884904.61747  -6907386.39145  22791993.3364                   22791992.1374
 -16797085.23848 -13070795.92646  21179956.5704                   21179952.0664
  -5290192.71547  -4092659.68445  22182142.5944                   22182139.7194
  -3806890.52046  -2951288.30143  24608967.7344                   24608968.5784
  -8619893.25847  -6702801.12145  23271452.8204                   23271450.6024
 -18450869.90248 -14278437.04346  20271927.0234                   20271924.4344
 -13433828.14547 -10452872.02345  21961121.4774                   21961119.5274
  -7235561.58247  -5633317.61745  22371426.2734                   22371424.5984
   4175595.35547   3367713.87144  23305918.4614                   23305916.3444
 11  7 25  1  5 30.0000000  0  9G27G02G17G05G12G04G10G09G28
  -8815557.37547  -6853349.60244  22805189.4774                   22805187.8954
 -16809409.31248 -13080399.06646  21177611.2274                   21177606.4024
  -5217233.73447  -4035808.53545  22196026.4534                   22196023.1094
  -3880323.68746  -3008508.65243  24594994.2894                   24594994.3914
  -8680285.82047  -6749860.18445  23259960.2664                   23259958.1414
 -18379457.28548 -14222790.85246  20285516.6564                   20285514.0474
 -13473758.98447 -10483986.91445  21953522.6564                   21953520.9964
  -7166463.38347  -5579474.89145  22384575.3914                   22384574.0514
   4294985.79347   3460745.40244  23328636.8754                   23328634.6804
 11  7 25  1  6  0.0000000  0  9G27G02G17G05G12G04G10G09G28
  -8745755.63347  -6798958.68044  22818472.8364                   22818470.4804
 -16821286.75848 -13089654.19546  21175351.1724                   21175346.5084
  -5144099.32047  -3978820.67245  22209943.2584                   22209940.1254
  -3953744.17246  -3065719.14543  24581022.0394                   24581023.2424
  -8740460.77347  -6796749.67244  23248510.1644                   23248507.2584
 -18307532.32448 -14166745.42646  20299203.5084                   20299200.3594
 -13513229.67247 -10514743.23445  21946011.8594                   21946009.7774
  -7096747.81647  -5525151.10245  22397842.7894                   22397840.2974
   4414747.94947   3554066.51644  23351426.8594                   23351425.3134
 11  7 25  1  6 30.0000000  0  9G27G02G17G05G12G04G10G09G28
  -8675502.48047  -6744215.97344  22831841.3524                   22831839.9104
 -16832718.50048 -13098562.01646  21173175.6954                   21173170.7544
  -5070789.94147  -3921696.46945  22223893.5864                   22223890.8484
  -4027150.10246  -3122918.32843  24567053.1724                   24567054.8324
  -8800416.70347  -6843468.55145  23237100.2734                   23237097.5314
 -18235098.49248 -14110303.47746  20312987.4694                   20312984.5594
 -13552238.06647 -10545139.35545  21938589.0554                   21938587.0474
  -7026418.18047  -5470348.81245  22411225.4694                   22411223.4144
   4534879.13347   3647675.19544  23374288.6254                   23374285.8794
 11  7 25  1  7  0.0000000  0  9G27G02G17G05G12G04G10G09G28
  -8604795.43047  -6689119.59844  22845296.5554                   22845294.9304
 -16843699.92648 -13107118.94546  21171085.9144                   21171081.2584
  -4997300.82447  -3864432.20745  22237877.9144                   22237875.3954
  -4100533.98846  -3180100.28943  24553089.1024                   24553090.1054
  -8860146.59847  -6890011.31245  23225734.4224                   23225730.9344
 -18162153.24248 -14053463.02046  20326868.5394                   20326865.6604
 -13590776.68047 -10575169.38745  21931255.3204                   21931253.2814
  -6955472.21947  -5415066.27045  22424725.7734                   22424723.7584
   4655382.51647   3741573.92244  23397218.8834                   23397216.7814
 11  7 25  1  7 30.0000000  0  9G27G02G17G05G12G04G10G09G28
  -8533643.20347  -6633676.32444  22858835.9924                   22858834.2194
 -16854237.50848 -13115330.02346  21169080.7814                   21169075.9574
  -4923638.29747  -3807032.82845  22251895.7424                   22251892.4104
  -4173900.01246  -3237268.37543  24539127.2194                   24539129.0434
  -8919654.67247  -6936381.21945  23214410.4614                   23214407.3754
 -18088705.54348 -13996231.05146  20340844.9304                   20340842.3164
 -13628848.89147 -10604836.00045  21924010.0164                   21924007.5634
  -6883919.16447  -5359310.65645  22438342.2424                   22438340.5084
   4776250.00047   3835756.34844  23420219.0004                   23420216.8484
 11  7 25  1  8  0.0000000  0  9G27G02G17G05G12G04G10G09G28
  -8462039.11747  -6577880.94945  22872462.1564                   22872460.1994
 -16864322.60548 -13123188.52046  21167161.4844                   21167156.9024
  -4849793.35247  -3749491.31645  22265947.9064                   22265945.3364
  -4247237.48446  -3294414.21144  24525171.6724                   24525174.0044
  -8978929.77047  -6982569.57045  23203130.6024                   23203127.7704
 -18014748.66048 -13938602.32046  20354918.7034                   20354915.8954
 -13666443.17647 -10634130.20345  21916856.1484                   21916854.1804
  -6811752.58247  -5303076.98045  22452074.4774                   22452073.0124
   4897488.91047   3930228.18844  23443289.5704                   23443289.0084
 11  7 25  1  8 30.0000000  0  9G27G02G17G05G12G04G10G09G28
  -8389994.32447  -6521742.14544  22886170.8054                   22886170.0474
 -16873964.12948 -13130701.37546  21165326.7584                   21165322.1054
  -4775774.64147  -3691814.39845  22280033.2814                   22280030.2114
  -4320552.34446  -3351542.46544  24511221.0864                   24511223.0824
  -9037978.81247  -7028581.76645  23191893.6334                   23191891.2734
 -17940293.78148 -13880585.53946  20369087.1334                   20369084.1214
 -13703565.68747 -10663056.78945  21909792.3834                   21909789.7384
  -6738983.89147  -5246374.12145  22465921.4304                   22465920.7704
   5019088.66047   4024981.19944  23466429.8754                   23466428.3984
 11  7 25  1  9  0.0000000  0  9G27G02G17G05G12G04G10G09G28
  -8317502.84747  -6465255.29944  22899965.9064                   22899964.9494
 -16883154.08048 -13137862.36146  21163578.1414                   21163573.0354
  -4701573.58847  -3633995.40745  22294153.1954                   22294150.2424
  -4393833.72346  -3408644.64044  24497275.3524                   24497276.5234
  -9096791.41547  -7074409.70845  23180701.7424                   23180699.6134
 -17865335.17148 -13822176.23346  20383350.8754                   20383348.1764
 -13740204.77547 -10691606.66945  21902819.4304                   21902817.6884
  -6665607.38547  -5189197.65445  22479885.0784                   22479883.2934
   5141055.79746   4120020.49844  23489639.5234                   23489637.2544
 11  7 25  1  9 30.0000000  0  9G27G02G17G05G12G04G10G09G28
  -9819989.18647  -7636023.90144  22614052.4224                   22614051.2704
 -18467317.19048 -14372275.15546  20862121.9924                   20862117.1724
  -6202612.25647  -4803635.92945  22008515.0634                   22008512.0274
  -6042506.32446  -4693324.40643  24183544.1484                   24183544.1134
 -10730791.47247  -8347656.46745  22869762.5634                   22869759.3874
 -19365297.04348 -14990977.70146  20097917.6254                   20097914.8284
 -15351783.15447 -11947381.99945  21596146.4384                   21596143.9614
  -8167048.02847  -6359151.42245  22194170.4224                   22194168.9774
   3687968.26746   2987744.46443  23213125.5634                   23213123.8594
 11  7 25  1 10  0.0000000  0  9G27G02G17G05G12G04G10G09G28
  -9746617.15247  -7578850.89544  22628014.8754                   22628013.4414
 -18475609.72748 -14378736.84846  20860543.4774                   20860538.5744
  -6128051.91847  -4745536.96545  22022702.8594                   22022700.4694
  -6115719.18446  -4750373.23243  24169610.8524                   24169612.2424
 -10789129.74647  -8393114.84845  22858660.5944                   22858657.8714
 -19289343.43748 -14931793.07446  20112371.1564                   20112368.0824
 -15387452.75047 -11975176.43745  21589358.9454                   21589356.6254
  -8092469.98047  -6301038.66445  22208361.9304                   22208360.7154
   3810659.09047   3083347.66043  23236473.3284                   23236470.9494
 11  7 25  1 10 30.0000000  0  9G27G02G17G05G12G04G10G09G28
  -9672795.89147  -7521327.85944  22642062.2974                   22642061.3014
 -18483441.40248 -14384839.43446  20859053.3914                   20859048.4144
  -6053299.16447  -4687288.09045  22036928.6954                   22036925.5084
  -6188881.49246  -4807382.66443  24155688.2584                   24155689.7114
 -10847214.79747  -8438375.89845  22847607.3204                   22847604.7584
 -19212883.39148 -14872213.82446  20126921.1724                   20126918.6524
 -15422620.78947 -12002580.03945  21582666.5234                   21582664.3834
  -8017282.41447  -6242450.97344  22222670.4774                   22222667.8714
   3933721.81646   3179240.70343  23259891.4224                   23259889.5634
 11  7 25  1 11  0.0000000  0  9G27G02G17G05G12G04G10G09G28
  -9598527.84847  -7463456.66444  22656195.3054                   22656194.2424
 -18490812.42648 -14390583.06246  20857650.7424                   20857645.6374
  -5978353.92247  -4628889.20745  22051189.9454                   22051187.4184
  -6261990.59046  -4864350.58243  24141775.0554                   24141776.3834
 -10905044.71947  -8483438.13745  22836603.1644                   22836600.3834
 -19135919.53148 -14812241.99246  20141566.4064                   20141564.3594
 -15457284.52347 -12029590.69145  21576070.1024                   21576068.0044
  -7941488.22347  -6183390.56645  22237093.1174                   22237091.5394
   4057154.72347   3275422.15243  23283380.2034                   23283377.5394
 11  7 25  1 11 30.0000000  0  9G27G02G17G05G12G04G10G09G28
  -9523833.16847  -7405253.04344  22670409.3444                   22670408.3284
 -18497740.95348 -14395981.89546  20856331.9064                   20856327.3914
  -5903233.59847  -4570353.91845  22065484.8134                   22065481.9734
  -6335062.22746  -4921289.28143  24127870.6724                   24127870.8554
 -10962635.30947  -8528313.86745  22825643.8834                   22825640.9184
 -19058471.67648 -14751893.02046  20156304.5394                   20156302.0704
 -15491458.79747 -12056219.95745  21569566.7584                   21569564.7664
  -7865108.00047  -6123873.52045  22251628.3524                   22251625.6884
   4180938.07447   3371876.68743  23306935.0634                   23306933.1484
 11  7 25  1 12  0.0000000  0  9G27G02G17G05G12G04G10G09G28
  -9448709.39847  -7346715.04744  22684704.3984                   22684703.3244
 -18504222.48448 -14401032.41846  20855098.5474                   20855093.4184
  -5827933.41847  -4511678.46945  22079814.2114                   22079810.7894
  -6408089.36747  -4978193.34444  24113974.3594                   24113973.1214
 -11019979.29747  -8572997.43445  22814731.0864                   22814728.6724
 -18980537.85948 -14691165.38746  20171134.9844                   20171132.1564
 -15525136.56247 -12082462.31245  21563158.3364                   21563156.2664
  -7788139.87547  -6063898.38345  22266274.5474                   22266272.6454
   4305074.77347   3468606.58643  23330557.4224                   23330555.0164
 11  7 25  1 12 30.0000000  0  9G27G02G17G05G12G04G10G09G28
  -9373143.37547  -7287832.45744  22699084.9064                   22699083.2074
 -18510241.47748 -14405722.52746  20853953.5634                   20853948.7854
  -5752437.63747  -4452850.61745  22094180.6024                   22094177.5664
  -6481052.84846  -5035047.81644  24100090.1564                   24100089.0314
 -11077059.20747  -8617475.23445  22803869.3914                   22803867.0164
 -18902104.81248 -14630048.73046  20186060.2274                   20186057.4654
 -15558298.80947 -12108302.98445  21556847.4844                   21556845.9384
  -7710570.94947  -6003455.05945  22281036.0784                   22281034.2274
   4429578.87546   3565622.78143  23354249.9144                   23354247.8324
 11  7 25  1 13  0.0000000  0  9G27G02G17G05G12G04G10G09G28
  -9297149.69947  -7228616.62545  22713545.9144                   22713544.2774
 -18515810.51248 -14410062.01246  20852893.8594                   20852889.0084
  -5676758.16447  -4393879.61745  22108582.1174                   22108578.7344
  -6553963.26646  -5091860.98444  24086215.8284                   24086215.2274
 -11133884.78147  -8661754.85545  22793056.1724                   22793053.3054
 -18823187.21548 -14568554.51246  20201078.0554                   20201074.9804
 -15590955.53547 -12133749.73845  21550633.3204                   21550631.3634
  -7632416.37947  -5942555.39545  22295907.8204                   22295905.4654
   4554436.24247   3662914.21143  23378009.7504                   23378006.9614
 11  7 25  1 13 30.0000000  0  9G27G02G17G05G12G04G10G09G28
  -9220739.67647  -7169076.37944  22728086.2194                   22728085.2274
 -18520938.87148 -14414058.11746  20851917.8204                   20851912.8984
  -5600903.65647  -4334772.23845  22123015.9614                   22123013.4534
  -6626827.13746  -5148637.85244  24072349.3284                   24072350.4884
 -11190462.40647  -8705841.27045  22782289.6174                   22782286.7814
 -18743796.22748 -14506691.41446  20216185.0314                   20216182.4654
 -15623112.71547 -12158807.22745  21544513.6024                   21544511.6294
  -7553687.45747  -5881208.18745  22310889.2894                   22310887.9694
   4679635.95747   3760472.37144  23401834.8674                   23401832.0704
 11  7 25  1 14  0.0000000  0  9G27G02G17G05G12G04G10G09G28
  -9143898.07047  -7109199.82044  22742708.2974                   22742707.1374
 -18525608.97748 -14417697.14546  20851029.3284                   20851024.4264
  -5524856.13747  -4275514.46545  22137487.9304                   22137484.9344
  -6699623.98446  -5205362.45343  24058496.5314                   24058497.4344
 -11246772.51247  -8749719.23445  22771574.1804                   22771571.0784
 -18663916.51648 -14444447.48846  20231386.0864                   20231383.3364
 -15654749.68447 -12183459.36345  21538493.7734                   21538491.8444
  -7474369.42647  -5819401.92245  22325982.9614                   22325981.5004
   4805194.08646   3858309.89843  23425727.3134                   23425724.7704
 11  7 25  1 14 30.0000000  0  9G27G02G17G05G12G04G10G09G28
  -9066636.40247  -7048995.96944  22757411.1094                   22757409.3914
 -18529830.39148 -14420986.52746  20850225.5944                   20850220.5554
  -5448624.69147  -4216113.35945  22151994.1024                   22151991.2704
  -6772360.23046  -5262039.87944  24044655.1484                   24044656.7584
 -11302822.00047  -8793394.10545  22760907.8594                   22760904.8164
 -18583559.92648 -14381831.97746  20246677.5234                   20246674.7304
 -15685873.22747 -12207711.40645  21532570.8054                   21532568.6844
  -7394474.48047  -5757146.10245  22341186.0394                   22341184.2934
   4931099.86346   3956418.29343  23449686.2974                   23449684.2814
 11  7 25  1 15  0.0000000  0  9G27G02G17G05G12G04G10G09G28
  -8988959.85547  -6988468.81245  22772192.2734                   22772191.4614
 -18533605.91448 -14423928.48446  20849507.3204                   20849502.5124
  -5372211.63747  -4156570.75045  22166534.8914                   22166532.2074
  -6845035.98846  -5318670.14844  24030824.6024                   24030827.8284
 -11358611.00047  -8836866.00445  22750291.5864                   22750289.2114
 -18502731.33648 -14318848.66846  20262058.4844                   20262056.1024
 -15716483.16047 -12231563.25445  21526745.9304                   21526744.0864
  -7314007.87947  -5694444.87545  22356499.2814                   22356497.1524
   5057348.84046   4054794.07443  23473710.6644                   23473708.9024
 11  7 25  1 15 30.0000000  0  9G27G02G17G05G12G04G10G09G28
  -8910870.68447  -6927620.14844  22787052.2114                   22787051.2034
 -18536935.45348 -14426522.90246  20848873.5314                   20848869.1054
  -5295616.64147  -4096886.35945  22181110.9534                   22181107.5594
  -6917648.47346  -5375251.12144  24017006.3284                   24017009.8094
 -11414137.19547  -8880133.10545  22739725.6954                   22739722.6254
 -18421432.91848 -14255499.25046  20277529.1564                   20277526.2234
 -15746576.36347 -12255012.45345  21521019.6414                   21521017.2734
  -7232972.53547  -5631300.44545  22371919.7194                   22371918.5704
   5183939.09846   4153435.80143  23497799.4614                   23497798.3984
 11  7 25  1 16  0.0000000  0  9G27G02G17G05G12G04G10G09G28
  -8832358.21147  -6866441.62544  22801992.7114                   22801992.3674
 -18539806.35248 -14428759.94146  20848327.3524                   20848322.4804
  -5218826.30547  -4037049.75445  22195723.3834                   22195720.1844
  -6990182.00846  -5431770.61744  24003204.5394                   24003205.7974
 -11469384.97747  -8923183.27045  22729212.2974                   22729209.5594
 -18339654.03948 -14191775.45346  20293091.0634                   20293088.6414
 -15776136.91447 -12278046.59445  21515394.0314                   21515391.6174
  -7151358.06647  -5567704.73845  22387450.3284                   22387448.6604
   5310881.97346   4252352.30543  23521956.8754                   23521954.4414
 11  7 25  1 16 30.0000000  0  9G27G02G17G05G12G04G10G09G28
  -8753438.01447  -6804945.43544  22817010.8524                   22817009.9344
 -18542232.24648 -14430650.22746  20847865.5474                   20847861.1174
  -5141853.47748  -3977070.94945  22210370.8284                   22210367.5514
  -7062647.18446  -5488236.81644  23989414.7584                   23989414.9884
 -11524365.44147  -8966025.12945  22718749.4304                   22718747.0984
 -18257410.35948 -14127689.47746  20308741.4454                   20308739.0744
 -15805175.14847 -12300673.71945  21509868.1644                   21509865.9414
  -7069180.70347  -5503670.43745  22403088.0164                   22403086.3874
   5438162.59446   4351532.04243  23546176.6804                   23546175.5434
 11  7 25  1 17  0.0000000  0  9G27G02G17G05G12G04G10G09G28
  -8674119.64547  -6743138.96544  22832104.7664                   22832103.7274
 -18544220.42248 -14432199.42246  20847487.4454                   20847482.2074
  -5064704.91847  -3916955.21545  22225051.8134                   22225048.4884
  -7135048.53547  -5544653.28944  23975637.2504                   23975637.0354
 -11579083.14547  -9008662.27045  22708336.9144                   22708333.7194
 -18174711.46148 -14063248.78146  20324478.7734                   20324476.2704
 -15833695.84847 -12322897.59045  21504440.4694                   21504438.5274
  -6986450.57847  -5439205.37945  22418830.6024                   22418829.4534
   5565771.88746   4450967.87943  23570460.5314                   23570458.9534
 11  7 25  1 17 30.0000000  0  9G27G02G17G05G12G04G10G09G28
  -8594383.69547  -6681007.12944  22847278.3674                   22847277.3164
 -18545749.23048 -14433390.68046  20847196.6254                   20847191.6024
  -4987358.26647  -3856685.10545  22239770.6254                   22239767.6334
  -7207361.13747  -5601000.63344  23961876.6564                   23961875.4774
 -11633513.95347  -9051075.84445  22697979.2504                   22697976.9454
 -18091537.82048 -13998438.15246  20340305.9384                   20340303.6884
 -15861674.02347 -12344698.71945  21499116.8284                   21499114.3524
  -6903148.57847  -5374294.72745  22434682.8524                   22434681.6134
   5693729.95746   4550675.41043  23594810.1484                   23594808.4614
 11  7 25  1 18  0.0000000  0  9G27G02G17G05G12G04G10G09G28
  -8514246.63347  -6618562.69544  22862527.3594                   22862526.3554
 -18546832.81648 -14434235.00046  20846990.4384                   20846985.5744
  -4909827.52348  -3796271.54345  22254523.9694                   22254521.2814
  -7279596.72347  -5657287.93444  23948130.5944                   23948129.5394
 -11687669.39147  -9093274.85945  22687673.8594                   22687671.0274
 -18007905.64148 -13933270.22346  20356220.7114                   20356217.9614
 -15889121.27047 -12366086.12545  21493893.6174                   21493891.1214
  -6819291.30147  -5308951.40645  22450640.4694                   22450638.9064
   5822021.27046   4650642.62543  23619222.5314                   23619220.9304
 11  7 25  1 18 30.0000000  0  9G27G02G17G05G12G04G10G09G28
  -8433715.57847  -6555811.27744  22877852.2734                   22877850.5904
 -18547476.34048 -14434736.41846  20846867.8134                   20846863.2304
  -4832116.64547  -3735717.63345  22269312.2504                   22269308.9494
  -7351757.41847  -5713516.82844  23934399.0554                   23934397.6024
 -11741551.97747  -9135261.25445  22677419.7034                   22677417.5664
 -17923821.89148 -13867750.41446  20372221.6724                   20372218.5634
 -15916039.27047 -12387061.14545  21488771.2424                   21488769.2424
  -6734886.40647  -5243181.36345  22466702.1414                   22466699.9264
   5950638.98046   4750864.21943  23643697.3134                   23643697.0234
 11  7 25  1 19  0.0000000  0  9G27G02G17G05G12G04G10G09G28
  -8352780.57047  -6492745.10944  22893253.5164                   22893252.5554
 -18547667.69948 -14434885.50046  20846831.1884                   20846826.4264
  -4754213.38748  -3675013.80945  22284136.7504                   22284133.4104
  -7423828.05547  -5769675.57444  23920683.8914                   23920682.8794
 -11795146.79347  -9177023.39545  22667221.0394                   22667218.8554
 -17839276.71948 -13801871.05346  20388310.0234                   20388306.7624
 -15942412.88747 -12407611.98045  21483752.4534                   21483749.7734
  -6649924.44147  -5176977.25444  22482869.3984                   22482868.3874
   6079593.97346   4851348.62544  23668237.3914                   23668235.6884
 11  7 25  1 19 30.0000000  0  9G27G02G17G05G12G04G10G09G28
  -8271453.45747  -6429373.39544  22908730.0394                   22908728.5204
 -18547416.68748 -14434689.87946  20846879.1724                   20846874.4924
  -4676126.54848  -3614166.93645  22298995.8754                   22298993.4064
  -7495815.18447  -5825769.31643  23906985.7974                   23906982.5084
 -11848460.93047  -9218566.81245  22657076.1724                   22657073.4104
 -17754282.03148 -13735641.41846  20404483.7974                   20404480.9184
 -15968249.14147 -12427744.07845  21478836.2114                   21478833.8244
  -6564417.66847  -5110348.60945  22499141.1884                   22499139.8594
   6208875.14847   4952087.19943  23692838.9144                   23692837.1024
 11  7 25  1 20  0.0000000  0  9G27G02G17G05G12G04G10G09G28
  -8189732.45347  -6365694.73844  22924280.6884                   22924279.2114
 -18546719.16448 -14434146.32846  20847011.4694                   20847006.9774
  -4597851.69148  -3553173.55145  22313890.8594                   22313888.4614
  -7567711.80147  -5881792.48444  23893303.0864                   23893302.9224
 -11901487.36747  -9259886.11745  22646985.3674                   22646982.8524
 -17668835.74248 -13669059.89146  20420743.5004                   20420740.6054
 -15993540.78547 -12447451.83645  21474023.0634                   21474021.1564
  -6478364.72747  -5043294.36744  22515516.3204                   22515514.9964
   6338484.42647   5053081.40243  23717502.1644                   23717501.7234
 11  7 25  1 20 30.0000000  0  9G27G02G17G05G12G04G10G09G28
  -8107614.11947  -6301706.49544  22939907.4384                   22939906.0204
 -18545569.75048 -14433250.64846  20847230.2584                   20847225.4654
  -4519382.25347  -3492028.55745  22328823.7814                   22328820.9884
  -7639509.20447  -5937738.35044  23879640.2894                   23879641.0514
 -11954217.93047  -9300974.83645  22636951.4304                   22636948.3324
 -17582934.41448 -13602123.79346  20437090.3364                   20437087.5474
 -16018279.45348 -12466728.66045  21469315.6804                   21469313.5554
  -6391762.74647  -4975812.34444  22531995.9924                   22531994.5354
   6468425.96947   5154334.54744  23742229.9694                   23742227.7154
 11  7 25  1 21  0.0000000  0  9G27G02G17G05G12G04G10G09G28
  -8025118.61347  -6237424.34844  22955606.0784                   22955604.5984
 -18543986.72748 -14432017.09846  20847531.5474                   20847526.5594
  -4440735.68447  -3430745.52345  22343789.6724                   22343786.5394
  -7711222.94947  -5993619.07844  23865993.7424                   23865994.8364
 -12006668.33247  -9341845.25845  22626969.8754                   22626966.8834
 -17496598.43748 -13534849.01246  20453519.3364                   20453516.9414
 -16042480.19547 -12485586.34045  21464710.3054                   21464707.7624
  -6304632.67647  -4907918.79344  22548576.3204                   22548574.6804
   6598680.03947   5255831.18043  23767016.0234                   23767014.1524
 11  7 25  1 21 30.0000000  0  9G27G02G17G05G12G04G10G09G28
  -7942232.96946  -6172838.18444  22971378.1094                   22971377.0084
 -18541954.53948 -14430433.54346  20847918.3054                   20847913.4734
  -4361896.46148  -3369312.36745  22358792.0634                   22358788.8754
  -7782834.48446  -6049420.17244  23852365.5474                   23852366.8834
 -12058820.38747  -9382483.20745  22617045.7974                   22617043.0864
 -17409814.64148 -13467225.27146  20470033.7034                   20470031.3484
 -16066124.60948 -12504010.50445  21460211.2034                   21460209.1214
  -6216961.75847  -4839603.82044  22565259.0784                   22565257.7814
   6729260.71946   5357582.32443  23791865.1094                   23791863.1844
 11  7 25  1 22  0.0000000  0  9G27G02G17G05G12G04G10G09G28
  -7858970.52047  -6107958.42244  22987222.1724                   22987221.8554
 -18539484.12148 -14428508.52046  20848388.4694                   20848383.3204
  -4282874.46947  -3307736.78945  22373829.5164                   22373826.4534
  -7854351.61746  -6105147.65244  23838756.8594                   23838757.7704
 -12110682.10547  -9422894.89845  22607177.2034                   22607173.9344
 -17322595.96548 -13399262.66446  20486631.1484                   20486628.0004
 -16089221.04748 -12522007.68445  21455816.0084                   21455813.8014
  -6128763.98447  -4770878.33244  22582043.3594                   22582041.4344
   6860155.35246   5459578.05543  23816773.4614                   23816771.1604
 11  7 25  1 22 30.0000000  0  9G27G02G17G05G12G04G10G09G28
  -7775322.58247  -6042778.25844  23003141.2584                   23003139.2304
 -18536565.07848 -14426233.91046  20848943.7034                   20848938.8164
  -4203658.48847  -3246010.03545  22388903.3524                   22388900.9264
  -7925760.53947  -6160790.81244  23825168.9224                   23825168.8204
 -12162240.37147  -9463070.16445  22597365.3984                   22597362.5514
 -17234933.68048 -13330954.37146  20503312.1334                   20503309.4694
 -16111755.90647 -12539567.26645  21451527.4924                   21451525.1214
  -6040031.15647  -4701735.87944  22598928.8054                   22598926.4494
   6991373.38346   5561825.82843  23841743.1954                   23841741.1844
 11  7 25  1 23  0.0000000  0  9G27G02G17G05G12G04G10G09G28
  -7691301.14847  -5977307.07444  23019129.4694                   23019128.5434
 -18533207.36348 -14423617.48046  20849582.9924                   20849578.0044
  -4124257.54747  -3184139.14845  22404013.3364                   22404010.4454
  -7997068.17647  -6216355.09044  23811599.4774                   23811599.9844
 -12213502.07047  -9503014.32045  22587610.7664                   22587608.0744
 -17146839.78148 -13262309.77346  20520076.0394                   20520073.4264
 -16133735.38347 -12556694.09445  21447345.0784                   21447342.5984
  -5950775.55947  -4632186.10944  22615913.5634                   22615911.2504
   7122902.99646   5664316.35243  23866772.7734                   23866771.0164
 11  7 25  1 23 30.0000000  0  9G27G02G17G05G12G04G10G09G28
  -7606905.46147  -5911544.27344  23035189.1564                   23035188.5004
 -18529407.95748 -14420656.87146  20850305.9144                   20850300.9924
  -4044667.96947  -3122121.29345  22419158.4844                   22419155.4804
  -8068268.27347  -6271835.59044  23798050.9844                   23798049.8984
 -12264461.32047  -9542722.82045  22577913.5474                   22577910.5744
 -17058313.12148 -13193327.95746  20536922.4694                   20536919.5204
 -16155154.12948 -12573383.96945  21443269.2664                   21443266.8014
  -5860996.91447  -4562228.75444  22632998.1564                   22632995.6134
   7254745.62146   5767050.79743  23891861.5634                   23891859.6724
 11  7 25  1 24  0.0000000  0  9G27G02G17G05G12G04G10G09G28
  -7522139.49247  -5845492.93444  23051320.4144                   23051319.0234
 -18525168.42148 -14417353.31746  20851112.6334                   20851107.9454
  -3964890.58747  -3059957.09645  22434340.0944                   22434337.1294
  -8139359.49347  -6327231.16644  23784521.2114                   23784520.7584
 -12315116.98447  -9582194.73245  22568273.9614                   22568271.0204
 -16969357.56648 -13124011.93946  20553849.6024                   20553847.4924
 -16176010.85148 -12589635.91346  21439300.6884                   21439297.8794
  -5770699.37147  -4491867.07644  22650180.8134                   22650178.8244
   7386898.15546   5870026.73143  23917009.2344                   23917008.3524
 11  7 25  1 24 30.0000000  0  9G27G02G17G05G12G04G10G09G28
  -7437009.25947  -5779157.72444  23067519.2814                   23067518.7154
 -18520492.79748 -14413709.94946  20852002.4064                   20851997.6524
  -3884928.63447  -2997649.10245  22449555.8284                   22449553.1294
  -8210342.69047  -6382542.58044  23771013.9924                   23771011.7304
 -12365470.22247  -9621431.00245  22558692.5314                   22558689.8834
 -16879979.16048 -13054366.43346  20570858.1804                   20570855.7114
 -16196306.54748 -12605450.68445  21435437.7894                   21435434.9224
  -5679889.93847  -4421106.51645  22667461.6024                   22667460.0354
   7519355.24246   5973239.96143  23942215.2734                   23942214.3594
 11  7 25  1 25  0.0000000  0  9G27G02G17G05G12G04G10G09G28
  -7351516.84447  -5712540.32444  23083788.1644                   23083787.3284
 -18515380.95748 -14409726.68046  20852974.8674                   20852970.3914
  -3804781.14147  -2935196.53145  22464807.4614                   22464804.6254
  -8281214.53147  -6437767.27744  23757527.3444                   23757526.6724
 -12415518.15247  -9660429.34845  22549168.3444                   22549165.7544
 -16790179.85548 -12984392.94946  20587946.0634                   20587943.6174
 -16216038.44548 -12620826.14845  21431683.0704                   21431680.5234
  -5588571.25847  -4349949.13745  22684838.9064                   22684837.3674
   7652115.48446   6076689.46543  23967478.5314                   23967477.2814
 11  7 25  1 25 30.0000000  0  9G27G02G17G05G12G04G10G09G28
  -7265664.57847  -5645642.51244  23100125.5784                   23100124.2154
 -18509833.25448 -14405403.77746  20854030.9224                   20854026.1374
  -3724447.57847  -2872598.94945  22480094.6954                   22480091.5514
  -8351972.11347  -6492902.91844  23744062.5234                   23744062.3714
 -12465258.26247  -9699187.84445  22539703.2424                   22539700.3524
 -16699961.69148 -12914093.09046  20605114.2114                   20605111.4774
 -16235203.66448 -12635760.03945  21428036.0944                   21428033.8874
  -5496745.99247  -4278397.02345  22702312.4454                   22702311.1484
   7785177.17646   6180373.89543  23992799.7274                   23992798.0664
 11  7 25  1 26  0.0000000  0  9G27G02G17G05G12G04G10G09G28
  -7179460.96147  -5578470.92644  23116529.9064                   23116528.8954
 -18503856.18748 -14400746.30146  20855168.1024                   20855163.1294
  -3643933.78147  -2809860.94945  22495415.8444                   22495413.6294
  -8422618.57447  -6547951.89844  23730618.7194                   23730617.9064
 -12514694.04347  -9737709.21145  22530295.8524                   22530292.5704
 -16609333.16048 -12843473.45346  20622360.3914                   20622357.6884
 -16253805.78948 -12650255.15246  21424496.2664                   21424493.6334
  -5404423.28147  -4206457.29745  22719880.9924                   22719879.2424
   7918532.34446   6284286.91843  24018176.1414                   24018174.3204
 11  7 25  1 26 30.0000000  0  9G27G02G17G05G12G04G10G09G28
  -7092894.42247  -5511016.53544  23133002.3674                   23133001.4844
 -18497436.05948 -14395743.57446  20856389.8364                   20856385.1174
  -3563224.75847  -2746970.81345  22510774.2344                   22510771.8014
  -8493136.96547  -6602901.18744  23717198.7734                   23717196.8204
 -12563808.53547  -9775980.22745  22520949.6174                   22520946.5124
 -16518282.57848 -12772524.94546  20639686.9064                   20639683.5704
 -16271828.11348 -12664298.47345  21421066.3284                   21421064.0164
  -5311592.05147  -4134121.32444  22737545.8364                   22737544.5704
   8052193.12946   6388438.11743  24043611.5394                   24043610.2154
 11  7 25  1 27  0.0000000  0  9G27G02G17G05G12G04G10G09G28
  -7005982.37147  -5443292.92244  23149541.6644                   23149540.3594
 -18490587.84048 -14390407.27746  20857693.0474                   20857688.0164
  -3482335.08647  -2683939.93045  22526167.0314                   22526164.1334
  -8563539.05147  -6657759.87144  23703801.8914                   23703800.6604
 -12612614.03148  -9814010.46145  22511662.7274                   22511659.1724
 -16426826.96548 -12701260.83646  20657089.8284                   20657087.5474
 -16289282.56248 -12677899.29346  21417745.4064                   21417742.4224
  -5218270.37147  -4061403.19145  22755305.5704                   22755303.2974
   8186142.80145   6492814.50442  24069100.4614                   24069100.2304
 11  7 25  1 27 30.0000000  0  9G27G02G17G05G12G04G10G09G28
  -6918722.69147  -5375298.44544  23166146.7974                   23166145.6414
 -18483307.32048 -14384734.12546  20859078.0394                   20859073.5084
  -3401259.57447  -2620764.22345  22541595.3524                   22541592.2814
  -8633817.59047  -6712522.22744  23690428.4614                   23690428.0744
 -12661103.57847  -9851794.49245  22502435.2344                   22502432.6604
 -16334964.06248 -12629679.34446  20674570.9064                   20674568.1454
 -16306162.29348 -12691052.28545  21414533.2114                   21414530.4454
  -5124456.59847  -3988301.58645  22773156.5634                   22773155.5824
   8320384.24646   6597418.27342  24094646.5474                   24094646.5984
 11  7 25  1 28  0.0000000  0  9G27G02G17G05G12G04G10G09G28
  -6831118.25847  -5307035.32444  23182817.7194                   23182816.5984
 -18475595.54748 -14378724.92646  20860545.7974                   20860541.2304
  -3319998.24247  -2557443.71145  22557058.5474                   22557055.7544
  -8703970.11347  -6767186.39144  23677078.7814                   23677077.4344
 -12709274.98447  -9889330.57845  22493268.1954                   22493265.2814
 -16242696.65648 -12557782.66446  20692128.8204                   20692126.1214
 -16322465.23448 -12703755.82445  21411430.5864                   21411427.8794
  -5030154.05147  -3914819.17244  22791102.6484                   22791100.7384
   8454915.11745   6702247.40642  24120247.0634                   24120246.7234
 11  7 25  1 28 30.0000000  0  9G27G02G17G05G12G04G10G09G28
  -6743177.13747  -5238509.82844  23199551.8444                   23199551.1214
 -18467458.36748 -14372384.25046  20862094.1644                   20862089.5594
  -3238556.10947  -2493982.33645  22572556.6254                   22572553.8794
  -8773999.14847  -6821754.39844  23663752.5704                   23663751.2974
 -12757131.09447  -9926621.00045  22484161.4844                   22484158.0474
 -16150032.56248 -12485576.88346  20709762.2114                   20709759.6604
 -16338194.41048 -12716012.28545  21408437.5864                   21408435.1804
  -4935371.63347  -3840962.75444  22809139.0234                   22809137.3984
   8589728.137 6                  24145900.461
 11  7 25  1 29  0.0000000  0  9G27G02G17G05G12G04G10G09G28
  -6654898.20347  -5169721.08244  23216351.4844                   23216350.0864
 -18458892.44548 -14365709.48446  20863724.4694                   20863719.5514
  -3156928.39147  -2430376.34445  22588089.2664                   22588087.0904
  -8843897.98047  -6876220.85544  23650450.9614                   23650451.7154
 -12804665.76247  -9963660.95745  22475116.0394                   22475112.6374
 -16056970.26248 -12413060.80146  20727471.6644                   20727468.6684
 -16353343.35948 -12727816.61346  21405554.7974                   21405552.4924
  -4840108.25847  -3766731.59045  22827266.4304                   22827265.7544
   8724825.051 5                  24171609.695
 11  7 25  1 29 30.0000000  0  9G27G02G17G05G12G04G10G09G28
  -6566285.49647  -5100672.28144  23233213.7194                   23233212.6174
 -18449899.79748 -14358702.20346  20865435.4844                   20865430.7814
  -3075117.10247  -2366627.30545  22603657.7194                   22603655.4924
  -8913665.34047  -6930584.89544  23637175.4304                   23637174.9494
 -12851877.92247 -10000449.61345  22466131.9924                   22466128.8244
 -15963513.80548 -12340237.57446  20745255.5084                   20745252.8914
 -16367911.46948 -12739168.34046  21402782.3524                   21402779.5434
  -4744368.77047  -3692129.44544  22845485.8834                   22845483.8054
   8860202.480 5                  24197370.648
 11  7 25  1 30  0.0000000  0  9G27G02G17G05G12G04G10G09G28
  -6477338.12547  -5031362.68444  23250140.1024                   23250138.9844
 -18440477.43748 -14351360.08246  20867228.6024                   20867223.3324
  -2993117.77047  -2302731.72745  22619262.1334                   22619259.4964
  -8983294.93747  -6984841.62944  23623924.6174                   23623923.5824
 -12898761.34447 -10036982.10245  22457210.0394                   22457206.8914
 -15869662.12548 -12267106.39146  20763114.7344                   20763112.0204
 -16381892.67248 -12750062.74246  21400121.5784                   21400119.1334
  -4648152.91847  -3617156.09044  22863794.9774                   22863793.0944
   8995861.84015                  24223187.875
 11  7 25  1 30 30.0000000  0  9G27G02G17G05G12G04G10G09G28
  -6388060.60247  -4961795.83244  23267129.1954                   23267128.2424
 -18430627.63348 -14343684.88746  20869103.0554                   20869097.9224
  -2910931.56347  -2238690.54345  22634902.0234                   22634898.6564
  -9052785.64147  -7038990.07044  23610700.7814                   23610699.5944
 -12945315.62147 -10073258.10245  22448351.2034                   22448348.2194
 -15775419.26648 -12193670.38746  20781048.4224                   20781045.9064
 -16395286.50448 -12760499.44946  21397573.0234                   21397570.3484
  -4551465.29747  -3541815.12944  22882194.2814                   22882192.0664
                                  24249054.766
 11  7 25  1 31  0.0000000  0  9G27G02G17G05G12G04G10G09G28
  -6298458.04747  -4891975.73444  23284179.2664                   23284179.0004
 -18420353.59048 -14335679.11746  20871058.0784                   20871052.7234
  -2828560.90247  -2174505.62545  22650576.3674                   22650573.5554
  -9122137.21547  -7093030.15644  23597503.4144                   23597503.9734
 -12991540.77047 -10109277.63345  22439554.7274                   22439551.9614
 -15680790.32048 -12119933.53546  20799055.8674                   20799053.3204
 -16408093.30148 -12770478.73846  21395135.9694                   21395133.0084
  -4454312.11747  -3466111.37144  22900682.0864                   22900679.5824
                                  24274974.695
 11  7 25  1 31 30.0000000  0  8G27G02G17G05G12G04G10G09
  -6208531.55147  -4821903.21144  23301291.6954                   23301291.0274
 -18409654.27748 -14327341.96946  20873094.1564                   20873088.9774
  -2746003.92647  -2110175.51645  22666285.9774                   22666283.3754
  -9191345.59847  -7146958.61344  23584333.6094                   23584333.6294
 -13037432.87547 -10145037.67245  22430822.0944                   22430818.6564
 -15585776.37948 -12045896.69546  20817136.7114                   20817133.9224
 -16420309.16448 -12779997.54746  21392811.4614                   21392808.7624
  -4356695.30547  -3390046.38744  22919257.8984                   22919256.0554
 11  7 25  1 32  0.0000000  0  8G27G02G17G05G12G04G10G09
  -6118287.09047  -4751582.89144  23318465.0164                   23318464.1684
 -18398533.36348 -14318676.29746  20875209.8754                   20875205.2274
  -2663263.03147  -2045702.09445  22682031.3364                   22682028.3984
  -9260410.74247  -7200775.47745  23571191.3524                   23571189.8594
 -13082992.47347 -10180538.62545  22422152.0004                   22422148.8404
 -15490382.62548 -11971563.89546  20835288.9924                   20835286.5864
 -16431934.80148 -12789056.44546  21390598.6724                   21390596.4454
  -4258620.96947  -3313624.85944  22937920.5394                   22937919.2974
 11  7 25  1 32 30.0000000  0  8G27G02G17G05G12G04G10G09
  -7603143.06647  -5908613.55144  23035905.9304                   23035904.6454
 -19962410.12548 -15537281.53946  20577614.3364                   20577609.5084
  -4155754.37147  -3208682.35545  22398019.2814                   22398016.9614
 -10904751.08247  -8482079.50844  23258283.0234                   23258282.2624
 -14703637.64547 -11443378.97345  22113753.2734                   22113750.1134
 -16970027.39848 -13124533.84446  20553722.1804                   20553719.6684
 -18018387.38748 -14025253.22746  21088706.9694                   21088703.8594
  -5735508.02747  -4464445.97744  22656878.4774                   22656876.6564
 11  7 25  1 33  0.0000000  0  8G27G02G17G05G12G04G10G09
  -7512271.11747  -5837804.29344  23053198.8364                   23053197.3674
 -19950448.75048 -15527960.96146  20579890.3204                   20579885.4454
  -4072645.44547  -3143922.15245  22413834.8444                   22413831.9654
 -10973522.21147  -8535667.25045  23245196.4924                   23245196.1954
 -14748525.64847 -11478356.60945  22105211.4694                   22105208.2154
 -16873882.43048 -13049615.68446  20572018.1954                   20572015.0704
 -18028827.25848 -14033388.14846  21086720.4224                   21086717.8204
  -5636529.24247  -4387319.70345  22675713.6884                   22675712.0394
 11  7 25  1 33 30.0000000  0  8G27G02G17G05G12G04G10G09
  -7421099.41847  -5766761.44544  23070548.0554                   23070547.4184
 -19938078.25048 -15518321.57446  20582244.5164                   20582239.7734
  -3989362.31647  -3079026.21145  22429682.7664                   22429680.2624
 -11042152.03947  -8589144.85544  23232136.1884                   23232135.8054
 -14793083.73847 -11513077.16445  22096732.2504                   22096729.3874
 -16777375.57848 -12974415.53946  20590382.8444                   20590380.0314
 -18038680.61748 -14041066.04346  21084844.8984                   21084842.6174
  -5537113.02347  -4309852.58644  22694631.4844                   22694630.2734
 11  7 25  1 34  0.0000000  0  8G27G02G17G05G12G04G10G09
  -7329625.80947  -5695483.35744  23087955.6024                   23087954.0904
 -19925293.85748 -15508359.68346  20584676.7504                   20584672.6954
  -3905899.05247  -3013989.89745  22445565.5784                   22445562.9384
 -11110632.66947  -8642506.28745  23219105.5474                   23219103.2704
 -14837304.98147 -11547535.23245  22088316.9304                   22088314.3984
 -16680503.85548 -12898931.08246  20608816.9224                   20608813.6954
 -18047940.30148 -14048281.34046  21083082.9844                   21083080.7664
  -5437257.65447  -4232043.25344  22713633.3834                   22713631.8914
 11  7 25  1 34 30.0000000  0  8G27G02G17G05G12G04G10G09
  -7237844.29347  -5623965.30144  23105420.3204                   23105419.5044
 -19912087.59448 -15498069.05146  20587190.3204                   20587185.4064
  -3822246.61347  -2948806.18745  22461484.2664                   22461481.5864
 -11178952.89547  -8695742.64844  23206103.5164                   23206103.4534
 -14881178.20347 -11581722.12145  22079968.2194                   22079964.9144
 -16583261.67248 -12823157.96146  20627321.5314                   20627318.7624
 -18056595.70748 -14055025.77746  21081436.0234                   21081433.1954
  -5336958.05547  -4153887.76245  22732719.4924                   22732718.6994
 11  7 25  1 35  0.0000000  0  8G27G02G17G05G12G04G10G09
  -7145767.02047  -5552216.79344  23122941.8054                   23122940.5984
 -19898469.74248 -15487457.71546  20589781.6094                   20589776.6484
  -3738414.03147  -2883482.09045  22477436.8674                   22477434.1844
 -11247118.87147  -8748858.82845  23193132.4304                   23193132.0514
 -14924709.81247 -11615642.82845  22071684.4454                   22071681.6214
 -16485660.55548 -12747105.15646  20645894.2424                   20645891.5664
 -18064653.92648 -14061304.85546  21079902.6884                   21079900.2624
  -5236226.75047  -4075395.92244  22751888.6174                   22751887.2504
 11  7 25  1 35 30.0000000  0  8G27G02G17G05G12G04G10G09
  -7053388.54747  -5480233.60944  23140521.0554                   23140519.8364
 -19884432.75448 -15476519.78146  20592452.8594                   20592447.6884
  -3654392.48447  -2818010.75045  22493425.9534                   22493423.6524
 -11315119.77747  -8801846.42644  23180192.2114                   23180190.8324
 -14967889.76247 -11649289.51645  22063467.6334                   22063464.9104
 -16387694.69548 -12670768.14146  20664536.6564                   20664533.8364
 -18072104.71948 -14067110.63746  21078484.8674                   21078482.2154
  -5135058.69147  -3996563.69544  22771140.2584                   22771139.6334
 11  7 25  1 36  0.0000000  0  8G27G02G17G05G12G04G10G09
  -6960726.77047  -5408029.66044  23158153.8284                   23158153.0434
 -19869992.50048 -15465267.59846  20595200.7194                   20595195.5864
  -3570197.16447  -2752403.98045  22509447.4224                   22509444.8484
 -11382968.22347  -8854715.18744  23167280.7734                   23167279.2304
 -15010730.37948 -11682671.78146  22055315.6174                   22055312.7624
 -16289381.59848 -12594160.54746  20683245.0314                   20683242.0474
 -18078961.43448 -14072453.50046  21077180.0474                   21077177.1884
  -5033472.64147  -3917405.80144  22790471.7584                   22790470.1134
 11  7 25  1 36 30.0000000  0  8G27G02G17G05G12G04G10G09
  -6867763.66047  -5335590.91844  23175843.9694                   23175843.4024
 -19855128.69148 -15453685.37546  20598028.7734                   20598024.1174
  -3485806.68747  -2686645.14545  22525506.4064                   22525503.6804
 -11450640.30947  -8907446.53944  23154402.7734                   23154402.1764
 -15053208.55148 -11715771.61345  22047231.7194                   22047228.9654
 -16190703.14548 -12517268.27046  20702022.9144                   20702020.3984
 -18085201.13748 -14077315.55946  21075992.2584                   21075989.7504
  -4931451.28547  -3837908.67644  22809885.5164                   22809884.0084
 11  7 25  1 37  0.0000000  0  8G27G02G17G05G12G04G10G09
  -6774519.36347  -5262933.07044  23193588.5084                   23193587.6454
 -19839859.55348 -15441787.32646  20600934.9844                   20600929.8364
  -3401237.88747  -2620747.37545  22541599.1644                   22541596.8874
 -11518150.32447  -8960051.63345  23141557.1484                   23141553.9804
 -15095339.07848 -11748600.56545  22039215.0634                   22039212.0204
 -16091678.94448 -12440106.57046  20720866.7974                   20720863.6914
 -18090839.25648 -14081708.86346  21074919.6644                   21074916.7704
  -4829014.96947  -3758088.23444  22829378.7894                   22829376.9774
 11  7 25  1 37 30.0000000  0  8G27G02G17G05G12G04G10G09
  -6680986.56246  -5190050.43044  23211387.4224                   23211386.5274
 -19824176.03148 -15429566.36746  20603919.1414                   20603914.2304
  -3316480.36347  -2554702.55545  22557728.2974                   22557725.5354
 -11585485.86347  -9012520.73444  23128742.4454                   23128741.1054
 -15137109.51648 -11781148.91845  22031266.1564                   22031263.1254
 -15992301.71148 -12362669.78146  20739777.6644                   20739774.8134
 -18095863.71148 -14085623.98846  21073964.0164                   21073960.7344
  -4726157.26246  -3677939.40244  22848950.5164                   22848949.3794
 11  7 25  1 38  0.0000000  0  8G27G02G17G05G12G04G10G09
  -6587163.97747  -5116941.98444  23229241.4064                   23229240.2774
 -19808074.22348 -15417019.48046  20606983.2974                   20606978.2154
  -3231529.84447  -2488507.35945  22573894.2424                   22573890.8794
 -11652639.94947  -9064848.48845  23115964.0474                   23115962.5274
 -15178513.43448 -11813411.68445  22023387.2814                   22023384.2154
 -15892569.48048 -12284956.38346  20758755.7974                   20758753.1024
 -18100268.08648 -14089055.91846  21073125.3984                   21073122.6174
  -4622877.35247  -3597461.59844  22868605.3284                   22868603.7734
 11  7 25  1 38 30.0000000  0  8G27G02G17G05G12G04G10G09
  -6493068.06647  -5043620.56644  23247147.1254                   23247146.2344
 -19791568.75848 -15404158.04746  20610124.0004                   20610119.0124
  -3146399.46547  -2422172.00845  22590093.3674                   22590090.6524
 -11719623.16447  -9117043.02744  23103216.5314                   23103216.0784
 -15219561.88747 -11845397.43746  22015576.0864                   22015572.6334
 -15792498.43748 -12206978.96146  20777798.6254                   20777795.9654
 -18104064.15248 -14092013.84846  21072402.6414                   21072400.1334
  -4519192.35947  -3516668.12944  22888335.4924                   22888335.0044
 11  7 25  1 39  0.0000000  0  8G27G02G17G05G12G04G10G09
  -6398694.90247  -4970083.06244  23265104.9384                   23265104.8594
 -19774653.72348 -15390977.47746  20613342.7114                   20613337.7504
  -3061081.86747  -2355690.76245  22606329.1174                   22606326.1454
 -11786426.01647  -9169097.10545  23090504.7974                   23090503.3914
 -15260245.54747 -11877098.93445  22007833.7194                   22007830.8404
 -15692084.38348 -12128734.25446  20796906.9144                   20796904.0434
 -18107243.25448 -14094491.03946  21071797.9064                   21071795.2934
  -4415099.08647  -3435556.53544  22908144.3984                   22908142.9924
 11  7 25  1 39 30.0000000  0  8G27G02G17G05G12G04G10G09
  -6304047.62547  -4896332.02744  23283116.7274                   23283115.3284
 -19757330.71948 -15377479.01246  20616639.2894                   20616634.4694
  -2975577.39147  -2289063.92645  22622600.1414                   22622596.8954
 -11853045.95347  -9221008.61744  23077827.2584                   23077825.6844
 -15300562.66047 -11908514.82445  22000161.7344                   22000158.5664
 -15591330.27748 -12050224.56246  20816080.0164                   20816077.1844
 -18109804.30148 -14096486.62146  21071310.5474                   21071307.3874
  -4310601.51647  -3354129.88344  22928030.0394                   22928028.0274
 11  7 25  1 40  0.0000000  0  8G27G02G17G05G12G04G10G09
  -6209132.11346  -4822371.94944  23301178.2344                   23301177.7234
 -19739602.75448 -15363664.98446  20620012.9064                   20620008.0554
  -2889888.49647  -2222293.34845  22638905.5554                   22638903.7194
 -11919483.33647  -9272777.90245  23065185.0704                   23065183.7114
 -15340513.74648 -11939645.50445  21992559.7194                   21992556.4024
 -15490241.42248 -11971454.03946  20835316.5554                   20835313.8054
 -18111748.14848 -14098001.27346  21070940.5164                   21070937.7344
  -4205705.86747  -3272393.09444  22947990.8674                   22947989.6174
 11  7 25  1 40 30.0000000  0  8G27G02G17G05G12G04G10G09
  -6113956.20347  -4748208.97344  23319289.3984                   23319289.2934
 -19721475.93048 -15349540.17246  20623462.3754                   20623457.4184
  -2804019.76647  -2155382.66845  22655246.3834                   22655243.5594
 -11985740.29347  -9324406.57445  23052576.2894                   23052574.7424
 -15380101.27347 -11970492.89545  21985026.0784                   21985022.7544
 -15388825.17248 -11892428.38746  20854615.3364                   20854612.6684
 -18113077.92648 -14099037.44546  21070687.5554                   21070684.7154
  -4100420.80947  -3190352.80944  22968025.8054                   22968024.7774
 11  7 25  1 41  0.0000000  0  8G27G02G17G05G12G04G10G09
  -6018522.50047  -4673845.15244  23337450.4844                   23337449.5634
 -19702950.82848 -15335105.01246  20626987.0004                   20626982.0204
  -2717970.81647  -2088331.56245  22671620.6334                   22671618.1454
 -12051813.42647  -9375892.00845  23040002.9924                   23040001.6214
 -15419322.46147 -12001054.80146  21977562.7344                   21977560.0044
 -15287083.89548 -11813149.47746  20873976.1644                   20873973.5204
 -18113791.63748 -14099593.54746  21070551.5554                   21070548.6764
  -3994749.30547  -3108011.39844  22988134.3364                   22988133.4184
 11  7 25  1 41 30.0000000  0  8G27G02G17G05G12G04G10G09
  -5922830.54347  -4599280.05944  23355659.7034                   23355659.2274
 -19684024.82448 -15320357.45746  20630589.1884                   20630583.7894
  -2631737.80147  -2021137.03145  22688030.7034                   22688028.0864
 -12117697.18747  -9427229.90244  23027464.8914                   23027463.5824
 -15458171.75448 -12031326.93046  21970169.8524                   21970167.1094
 -15185016.68748 -11733616.59846  20893398.8364                   20893396.1844
 -18113884.53548 -14099665.90646  21070534.1954                   21070531.0984
  -3888691.67247  -3025369.13745  23008316.8204                   23008315.7274
 11  7 25  1 42  0.0000000  0  8G27G02G17G05G12G04G10G09
  -5826882.18046  -4524515.18444  23373917.8134                   23373917.5664
 -19664698.32448 -15305297.82846  20634266.8914                   20634261.7194
  -2545319.34047  -1953798.00045  22704475.3984                   22704472.5984
 -12183387.67247  -9478417.16045  23014965.2814                   23014964.0634
 -15496645.82448 -12061306.67645  21962848.2194                   21962845.2464
 -15082625.37148 -11653831.15246  20912883.2274                   20912880.4344
 -18113353.49648 -14099252.07046  21070634.8524                   21070632.3674
  -3782250.29747  -2942427.82844  23028571.8134                   23028570.5594
 11  7 25  1 42 30.0000000  0  8G27G02G17G05G12G04G10G09
  -5730684.34047  -4449555.92244  23392224.5474                   23392224.0474
 -19644975.98848 -15289929.75846  20638019.6724                   20638014.6804
  -2458719.25447  -1886317.44545  22720954.9614                   22720952.0474
 -12248885.88747  -9529454.59045  23002500.8834                   23002499.6954
 -15534746.40647 -12090995.40245  21955597.7894                   21955594.7274
 -14979916.06248 -11573797.93446  20932427.9384                   20932425.6524
 -18112201.14148 -14098354.10246  21070853.9144                   21070851.5824
  -3675432.85547  -2859193.47744  23048898.3524                   23048896.7894
 11  7 25  1 43  0.0000000  0  8G27G02G17G05G12G04G10G09
  -5634242.53947  -4374406.54744  23410576.5084                   23410576.2504
 -19624861.51248 -15274256.12146  20641847.0164                   20641842.3134
  -2371939.77747  -1818697.10245  22737468.6564                   22737465.7424
 -12314191.83647  -9580342.21945  22990073.6884                   22990071.8284
 -15572473.64147 -12120393.21145  21948418.6954                   21948415.8444
 -14876893.88748 -11493520.91446  20952032.6564                   20952029.8634
 -18110428.04348 -14096972.42646  21071191.6644                   21071189.1644
  -3568245.27347  -2775670.71544  23069294.8364                   23069293.8524
 11  7 25  1 43 30.0000000  0  8G27G02G17G05G12G04G10G09
  -5537557.58247  -4299067.70744  23428975.3914                   23428975.1764
 -19604353.08248 -15258275.49646  20645749.9224                   20645744.6054
  -2284978.31647  -1750934.94545  22754017.0784                   22754014.3984
 -12379300.44147  -9631076.08645  22977682.9924                   22977682.5274
 -15609823.05148 -12149496.59045  21941311.6414                   21941308.4534
 -14773559.32048 -11413000.48446  20971696.6644                   20971693.8324
 -18108030.56248 -14095104.23446  21071647.9384                   21071645.0274
  -3460688.90247  -2691860.60244  23089763.1804                   23089760.7974
 11  7 25  1 44  0.0000000  0  8G27G02G17G05G12G04G10G09
  -5440634.06246  -4223542.95244  23447418.9224                   23447418.2734
 -19583453.77048 -15241990.30546  20649727.0864                   20649721.6214
  -2197836.44947  -1683032.20345  22770599.7584                   22770596.5474
 -12444211.11947  -9681655.71945  22965331.6884                   22965329.6254
 -15646794.05547 -12178305.12946  21934276.1804                   21934273.0514
 -14669916.93048 -11332240.18446  20991419.2194                   20991416.5084
 -18105009.09848 -14092749.80546  21072222.8444                   21072220.4924
  -3352769.48847  -2607767.57844  23110298.7734                   23110297.8794
 11  7 25  1 44 30.0000000  0  8G27G02G17G05G12G04G10G09
  -5343475.61346  -4147835.14544  23465908.2114                   23465908.1254
 -19562165.27048 -15225401.84846  20653778.1564                   20653772.8594
  -2110514.52747  -1614989.16045  22787216.2894                   22787213.4844
 -12508921.43047  -9732079.21945  22953017.0864                   22953016.0514
 -15683384.78147 -12206817.33246  21927312.9224                   21927310.1884
 -14565969.44948 -11251242.16046  21011199.7664                   21011196.8954
 -18101362.57448 -14089908.32046  21072916.6094                   21072914.0434
  -3244490.85946  -2523394.68744  23130903.9224                   23130902.6914
 11  7 25  1 45  0.0000000  0  8G27G02G17G05G12G04G10G09
  -5246083.09446  -4071944.94144  23484440.4454                   23484440.1844
 -19540486.09448 -15208508.96146  20657903.4384                   20657898.0944
  -2023009.87547  -1546803.70345  22803867.6174                   22803865.0354
 -12573426.40047  -9782342.70245  22940742.4144                   22940740.4844
 -15719591.21548 -12235030.10546  21920423.2194                   21920419.9494
 -14461717.33248 -11170006.75646  21031038.1254                   21031035.7154
 -18097087.35548 -14086576.92646  21073730.1884                   21073727.6054
  -3135854.48846  -2438743.00044  23151575.9384                   23151574.5084
 11  7 25  1 45 30.0000000  0  8G27G02G17G05G12G04G10G09
  -5148473.43447  -3995885.53144  23503016.1724                   23503015.2974
 -19518431.50448 -15191323.55546  20662100.2034                   20662094.9614
  -1935336.21547  -1478486.57045  22820551.4614                   22820548.8164
 -12637737.37947  -9832455.05145  22928504.6094                   22928501.8954
 -15755424.41847 -12262952.04746  21913604.1334                   21913600.8754
 -14357177.15648 -11088546.88346  21050931.7504                   21050928.9884
 -18092195.80148 -14082765.28146  21074661.1254                   21074657.4924
  -3026877.97746  -2353826.29344  23172313.6024                   23172312.1644
 11  7 25  1 46  0.0000000  0  8G27G02G17G05G12G04G10G09
  -5050633.26246  -3919646.46144  23521633.4844                   23521633.4144
 -19495985.90648 -15173833.45746  20666371.5004                   20666366.2934
  -1847477.00447  -1410024.85245  22837270.3444                   22837268.0204
 -12701835.02747  -9882401.17645  22916306.8674                   22916304.9694
 -15790865.84048 -12290568.69946  21906859.9614                   21906856.3404
 -14252334.88748 -11006851.60946  21070882.5164                   21070879.7704
 -18086670.14548 -14078459.52046  21075712.3364                   21075709.7114
  -2917548.61347  -2268634.64144  23193119.3914                   23193117.8284
 11  7 25  1 46 30.0000000  0  8G27G02G17G05G12G04G10G09
  -4952575.09846  -3843237.55944  23540292.6254                   23540293.5434
 -19473159.95348 -15156046.98446  20670715.1414                   20670709.9144
  -1759441.43047  -1341425.71545  22854022.5084                   22854020.0864
 -12765726.30947  -9932186.48845  22904148.9924                   22904146.5274
 -15825922.88347 -12317885.84446  21900188.5944                   21900185.6524
 -14147202.77748 -10924930.49246  21090888.2814                   21090885.8754
 -18080518.46948 -14073665.95746  21076883.0864                   21076880.3404
  -2807879.77347  -2183178.45744  23213988.0784                   23213986.6764
 11  7 25  1 47  0.0000000  0  8G27G02G17G05G12G04G10G09
  -4854290.56646  -3766652.26243  23558996.6334                   23558996.5744
 -19449943.53548 -15137956.26646  20675133.1174                   20675127.8244
  -1671218.09447  -1272680.26245  22870811.4224                   22870808.6604
 -12829397.34447  -9981800.17645  22892032.4454                   22892029.8874
 -15860582.17247 -12344893.03546  21893593.3134                   21893590.3094
 -14041772.05548 -10842776.68046  21110951.3444                   21110948.5904
 -18073728.03148 -14068374.66846  21078175.1174                   21078172.3204
  -2697863.76247  -2097451.77044  23234923.8284                   23234922.9734
 11  7 25  1 47 30.0000000  0  8G27G02G17G05G12G04G10G09
  -4755793.47346  -3689901.35943  23577740.4224                   23577739.2704
 -19426348.44148 -15119570.46546  20679623.0864                   20679617.4884
  -1582817.04747  -1203796.32845  22887633.4614                   22887630.4534
 -12892856.12947 -10031248.46145  22879956.7034                   22879954.4384
 -15894852.06248 -12371596.80946  21887071.9144                   21887068.4614
 -13936056.01248 -10760400.54746  21131068.5314                   21131066.0554
 -18066308.34048 -14062593.04746  21079586.6094                   21079584.3094
  -2587515.02747  -2011465.77044  23255923.3204                   23255921.1764
 11  7 25  1 48  0.0000000  0  8G27G02G17G05G12G04G10G09
  -4657090.08646  -3612989.68444  23596522.7584                   23596523.1804
 -19402378.91048 -15100892.89846  20684184.2894                   20684179.1524
  -1494242.09447  -1134776.87545  22904488.8364                   22904486.0944
 -12956103.41047 -10080531.94945  22867921.2504                   22867919.0474
 -15928733.80547 -12397998.13746  21880624.3444                   21880621.1994
 -13830060.51248 -10677806.64846  21151238.5394                   21151235.7344
 -18058261.40648 -14056322.65646  21081118.2814                   21081115.1054
  -2476840.50847  -1925225.93744  23276982.9924                   23276982.2814
 11  7 25  1 48 30.0000000  0  8G27G02G17G05G12G04G10G09
  -4558179.00747  -3535916.11444  23615345.1094                   23615345.3404
 -19378031.68048 -15081921.02046  20688817.5164                   20688812.0784
  -1405488.46147  -1065618.19145  22921378.3204                   22921374.8914
 -13019131.78947 -10129644.86345  22855926.7424                   22855924.8834
 -15962220.02348 -12424091.25046  21874252.2584                   21874249.2704
 -13723783.69148 -10594993.52346  21171462.2504                   21171459.8874
 -18049581.62948 -14049559.14846  21082769.9844                   21082767.3594
  -2365839.08247  -1838731.40244  23298105.4384                   23298105.4304
 11  7 25  1 49  0.0000000  0  8G27G02G17G05G12G04G10G09
  -4459061.00046  -3458681.35244  23634207.0864                   23634206.6884
 -19353305.54748 -15062653.89546  20693522.4144                   20693517.2624
  -1316553.27347   -996318.04745  22938301.9614                   22938299.2504
 -13081936.24247 -10178583.29745  22843975.8444                   22843973.8524
 -15995306.56648 -12449872.94146  21867956.0084                   21867952.6524
 -13617225.75048 -10511961.34446  21191739.4844                   21191736.9104
 -18040265.45348 -14042299.75046  21084542.7034                   21084539.5784
  -2254512.27047  -1751983.31644  23319290.5394                   23319290.0784
 11  7 25  1 49 30.0000000  0  8G27G02G17G05G12G04G10G09
  -4359731.27046  -3381281.56643  23653107.9924                   23653108.4924
 -19328193.85248 -15043086.31646  20698301.2114                   20698295.7734
  -1227428.53147   -926870.20345  22955261.9144                   22955258.6564
 -13144506.54347 -10227339.26245  22832069.3284                   22832066.4024
 -16027983.81248 -12475335.69146  21861737.5004                   21861734.5084
 -13510381.42248 -10428706.02046  21212071.1724                   21212068.7584
 -18030303.60248 -14034537.21946  21086438.2274                   21086435.2154
  -2142856.22347  -1664978.69144  23340538.2814                   23340537.8134
 11  7 25  1 50  0.0000000  0  8G27G02G17G05G12G04G10G09
  -4260204.53546  -3303728.30944  23672047.6954                   23672047.7034
 -19302709.47748 -15023228.35246  20703150.7664                   20703145.4964
  -1138125.84047   -857283.69945  22972255.0944                   22972253.1564
 -13206851.40647 -10275919.55145  22820204.9774                   22820203.2704
 -16060260.74648 -12500486.50846  21855595.8674                   21855592.0554
 -13403264.93748 -10345238.61746  21232455.0474                   21232452.5354
 -18019706.68048 -14026279.83646  21088454.6174                   21088451.8874
  -2030886.28547  -1577729.43444  23361845.1954                   23361844.5904
 11  7 25  1 50 30.0000000  0  8G27G02G17G05G12G04G10G09
  -4160476.62546  -3226018.26644  23691025.6334                   23691024.5474
 -19276845.90648 -15003074.90246  20708072.4694                   20708067.0664
  -1048637.61347   -787552.62545  22989284.4384                   22989281.7234
 -13268960.69547 -10324316.27745  22808385.6024                   22808383.9884
 -16092128.03548 -12525318.10946  21849531.3754                   21849528.2384
 -13295871.38348 -10261555.31246  21252891.0314                   21252888.7544
 -18008465.93448 -14017520.77746  21090593.9384                   21090591.4694
  -1918598.66846  -1490232.69544  23383213.2424                   23383212.9144
 11  7 25  1 51  0.0000000  0  8G27G02G17G05G12G04G10G09
  -4060565.02046  -3148165.12543  23710038.6724                   23710037.9184
 -19250618.77748 -14982638.17246  20713063.5084                   20713057.9964
   -958977.88347   -717687.90644  23006345.8364                   23006343.4344
 -13330846.54347 -10372538.92245  22796609.4224                   22796607.7734
 -16123597.77748 -12549839.95746  21843542.7584                   21843539.3754
 -13188217.99248 -10177669.53546  21273377.4384                   21273374.6214
 -17996594.53148 -14008270.30946  21092852.9454                   21092850.0434
  -1806011.57447  -1402502.57044  23404637.3754                   23404637.1174
 11  7 25  1 51 30.0000000  0  8G27G02G17G05G12G04G10G09
  -3960456.77046  -3070158.71944  23729087.8674                   23729087.7194
 -19224013.43448 -14961906.73046  20718125.7974                   20718120.7934
   -869130.55147   -647677.01244  23023444.0234                   23023440.9414
 -13392490.35247 -10420572.94145  22784879.0084                   22784876.5474
 -16154651.80948 -12574037.85946  21837633.6174                   21837630.6644
 -13080291.13748 -10093570.68746  21293914.9694                   21293912.0944
 -17984075.65648 -13998515.30946  21095235.2274                   21095232.0314
  -1693112.98847  -1314529.69144  23426121.7194                   23426120.9024
 11  7 25  1 52  0.0000000  0  9G27G02G17G05G12G04G10G09G25
  -3860171.90246  -2992014.68744  23748171.6254                   23748171.2304
 -19197047.92248 -14940894.63346  20723257.4614                   20723251.9534
   -779112.24647   -577532.89145  23040573.7424                   23040570.9804
 -13453905.95747 -10468429.16045  22773191.6724                   22773189.8204
 -16185304.69147 -12597923.17246  21831800.1484                   21831796.8524
 -12972110.28148 -10009273.90246  21314500.8674                   21314498.2384
 -17970925.27748 -13988268.24246  21097737.5704                   21097735.0634
  -1579923.14847  -1226329.85944  23447660.8444                   23447660.5044
  -6395420.68056  -4970362.00453  24769973.8834                   24769975.3244
 11  7 25  1 52 30.0000000  0  9G27G02G17G05G12G04G10G09G25
  -3759707.07447  -2913730.46544  23767289.6174                   23767288.5984
 -19169717.25848 -14919598.00046  20728458.2894                   20728453.2274
   -688916.74247   -507250.66445  23057736.8914                   23057734.3404
 -13515084.71947 -10516100.84445  22761549.5474                   22761547.6764
 -16215548.27348 -12621489.56246  21826045.5314                   21826042.3244
 -12863671.75048  -9924776.35246  21335135.8284                   21335133.6054
 -17957136.25048 -13977523.51646  21100361.1644                   21100358.3524
  -1466439.92647  -1137901.40644  23469256.4614                   23469255.3754
  -6460481.21946  -5021058.39843  24757592.8204                   24757594.7504
 11  7 25  1 53  0.0000000  0  9G27G02G17G05G12G04G10G09G25
  -3659073.07046  -2835314.42644  23786439.1414                   23786438.9494
 -19142029.92248 -14898023.43746  20733726.9924                   20733721.7624
   -598551.28947   -436836.03145  23074933.1254                   23074930.5044
 -13576031.51647 -10563591.73445  22749952.1724                   22749950.2424
 -16245388.10948 -12644741.32446  21820367.1254                   21820363.4454
 -12754985.59848  -9840085.84846  21355818.1804                   21355815.5434
 -17942714.96948 -13966286.11746  21103105.9064                   21103102.7974
  -1352674.30947  -1049252.91044  23490905.0944                   23490904.3484
  -6525404.32446  -5071647.68743  24745238.6724                   24745239.4454
 11  7 25  1 53 30.0000000  0  9G27G02G17G05G12G04G10G09G25
  -5133693.50046  -3984369.37544  23505828.3674                   23505829.1414
 -20689410.55148 -16103774.56246  20439270.0554                   20439265.0234
  -2083436.59447  -1593889.53545  22792368.9144                   22792366.3754
 -15212169.39847 -11838504.26245  22438604.9304                   22438603.3674
 -17850246.53548 -13895280.31246  21514972.5784                   21514968.6804
 -14221474.77048 -10982804.68746  21076754.7424                   21076752.0634
 -19503083.60548 -15182157.75446  20806177.6884                   20806174.6914
  -2814050.07447  -2187987.28144  23212814.6484                   23212814.3874
  -8165613.84046  -6349732.88343  24433116.5474                   24433118.4494
 11  7 25  1 54  0.0000000  0  9G27G02G17G05G12G04G10G09G25
  -5032721.36746  -3905689.85544  23525042.4924                   23525043.5004
 -20661004.93448 -16081640.29746  20444675.7974                   20444670.7384
  -1992721.38747  -1523202.37145  22809631.4224                   22809629.1214
 -15272635.05147 -11885620.27045  22427099.2034                   22427096.8714
 -17879262.70748 -13917890.27746  21509450.6564                   21509447.1484
 -14112292.09848 -10897727.29346  21097531.5704                   21097529.4654
 -19487385.40648 -15169925.35946  20809164.9454                   20809161.7304
  -2699721.85547  -2098900.35944  23234570.6094                   23234570.4614
  -8230246.51246  -6400095.85943  24420818.5164                   24420818.2344
 11  7 25  1 54 30.0000000  0  9G27G02G17G05G12G04G10G09G25
  -4931592.44546  -3826888.17644  23544287.3364                   23544287.7034
 -20632249.31648 -16059233.30146  20450147.9384                   20450142.4964
  -1901838.74647  -1452384.73445  22826925.8914                   22826923.0204
 -15332863.77747 -11932551.66845  22415637.3054                   22415635.6174
 -17907871.71548 -13940182.97346  21504006.6024                   21504003.1414
 -14002872.37548 -10812465.18046  21118353.5084                   21118350.9844
 -19471055.16848 -15157200.45346  20812272.3914                   20812268.9344
  -2585125.64147  -2009604.65644  23256377.3364                   23256376.7074
  -8294738.33246  -6450349.09843  24408544.6174                   24408545.5594
 11  7 25  1 55  0.0000000  0  9G27G02G17G05G12G04G10G09G25
  -4830295.81646  -3747955.84444  23563563.7194                   23563563.7854
 -20603130.94148 -16036543.64546  20455688.7344                   20455683.1954
  -1810774.30547  -1381425.44145  22844255.1804                   22844251.8594
 -15392838.75047 -11979285.32445  22404224.2344                   22404222.4494
 -17936057.09847 -13962145.55946  21498643.1884                   21498639.6844
 -13893204.16048 -10727009.43046  21139222.8524                   21139220.4454
 -19454077.88348 -15143971.37146  20815503.1724                   20815500.0474
  -2470250.92647  -1920091.91044  23278237.2424                   23278237.0824
  -8359073.09046  -6500479.97743  24396302.4224                   24396302.3524
 11  7 25  1 55 30.0000000  0  9G27G02G17G05G12G04G10G09G25
  -4728835.73446  -3668896.11743  23582870.2584                   23582870.5044
 -20573652.59848 -16013573.47746  20461298.1024                   20461292.7704
  -1719529.60947  -1310325.66445  22861617.7034                   22861615.4574
 -15452558.78547 -12025820.33245  22392859.6724                   22392857.6454
 -17963818.11748 -13983777.47746  21493360.1254                   21493356.7624
 -13783291.41848 -10641363.15646  21160138.3134                   21160136.0204
 -19436453.92648 -15130238.38746  20818856.3284                   20818853.4884
  -2355102.84047  -1830366.17244  23300149.2034                   23300149.2194
  -8423250.00446  -6550487.79343  24384089.9064                   24384090.4184
 11  7 25  1 56  0.0000000  0  9G27G02G17G05G12G04G10G09G25
  -4627209.27346  -3589706.74244  23602209.5554                   23602209.8094
 -20543809.34448 -15990318.96146  20466977.0864                   20466971.7974
  -1628097.87547  -1239080.14145  22879016.7894                   22879014.1374
 -15512015.17247 -12072149.89845  22381545.9534                   22381543.2774
 -17991146.45347 -14005072.25046  21488159.6334                   21488155.9924
 -13673130.53148 -10555523.52046  21181101.1564                   21181098.4534
 -19418176.46948 -15115996.17246  20822334.4224                   20822331.8674
  -2239679.26246  -1740425.73044  23322113.4694                   23322113.6524
  -8487260.79746  -6600366.20743  24371908.9614                   24371909.3404
 11  7 25  1 56 30.0000000  0  9G27G02G17G05G12G04G10G09G25
  -4525435.56646  -3510402.66844  23621576.6094                   23621576.6724
 -20513618.34048 -15966793.47346  20472722.1804                   20472717.1684
  -1536495.30947  -1167701.50045  22896448.3524                   22896445.6454
 -15571221.38747 -12118284.50845  22370279.2894                   22370276.7974
 -18018055.92248 -14026040.64146  21483038.9304                   21483035.5704
 -13562739.95748 -10469504.92245  21202108.1414                   21202105.3364
 -19399260.67248 -15101256.55546  20825934.3674                   20825931.1884
  -2124000.12147  -1650286.18044  23344126.2344                   23344126.9224
  -8551119.47746  -6650126.15242  24359756.5864                   24359757.2194
 11  7 25  1 57  0.0000000  0  9G27G02G17G05G12G04G10G09G25
  -4423511.42646  -3430981.35544  23640972.2344                   23640972.4574
 -20483074.93048 -15942993.39146  20478534.6254                   20478529.1764
  -1444715.40247  -1096184.68045  22913913.7114                   22913911.1954
 -15630168.43747 -12164217.20745  22359062.4774                   22359060.1484
 -18044538.68448 -14046676.51246  21477999.4774                   21477996.3014
 -13452116.25448 -10383304.65246  21223159.1094                   21223155.9494
 -19379699.95748 -15086014.40246  20829656.2814                   20829653.6604
  -2008062.81646  -1559945.40244  23366188.5704                   23366188.3014
  -8614817.53146  -6699760.92243  24347636.0704                   24347635.8284
 11  7 25  1 57 30.0000000  0  9G27G02G17G05G12G04G10G09G25
  -4321440.71946  -3351445.81643  23660395.4304                   23660395.6564
 -20452181.10548 -15918920.23846  20484413.2344                   20484408.5514
  -1352758.78547  -1024530.15245  22931411.5634                   22931410.0434
 -15688854.63347 -12209946.64545  22347894.5474                   22347892.0514
 -18070593.38347 -14066978.84846  21473041.3054                   21473037.7034
 -13341262.37548 -10296925.03146  21244253.7344                   21244251.2544
 -19359493.80948 -15070269.31246  20833501.6094                   20833498.7034
  -1891871.89547  -1469407.00443  23388299.8914                   23388297.8524
  -8678353.60247  -6749269.59443  24335545.4924                   24335545.3444
 11  7 25  1 58  0.0000000  0  9G27G02G17G05G12G04G10G09G25
  -4219223.23846  -3271795.90243  23679847.2664                   23679846.4574
 -20420934.36348 -15894572.09446  20490359.3914                   20490354.0594
  -1260621.78147   -952735.06645  22948944.9924                   22948942.4804
 -15747273.68447 -12255467.90645  22336777.5314                   22336774.6884
 -18096214.14848 -14086943.07046  21468166.1414                   21468162.3594
 -13230177.23048 -10210365.18745  21265392.3054                   21265389.5594
 -19338638.11348 -15054018.07846  20837470.4844                   20837467.3284
  -1775427.68047  -1378671.23444  23410457.8914                   23410456.4574
  -8741722.05846  -6798647.61543  24323486.7664                   24323487.2234
 11  7 25  1 58 30.0000000  0  9G27G02G17G05G12G04G10G09G25
  -4116864.16446  -3192035.71543  23699325.8594                   23699324.1724
 -20389338.28548 -15869951.73446  20496371.9064                   20496366.8524
  -1168306.25447   -880800.89845  22966512.9534                   22966509.7194
 -15805424.88347 -12300780.44545  22325711.8834                   22325709.2114
 -18121401.09848 -14106569.25046  21463373.2584                   21463369.5124
 -13118865.69948 -10123628.93745  21286574.4774                   21286571.7034
 -19317134.33248 -15037261.84446  20841562.3444                   20841559.0314
  -1658735.73447  -1287742.46544  23432663.6484                   23432662.5784
  -8804922.63746  -6847894.87544  24311460.2034                   24311460.0274
 11  7 25  1 59  0.0000000  0  9G27G02G17G05G12G04G10G09G25
  -4014360.34846  -3112162.68043  23718830.6884                   23718831.6334
 -20357387.87948 -15845055.27046  20502451.7424                   20502446.4534
  -1075805.89547   -808722.68044  22984114.6724                   22984112.1644
 -15863299.73847 -12345877.66845  22314698.3364                   22314696.0514
 -18146145.93448 -14125850.92646  21458664.4534                   21458661.2584
 -13007324.01248 -10036713.35945  21307800.2194                   21307797.8444
 -19294975.47348 -15019995.15646  20845779.0784                   20845776.2234
  -1541793.61746  -1196618.74643  23454917.2974                   23454916.6564
  -8867947.06246  -6897004.96144  24299466.7974                   24299467.7704
 11  7 25  1 59 30.0000000  0  9G27G02G17G05G12G04G10G09G25
  -3911727.58246  -3032189.12543  23738361.1174                   23738361.6914
 -20325096.76248 -15819893.32046  20508596.9384                   20508591.5594
   -983133.13347   -736510.11744  23001749.7894                   23001746.3524
 -15920908.17247 -12390767.26245  22303735.4614                   22303733.7464
 -18170459.21948 -14144796.32846  21454037.3754                   21454034.0554
 -12895567.18748  -9949630.13346  21329066.7584                   21329064.3404
 -19272173.67648 -15002227.48046  20850117.8364                   20850114.8914
  -1424618.08246  -1105313.16843  23477214.7344                   23477214.1844
  -8930805.93046  -6945986.02344  24287505.1094                   24287506.8674
 11  7 25  2  0  0.0000000  0  9G27G02G17G05G12G04G10G09G25
  -3808954.01247  -2952105.95343  23757919.4064                   23757919.1334
 -20292452.32048 -15794456.06246  20514808.4534                   20514803.2074
   -890273.32847   -664151.83244  23019420.5554                   23019417.4104
 -15978232.79747 -12435435.74245  22292827.1644                   22292825.2544
 -18194324.46148 -14163392.62146  21449496.1094                   21449492.7854
 -12783583.12948  -9862369.85246  21350376.5234                   21350374.0204
 -19248713.68748 -14983946.93446  20854582.2734                   20854578.6604
  -1307198.19546  -1013817.19443  23499559.1094                   23499558.5864
  -8993482.10247  -6994824.71944  24275579.2664                   24275580.1564
 11  7 25  2  0 30.0000000  0  9G27G02G17G05G12G04G10G09G25
  -3706053.59046  -2871923.83643  23777499.9694                   23777500.7894
 -20259466.12948 -15768752.50846  20521085.9064                   20521080.3134
   -797236.80947   -591655.84044  23037124.0314                   23037121.8524
 -16035281.52347 -12479889.21945  22281970.8984                   22281969.1604
 -18217749.98048 -14181646.28946  21445038.4304                   21445034.6094
 -12671384.78548  -9774942.58245  21371727.1724                   21371724.3794
 -19224605.33648 -14965161.16046  20859169.9614                   20859166.8134
  -1189548.41846   -922142.12144  23521946.8054                   23521946.5434
  -9055984.00446  -7043527.62544  24263684.8054                   24263686.2584
 11  7 25  2  1  0.0000000  0  9G27G02G17G05G12G04G10G09G25
  -3603026.90646  -2791643.34443  23797105.3524                   23797104.9494
 -20226136.75848 -15742781.53946  20527427.8914                   20527422.3984
   -704020.82847   -519019.98444  23054862.3364                   23054860.0824
 -16092049.37547 -12524123.82845  22271168.8134                   22271165.9384
 -18240731.09848 -14199553.64546  21440665.5314                   21440662.2624
 -12558972.05147  -9687348.24645  21393118.8984                   21393116.4304
 -19199845.86348 -14945868.03146  20863881.0394                   20863878.1374
  -1071669.62946   -830288.59044  23544379.6024                   23544378.9024
  -9118306.74246  -7092090.91444  24251825.2504                   24251826.6094
 11  7 25  2  1 30.0000000  0  9G27G02G17G05G12G04G10G09G25
  -3499874.30946  -2711264.76643  23816735.1724                   23816734.9654
 -20192462.93048 -15716542.16046  20533835.8444                   20533830.3164
   -610622.46947   -446242.04744  23072635.7034                   23072633.5394
 -16148531.01647 -12568135.41845  22260420.1094                   22260418.1254
 -18263263.40648 -14217111.29746  21436377.5084                   21436374.0784
 -12446344.66848  -9599586.65245  21414550.5944                   21414548.4264
 -19174432.05948 -14926065.02346  20868717.4224                   20868714.2074
   -953563.07846   -738257.57444  23566854.0474                   23566853.5164
  -9180445.43746  -7140510.76243  24240000.9064                   24240002.3244
 11  7 25  2  2  0.0000000  0  9G27G02G17G05G12G04G10G09G25
  -3396601.89146  -2630792.79643  23836386.9924                   23836386.6094
 -20158448.88748 -15690037.68446  20540308.3984                   20540303.2624
   -517044.82046   -373324.37744  23090443.0864                   23090440.8484
 -16204726.88747 -12611924.33245  22249726.8984                   22249724.3404
 -18285347.74648 -14234319.87146  21432175.2034                   21432171.4734
 -12333508.28548  -9511662.18445  21436022.9454                   21436020.1604
 -19148366.24248 -14905753.96946  20873677.9224                   20873674.3404
   -835235.53547   -646054.37144  23589371.5084                   23589370.5744
  -9242400.92246  -7188787.81643  24228212.2894                   24228212.5704
 11  7 25  2  2 30.0000000  0  9G27G02G17G05G12G04G10G09G25
  -3293208.09046  -2550226.30143  23856062.3134                   23856062.6884
 -20124091.12548 -15663265.38346  20546846.7504                   20546841.1724
   -423282.66047   -300262.96144  23108285.7974                   23108282.6724
 -16260629.25047 -12655484.52045  22239088.5164                   22239086.1914
 -18306976.84048 -14251173.70746  21428059.5944                   21428056.1024
 -12220460.11348  -9423572.68746  21457535.2034                   21457532.5044
 -19121642.97748 -14884930.61346  20878762.8674                   20878759.3324
   -716685.80146   -553678.05544  23611930.7734                   23611929.6134
  -9304166.05546  -7236916.47743  24216458.2424                   24216458.4264
 11  7 25  2  3  0.0000000  0  9G27G02G17G05G12G04G10G09G25
  -3189701.85946  -2469572.14843  23875759.3754                   23875759.3834
 -20089397.12948 -15636231.09046  20553448.4224                   20553443.0554
   -329342.09446   -227062.51244  23126162.3054                   23126159.2344
 -16316241.70347 -12698818.80945  22228505.8444                   22228503.2774
 -18328155.23848 -14267676.34446  21424029.3054                   21424025.5984
 -12107208.78548  -9335324.87945  21479086.5084                   21479084.0044
 -19094268.09047 -14863599.51646  20883972.3984                   20883969.2074
   -597923.78546   -461136.27744  23634529.9064                   23634528.9024
  -9365744.61746  -7284899.75043  24204740.4614                   24204741.0164
 11  7 25  2  3 30.0000000  0  9G27G02G17G05G12G04G10G09G25
  -3086080.02346  -2388827.91043  23895476.5004                   23895477.8874
 -20054361.92648 -15608930.92246  20560115.4304                   20560109.8954
   -235216.78146   -153718.09844  23144073.2584                   23144070.6804
 -16371555.65647 -12741920.50845  22217979.7274                   22217977.5864
 -18348874.20348 -14283820.97746  21420086.4534                   21420082.9574
 -11993750.71148  -9246915.96945  21500676.5784                   21500673.9304
 -19066234.85248 -14841755.41046  20889306.6024                   20889303.7194
   -478947.03546   -368427.21144  23657170.6094                   23657170.2584
  -9427128.16847  -7332731.11343  24193059.1024                   24193058.9694
 11  7 25  2  4  0.0000000  0  9G27G02G17G05G12G04G10G09G25
  -2982348.46146  -2307998.17643  23915216.6094                   23915217.6564
 -20018989.67248 -15581368.11346  20566846.7344                   20566841.3634
   -140908.81646    -80231.35944  23162019.1484                   23162016.6954
 -16426571.29347 -12784789.74645  22207510.8674                   22207508.2274
 -18369135.04748 -14299608.62546  21416231.0944                   21416227.4104
 -11880090.68748  -9158349.70345  21522305.4144                   21522302.5164
 -19037545.78948 -14819400.27346  20894765.7344                   20894762.6374
   -359762.03546   -275555.89544  23679850.4384                   23679850.5594
  -9488317.21547  -7380410.81243  24181415.0554                   24181415.5784
 11  7 25  2  4 30.0000000  0  9G27G02G17G05G12G04G10G09G25
  -2878505.46546  -2227081.68043  23934977.3594                   23934978.2114
 -19983276.68048 -15553539.80546  20573642.4694                   20573637.1454
    -46413.43846     -6598.60244  23180001.2344                   23179998.8094
 -16481280.49247 -12827420.19945  22197099.5634                   22197097.5594
 -18388930.78148 -14315033.85246  21412463.8364                   21412460.7274
 -11766226.32848  -9069624.21145  21543972.8444                   21543970.5554
 -19008195.25848 -14796529.70746  20900350.9614                   20900347.7704
   -240367.50446   -182521.28144  23702570.9454                   23702570.0984
  -9549304.43746  -7427933.26243  24169809.5784                   24169809.5314
 11  7 25  2  5  0.0000000  0  9G27G02G17G05G12G04G10G09G25
  -2774564.12946  -2146088.48843  23954756.9064                   23954757.2584
 -19947234.36348 -15525454.86746  20580501.1884                   20580496.0784
     48259.18046     67172.27044  23198017.2424                   23198014.3204
 -16535690.87947 -12869817.84445  22186746.0704                   22186742.8204
 -18408269.43448 -14330102.90246  21408783.8204                   21408780.3524
 -11652170.09448  -8980749.19945  21565677.1724                   21565674.4964
 -18978193.32047 -14773151.56246  20906060.3204                   20906057.0594
   -120777.19146    -89334.10544  23725327.8284                   23725328.5204
  -9610097.86746  -7475304.66843  24158240.5554                   24158241.7154
 11  7 25  2  5 30.0000000  0  9G27G02G17G05G12G04G10G09G25
  -2670521.84846  -2065016.71143  23974555.5634                   23974555.8324
 -19910858.31648 -15497109.88346  20587423.5554                   20587418.3524
    143115.01246    141085.89544  23216066.7344                   23216064.3874
 -16589794.53947 -12911976.46545  22176450.0474                   22176447.8914
 -18427143.08248 -14344809.60246  21405192.2114                   21405188.7344
 -11537918.69948  -8891722.11745  21587418.7274                   21587416.0084
 -18947533.93747 -14749261.11346  20911894.6484                   20911891.2074
      -989.12946      4007.12944  23748123.2814                   23748122.8364
  -9670689.43747  -7522518.78544  24146710.8914                   24146710.4304
 11  7 25  2  6  0.0000000  0  9G27G02G17G05G12G04G10G09G25
  -2566383.72346  -1983870.21943  23994372.0784                   23994373.2704
 -19874152.19948 -15468507.71146  20594408.1954                   20594402.9224
    238152.13346    215140.79744  23234152.6094                   23234149.4884
 -16643590.66447 -12953895.44945  22166213.5944                   22166210.8754
 -18445551.94548 -14359154.11346  21401689.1024                   21401685.8364
 -11423476.51648  -8802546.38345  21609195.9384                   21609193.4534
 -18916218.62148 -14724859.53546  20917853.6804                   20917850.3954
    118990.80946     97497.87944  23770955.0234                   23770954.8754
  -9731078.91847  -7569575.43044  24135218.4534                   24135218.5514
 11  7 25  2  6 30.0000000  0  9G27G02G17G05G12G04G10G09G25
  -2462152.89546  -1902651.46544  24014207.4304                   24014208.6054
 -19837117.18048 -15439649.25046  20601455.7734                   20601450.7504
    333370.96146    289337.32444  23252271.8284                   23252269.3324
 -16697076.81647 -12995572.89846  22156035.0234                   22156032.5274
 -18463494.19948 -14373135.06246  21398274.8834                   21398271.1254
 -11308845.94548  -8713223.84045  21631009.5164                   21631007.2934
 -18884247.44148 -14699946.89146  20923937.6644                   20923934.2074
    239158.74246    191135.11743  23793822.9064                   23793821.9774
  -9791263.98047  -7616472.80144  24123765.8364                   24123765.5044
 11  7 25  2  7  0.0000000  0  9G27G02G17G05G12G04G10G09G25
  -2357837.36346  -1821366.75843  24034058.5394                   24034058.7584
 -19799759.46948 -15410539.33646  20608564.7894                   20608559.4494
    428766.38747    363671.43044  23270425.1724                   23270422.1134
 -16750255.48447 -13037010.75046  22145915.4304                   22145912.3054
 -18480972.76248 -14386754.67246  21394948.3914                   21394945.3484
 -11194034.21148  -8623760.13745  21652857.6564                   21652855.2034
 -18851625.32447 -14674527.02346  20930145.3834                   20930142.2664
    359506.14546    284912.19544  23816723.4384                   23816723.4924
  -9851247.37947  -7663212.96144  24112351.0944                   24112352.5394
 11  7 25  2  7 30.0000000  0  9G27G02G17G05G12G04G10G09G25
  -2253435.67646  -1740014.89143  24053925.4064                   24053925.2664
 -19762076.10948 -15381175.66446  20615735.6414                   20615730.1844
    524343.07047    438146.79344  23288613.0474                   23288609.6134
 -16803119.14847 -13078203.14546  22135855.6414                   22135852.9924
 -18497981.21948 -14400007.97346  21391711.9454                   21391708.4654
 -11079039.28148  -8534153.69145  21674740.2114                   21674738.0554
 -18818347.06248 -14648595.88746  20936477.3134                   20936474.5864
    480033.84046    378829.81344  23839659.4614                   23839659.0864
  -9911022.39147  -7709790.82044  24100976.7664                   24100976.1484
 11  7 25  2  8  0.0000000  0  9G27G02G17G05G12G04G10G09G25
  -2148944.99646  -1658593.66043  24073809.8054                   24073808.4574
 -19724062.60548 -15351554.73846  20622969.5164                   20622964.0514
    620107.35947    512768.32044  23306836.2424                   23306833.7504
 -16855659.57847 -13119143.66446  22125857.3594                   22125855.1454
 -18514511.99648 -14412889.03146  21388566.3284                   21388563.1024
 -10963857.58248  -8444401.72745  21696658.8754                   21696656.2974
 -18784406.91047 -14622148.99246  20942936.1884                   20942933.0744
    600743.94146    472889.55543  23862629.1254                   23862628.7734
  -9970580.67646  -7756199.79744  24089642.4774                   24089643.3954
 11  7 25  2  8 30.0000000  0  9G27G02G17G05G12G04G10G09G25
  -2044371.53546  -1577107.94943  24093709.3754                   24093709.0664
 -19685723.07048 -15321679.75846  20630265.2194                   20630259.6524
    716055.98847    587533.48444  23325095.3134                   23325091.7074
 -16907877.36747 -13159832.77746  22115920.6094                   22115918.2894
 -18530565.99248 -14425398.61746  21385511.3364                   21385508.0234
 -10848494.43048  -8354508.38745  21718611.4454                   21718609.1294
 -18749807.68047 -14595188.51646  20949520.2344                   20949516.9224
    721629.42646    567085.94944  23885633.2814                   23885633.5634
 -10029923.16046  -7802440.57843  24078349.5634                   24078350.4534
 11  7 25  2  9  0.0000000  0  9G27G02G17G05G12G04G10G09G25
  -1939720.80546  -1495561.98843  24113623.9224                   24113623.5474
 -19647061.53948 -15291553.87146  20637622.3444                   20637617.0314
    812186.66047    662440.49644  23343387.9454                   23343385.2074
 -16959772.34447 -13200270.34445  22106045.3674                   22106043.0044
 -18546143.81648 -14437537.12146  21382546.7814                   21382543.3364
 -10732954.58648  -8264477.36345  21740598.1954                   21740595.4964
 -18714552.01247 -14567716.54346  20956229.1414                   20956226.2234
    842684.25046    661414.31343  23908669.1804                   23908669.2854
 -10089049.89846  -7848513.27344  24067098.2344                   24067099.8134
 11  7 25  2  9 30.0000000  0  9G27G02G17G05G12G04G10G09G25
  -1834991.23447  -1413954.62943  24133553.0704                   24133553.2154
 -19608074.88348 -15261174.64146  20645040.9924                   20645035.4614
    908504.09447    737493.04344  23361716.7344                   23361713.8324
 -17011337.48847 -13240450.92646  22096232.7894                   22096230.2194
 -18561238.76248 -14449299.38346  21379674.4454                   21379670.5554
 -10617235.87948  -8174306.96145  21762618.7424                   21762616.1294
 -18678634.92647 -14539729.18046  20963064.2344                   20963061.3444
    963909.41046    755875.42243  23931738.0864                   23931736.8484
 -10147954.03946  -7894412.50044  24055889.9924                   24055890.2774
 11  7 25  2 10  0.0000000  0  9G27G02G17G05G12G04G10G09G25
  -1730198.82046  -1332298.20743  24153494.0314                   24153494.3714
 -19568777.50448 -15230553.28146  20652519.0944                   20652513.4774
   1004995.59447    812681.23845  23380078.4064                   23380075.0824
 -17062582.99647 -13280382.40246  22086480.9774                   22086479.2194
 -18575862.32048 -14460694.32446  21376891.3914                   21376887.5594
 -10501353.33248  -8084008.89545  21784670.3984                   21784667.3284
 -18642069.27747 -14511236.43446  20970022.4614                   20970019.2234
   1085288.34846    850456.36343  23954834.7814                   23954834.3954
 -10206646.10947  -7940146.52344  24044721.0084                   24044720.7624
 11  7 25  2 10 30.0000000  0  9G27G02G17G05G12G04G10G09G25
  -1625342.59046  -1250592.13743  24173447.6724                   24173448.2774
 -19529166.43448 -15199687.49246  20660056.7894                   20660051.4804
   1101665.32047    888008.32045  23398473.8364                   23398471.0634
 -17113502.37147 -13320059.77046  22076791.5084                   22076788.9734
 -18590008.66448 -14471717.40246  21374199.8134                   21374195.9884
 -10385305.48848  -7993582.02045  21806753.7584                   21806750.7274
 -18604851.48847 -14482235.53546  20977104.5784                   20977101.4024
   1206821.10947    945157.16843  23977962.0164                   23977961.9534
 -10265119.87547  -7985710.43444  24033593.8444                   24033594.2154
 11  7 25  2 11  0.0000000  0  9G27G02G17G05G12G04G10G09G25
  -1520412.69246  -1168828.69043  24193415.7194                   24193415.6414
 -19489230.30948 -15168568.40646  20667656.4064                   20667650.4344
   1198525.89547    963484.09844  23416905.3594                   23416902.8554
 -17164080.07847 -13359470.90646  22067166.5704                   22067164.4414
 -18603662.35548 -14482356.61746  21371601.4844                   21371597.5984
 -10269081.43448  -7903017.83245  21828870.3984                   21828867.7074
 -18566968.54347 -14452716.33646  20984313.3984                   20984310.5514
   1328516.96547   1039984.97744  24001121.8134                   24001120.3794
 -10323360.03147  -8031092.33644  24022511.1094                   24022511.5434
 11  7 25  2 11 30.0000000  0  9G27G02G17G05G12G04G10G09G25
  -1415420.43846  -1087016.66443  24213395.1334                   24213395.1644
 -19448978.72748 -15137203.49646  20675316.0554                   20675310.1914
   1295569.59847   1039102.57844  23435373.3914                   23435369.6644
 -17214321.60547 -13398620.07046  22057606.1954                   22057603.5394
 -18616830.41848 -14492617.40646  21369095.7894                   21369092.3834
 -10152691.89848  -7812324.71145  21851018.5234                   21851015.9804
 -18528428.53147 -14422685.13346  20991647.3364                   20991644.2304
   1450363.98847   1134930.69144  24024307.0864                   24024306.9144
 -10381372.54347  -8076296.84844  24011470.7424                   24011471.7274
 11  7 25  2 12  0.0000000  0  9G27G02G17G05G12G04G10G09G25
  -1310370.68046  -1005159.74643  24233385.0864                   24233385.5354
 -19408415.07048 -15105595.42246  20683035.0004                   20683029.8014
   1392794.67247   1114862.38344  23453874.2344                   23453871.2704
 -17264226.54347 -13437506.97346  22048109.3754                   22048106.7234
 -18629512.66848 -14502499.64546  21366682.2664                   21366678.5784
 -10036140.82848  -7721505.72345  21873197.9384                   21873194.9494
 -18489233.25048 -14392143.32846  20999106.0234                   20999102.5824
   1572356.99147   1229990.11844  24047522.0164                   24047522.2974
 -10439156.79347  -8121323.53544  24000475.4304                   24000476.1374
 11  7 25  2 12 30.0000000  0  9G27G02G17G05G12G04G10G09G25
  -1205267.94146   -923261.57443  24253384.9614                   24253386.5904
 -19367541.95348 -15073746.19946  20690812.9304                   20690807.4024
   1490199.74247   1190762.44144  23472409.2504                   23472406.7114
 -17313793.91447 -13476130.82846  22038677.2814                   22038674.0434
 -18641708.68048 -14512003.00046  21364361.5004                   21364357.3594
  -9919431.85948  -7630563.67645  21895406.7894                   21895404.2114
 -18449384.64148 -14361092.44146  21006688.9384                   21006685.4884
   1694490.74247   1325159.23444  24070763.6484                   24070762.8914
 -10496712.00047  -8166171.75043  23989522.7114                   23989522.7704
 11  7 25  2 13  0.0000000  0  9G27G02G17G05G12G04G10G09G25
  -1100107.25446   -841318.30143  24273396.8284                   24273398.0944
 -19326352.97548 -15041650.85346  20698650.9924                   20698645.5084
   1587792.74646   1266808.94944  23490980.5084                   23490978.2974
 -17363013.18447 -13514483.43746  22029310.7114                   22029308.5164
 -18653408.73048 -14521119.90246  21362134.7664                   21362131.4024
  -9802559.51248  -7539494.32445  21917646.5634                   21917643.6844
 -18408874.32448 -14329525.94546  21014397.4534                   21014394.3284
   1816769.20347   1420441.05143  24094032.3364                   24094031.6524
 -10554027.88347  -8210833.48443  23978616.4144                   23978616.0474
 11  7 25  2 13 30.0000000  0  9G27G02G17G05G12G04G10G09G25
   -994892.98846   -759333.21143  24293418.0554                   24293420.1564
 -19284850.46148 -15009311.18746  20706548.6254                   20706543.2344
   1685572.62546   1343001.05144  23509587.7034                   23509584.3834
 -17411883.05147 -13552563.77746  22020010.8674                   22020008.5474
 -18664612.38748 -14529849.99646  21360003.0554                   21359999.6724
  -9685527.13348  -7448300.27745  21939917.2344                   21939914.7304
 -18367704.47748 -14297445.52746  21022232.1414                   21022228.8054
   1939187.29747   1515831.73844  24117327.4224                   24117326.8914
 -10611103.37547  -8255307.95743  23967755.4844                   23967754.5354
 11  7 25  2 14  0.0000000  0  9G27G02G17G05G12G04G10G09G25
  -2465063.46146  -1904920.66843  24013653.6564                   24013655.4304
 -20818473.70748 -16204342.24646  20414709.5554                   20414704.5314
    208103.75047    191726.59844  23228434.3134                   23228432.0514
 -19035841.57847 -14817985.94146  21710982.0864                   21710979.4024
 -20250757.10548 -15765806.89846  21058169.2274                   21058165.9024
 -11143771.86748  -8584594.87545  21662422.3594                   21662419.6414
 -19901312.34848 -15492464.62946  20730395.9384                   20730393.0274
    486306.79347    383716.94143  23840853.7274                   23840853.4384
 -12243376.84447  -9527209.37143  23657143.9304                   23657143.5744
 11  7 25  2 14 30.0000000  0  9G27G02G17G05G12G04G10G09G25
  -2359766.19946  -1822870.97743  24033692.4384                   24033693.7344
 -20776364.49248 -16171529.83246  20422722.3754                   20422717.4454
    306242.17646    268198.12144  23247109.5554                   23247107.6094
 -19084020.34847 -14855527.77046  21701813.7584                   21701810.8634
 -20260977.79748 -15773771.04746  21056225.0474                   21056221.3284
 -11026441.26648  -8493168.43445  21684749.5084                   21684747.3524
 -19858838.50048 -15459368.10946  20738478.3674                   20738475.9414
    608978.55546    479305.28544  23864197.0784                   23864198.2344
 -12299979.50047  -9571315.37944  23646373.0164                   23646372.4804
 11  7 25  2 15  0.0000000  0  9G27G02G17G05G12G04G10G09G25
  -2254428.75846  -1740789.92643  24053737.1724                   24053738.9144
 -20733950.44548 -16138479.89146  20430794.1094                   20430788.4064
    404563.69546    344812.29744  23265819.3524                   23265816.4064
 -19131846.10247 -14892794.52046  21692712.5164                   21692710.0514
 -20270700.90648 -15781347.48446  21054374.3754                   21054370.6844
 -10908961.60948  -8401625.84445  21707105.5394                   21707102.8324
 -19815709.75448 -15425761.27746  20746685.9694                   20746682.8244
    731774.96146    574990.71143  23887564.9454                   23887564.8794
 -12356338.96147  -9615231.81644  23635647.7734                   23635648.3284
 11  7 25  2 15 30.0000000  0  9G27G02G17G05G12G04G10G09G25
  -2149051.57846  -1658677.87143  24073790.0084                   24073790.9804
 -20691230.35248 -16105191.46546  20438923.1954                   20438917.9184
    503070.84846    421571.08644  23284564.0634                   23284562.0984
 -19179314.04747 -14929782.46946  21683680.1954                   21683676.5704
 -20279922.05948 -15788532.76646  21052619.2974                   21052615.7854
 -10791332.27748  -8309966.61345  21729489.8054                   21729486.8714
 -19771923.65648 -15391642.23446  20755018.0394                   20755014.9344
    854695.28147    670772.71144  23910955.6644                   23910956.2734
 -12412450.03947  -9658954.70944  23624969.9454                   23624971.1454
 11  7 25  2 16  0.0000000  0  9G27G02G17G05G12G04G10G09G25
  -2043641.98046  -1576540.56343  24093848.4064                   24093850.2114
 -20648209.94948 -16071669.03946  20447109.9454                   20447104.6174
    601759.28146    498471.17644  23303344.3984                   23303341.7584
 -19226426.23847 -14966493.19146  21674714.8204                   21674711.6254
 -20288644.08648 -15795329.14146  21050959.8674                   21050956.2814
 -10673560.05148  -8218196.02745  21751900.8444                   21751898.3284
 -19727484.91448 -15357014.62946  20763474.3674                   20763471.3554
    977731.08647    766644.70743  23934369.0784                   23934368.5744
 -12468314.99246  -9702485.78544  23614339.1174                   23614339.9964
 11  7 25  2 16 30.0000000  0  9G27G02G17G05G12G04G10G09G25
  -1938199.21146  -1494377.46943  24113914.5634                   24113914.3364
 -20604886.87948 -16037910.77346  20455354.0314                   20455348.3014
    700633.03146    575515.66844  23322158.9224                   23322156.6214
 -19273176.22347 -15002921.68446  21665818.5474                   21665815.7384
 -20296861.30148 -15801732.14146  21049396.0164                   21049392.5594
 -10555643.25848  -8126312.79345  21774339.5704                   21774336.6214
 -19682389.92648 -15321875.66446  20772055.6564                   20772052.6524
   1100882.52047    862606.80944  23957804.0474                   23957803.8054
 -12523927.54347  -9745820.18744  23603757.0314                   23603757.0044
 11  7 25  2 17  0.0000000  0  9G27G02G17G05G12G04G10G09G25
  -1832726.07846  -1412190.71143  24133984.7504                   24133985.4614
 -20561262.50848 -16003917.73046  20463655.3674                   20463649.6914
    799692.13347    652704.56644  23341009.4694                   23341007.1844
 -19319561.40247 -15039065.91046  21656991.4454                   21656988.6484
 -20304572.10248 -15807740.55146  21047928.8984                   21047925.0084
 -10437583.90248  -8034318.48845  21796805.2814                   21796803.1094
 -19636639.02748 -15286225.59446  20780761.8054                   20780758.9304
   1224146.02746    958656.21943  23981259.7194                   23981259.8794
 -12579285.28547  -9788956.01244  23593221.6564                   23593223.0274
 11  7 25  2 17 30.0000000  0  9G27G02G17G05G12G04G10G09G25
  -1727219.85545  -1329978.16443  24154061.0164                   24154063.4184
 -20517332.66048 -15969686.65246  20472014.7274                   20472009.0204
    898942.19547    730042.29744  23359896.5004                   23359894.0864
 -19365573.74647 -15074919.61746  21648235.3444                   21648232.9804
 -20311768.99648 -15813348.50046  21046559.2734                   21046555.6604
 -10319378.33648  -7942210.24645  21819299.2974                   21819296.6844
 -19590227.21548 -15250060.52746  20789593.7974                   20789590.5274
   1347523.81646   1054794.64543  24004738.2664                   24004738.0474
 -12634380.03547  -9831886.92244  23582737.8134                   23582738.8594
 11  7 25  2 18  0.0000000  0  9G27G02G17G05G12G04G10G09G25
  -1621691.00445  -1247748.04343  24174143.8524                   24174145.2274
 -20473106.30548 -15935224.53946  20480430.6334                   20480425.4494
    998375.88747    807523.09044  23378818.4454                   23378815.2344
 -19411218.26647 -15110486.71546  21639550.1094                   21639546.3714
 -20318457.62948 -15818560.40646  21045286.6724                   21045282.9734
 -10201036.32448  -7849995.69945  21841819.0314                   21841816.4964
 -19543162.27747 -15213386.52346  20798549.8054                   20798546.7624
   1471004.62546   1151013.42643  24028235.5004                   24028235.7624
 -12689217.03547  -9874616.98044  23572302.8204                   23572303.8134
 11  7 25  2 18 30.0000000  0  9G27G02G17G05G12G04G10G09G25
  -1516148.02746  -1165506.89843  24194227.1804                   24194229.2704
 -20428589.89548 -15900536.39546  20488901.8594                   20488896.4224
   1097988.03547    885142.96944  23397773.3984                   23397771.4734
 -19456497.75047 -15145769.36346  21630933.1804                   21630930.1294
 -20324642.10248 -15823379.46546  21044109.4224                   21044105.8714
 -10082565.52747  -7757680.75045  21864363.1644                   21864360.8324
 -19495450.19947 -15176208.27346  20807628.8054                   20807625.6604
   1594579.58246   1247305.43043  24051751.5864                   24051751.6024
 -12743799.31347  -9917148.51644  23561916.5944                   23561917.0474
 11  7 25  2 19  0.0000000  0  9G27G02G17G05G12G04G10G09G25
  -1410584.53146  -1083249.69143  24214316.3134                   24214317.3874
 -20383775.68048 -15865616.20346  20497429.6564                   20497424.1414
   1197788.13747    962909.28944  23416765.2814                   23416762.1954
 -19501400.32448 -15180758.30546  21622388.8444                   21622385.6214
 -20330311.11348 -15827796.84846  21043030.5704                   21043027.1994
  -9963958.38348  -7665259.56645  21886933.1254                   21886930.7114
 -19447081.74247 -15138518.53546  20816833.1174                   20816830.0234
   1718254.56246   1343675.43443  24075286.8364                   24075285.6174
 -12798114.87947  -9959472.25444  23551580.4774                   23551580.4384
 11  7 25  2 19 30.0000000  0  9G27G02G17G05G12G04G10G09G25
  -1305006.80946  -1000981.42243  24234406.2734                   24234407.8094
 -20338668.23048 -15830467.51246  20506013.3284                   20506007.7734
   1297772.86747   1040819.44544  23435791.5864                   23435788.4534
 -19545927.01647 -15215454.37146  21613915.6804                   21613912.4384
 -20335466.10948 -15831813.71146  21042049.7894                   21042046.2854
  -9845220.39147  -7572736.42245  21909528.1954                   21909526.1604
 -19398060.82448 -15100320.40246  20826161.7344                   20826158.3164
   1842022.60246   1440117.97743  24098838.3284                   24098838.6994
 -12852164.81647 -10001588.95344  23541294.6884                   23541294.8244
 11  7 25  2 20  0.0000000  0  9G27G02G17G05G12G04G10G09G25
  -1199411.92646   -918699.77743  24254501.4144                   24254501.6954
 -20293263.17248 -15795086.93446  20514653.6954                   20514648.0354
   1397948.32447   1118878.27344  23454854.6484                   23454850.9774
 -19590069.43747 -15249850.99246  21605515.1724                   21605512.6334
 -20340099.53948 -15835424.13746  21041168.2894                   21041164.9144
  -9726347.85947  -7480108.45345  21932148.8754                   21932146.8164
 -19348382.07048 -15061609.66846  20835615.2114                   20835611.8364
   1965886.07046   1536634.86343  24122409.3754                   24122409.0824
 -12905940.89147 -10043492.20344  23531061.0474                   23531062.1214
 11  7 25  2 20 30.0000000  0  9G27G02G17G05G12G04G10G09G25
  -1093810.00046   -836412.62543  24274596.5394                   24274597.4924
 -20247569.28948 -15759481.29346  20523349.0704                   20523343.5394
   1498306.98447   1197079.84844  23473952.1024                   23473948.9924
 -19633832.64848 -15283952.14846  21597187.4844                   21597184.8164
 -20344217.67648 -15838633.03546  21040384.4774                   21040380.8524
  -9607350.19147  -7387382.96945  21954793.6334                   21954791.1024
 -19298053.36748 -15022392.48446  20845192.7974                   20845189.5744
   2089834.16446   1633217.74243  24145995.7424                   24145996.0864
 -12959448.00047 -10085185.92644  23520879.2584                   23520879.4184
 11  7 25  2 21  0.0000000  0  9G27G02G17G05G12G04G10G09G25
   -988208.01246   -754125.41843  24294692.0164                   24294693.5824
 -20201591.84848 -15723654.70346  20532098.0864                   20532092.6054
   1598845.23047   1275421.34444  23493083.2274                   23493080.8444
 -19677217.93747 -15317758.80546  21588931.2734                   21588929.2034
 -20347822.47348 -15841441.93446  21039698.4144                   21039694.7934
  -9488233.04748  -7294564.41445  21977460.9224                   21977458.2854
 -19247079.30148 -14982672.42246  20854892.4694                   20854889.5474
   2213859.22747   1729860.62943  24169597.0004                   24169597.2894
 -13012687.53547 -10126671.12944  23510747.6804                   23510748.4064
 11  7 25  2 21 30.0000000  0  9G27G02G17G05G12G04G10G09G25
   -882611.22346   -671842.27343  24314786.6254                   24314786.6254
 -20155334.55148 -15687610.04346  20540900.7584                   20540894.7774
   1699560.81647   1353901.02044  23512250.1724                   23512246.6174
 -19720225.21148 -15351270.91846  21580747.5784                   21580744.3674
 -20350914.57448 -15843851.32446  21039109.5084                   21039106.3674
  -9369001.08647  -7201656.37545  22000149.9224                   22000146.8794
 -19195462.74248 -14942451.71546  20864714.4304                   20864712.0664
   2337955.31647   1826558.81643  24193212.0944                   24193211.3834
 -13065659.55947 -10167947.87544  23500667.6334                   23500668.1884
 11  7 25  2 22  0.0000000  0  9G27G02G17G05G12G04G10G09G25
   -777011.53946   -589556.82042  24334881.2194                   24334882.3634
 -20108787.90248 -15651339.91046  20549757.9924                   20549752.4454
   1800464.66447   1432527.40244  23531451.0394                   23531448.0904
 -19762841.01248 -15384477.98446  21572637.8674                   21572634.5084
 -20353481.85248 -15845851.74246  21038621.4304                   21038617.8794
  -9249645.30548  -7108651.85245  22022862.4844                   22022860.4184
 -19143193.24648 -14901722.22746  20874661.5704                   20874658.3834
   2462129.85547   1923318.14843  24216841.3754                   24216841.8954
 -13118350.60547 -10209005.71544  23490641.0784                   23490640.6954
 11  7 25  2 22 30.0000000  0  9G27G02G17G05G12G04G10G09G25
   -671418.14546   -507276.26643  24354974.6804                   24354976.5044
 -20061959.34848 -15614850.10946  20558669.1484                   20558664.0084
   1901550.90647   1511295.92644  23550686.3754                   23550683.7814
 -19805069.22348 -15417383.03546  21564602.0394                   21564598.9774
 -20355528.57048 -15847446.55546  21038231.9224                   21038227.8524
  -9130173.67647  -7015557.05945  22045596.8364                   22045594.2344
 -19090277.63748 -14860489.26646  20884731.1484                   20884727.8134
   2586373.47747   2020131.31243  24240484.4924                   24240484.2344
 -13170764.44947 -10249847.61743  23480666.0944                   23480666.5434
 11  7 25  2 23  0.0000000  0  9G27G02G17G05G12G04G10G09G25
   -565828.41045   -424998.76243  24375067.8834                   24375069.9144
 -20014844.44148 -15578137.18446  20567634.9454                   20567629.3284
   2002824.68747   1590210.57045  23569958.3204                   23569956.0704
 -19846902.00448 -15449979.96546  21556641.6024                   21556638.2584
 -20357047.93048 -15848630.41846  21037942.7504                   21037938.9734
  -9010583.32448  -6922369.74645  22068354.6884                   22068351.9804
 -19036711.07848 -14818749.07446  20894924.0704                   20894920.9104
   2710687.77346   2116999.53943  24264140.5004                   24264141.1374
 -13222893.28947 -10290467.39144  23470746.6884                   23470746.9104
 11  7 25  2 23 30.0000000  0  9G27G02G17G05G12G04G10G09G25
   -460249.06345   -342729.30542  24395159.5004                   24395161.1094
 -19967449.16048 -15541205.77746  20576653.8594                   20576648.6254
   2104282.47746   1669268.60544  23589264.6334                   23589262.7774
 -19888340.73048 -15482269.82046  21548755.9534                   21548753.3014
 -20358042.05948 -15849405.01646  21037753.6174                   21037749.7544
  -8890879.58648  -6829094.09445  22091133.3364                   22091130.3244
 -18982498.31648 -14776505.32446  20905240.5084                   20905236.7974
   2835065.25047   2213917.00843  24287808.8204                   24287809.3874
 -13274738.53947 -10330866.14844  23460881.2034                   23460880.9694
 11  7 25  2 24  0.0000000  0  9G27G02G17G05G12G04G10G09G25
   -354688.55546   -260474.51242  24415246.9224                   24415248.8984
 -19919780.11348 -15504061.05546  20585725.1174                   20585719.6134
   2205918.86347   1748465.81244  23608606.2504                   23608603.7464
 -19929388.49248 -15514255.05146  21540945.1804                   21540942.1054
 -20358514.92648 -15849773.43446  21037663.4534                   21037660.0084
  -8771070.22347  -6735736.13345  22113932.1564                   22113929.7154
 -18927645.58648 -14733762.91046  20915678.9304                   20915675.5554
   2959496.90246   2310876.67243  24311487.6024                   24311487.9734
 -13326303.36747 -10371046.40644  23451068.1884                   23451068.6294
 11  7 25  2 24 30.0000000  0  9G27G02G17G05G12G04G10G09G25
   -249131.88746   -178222.68443  24435333.7734                   24435335.3244
 -19871820.81248 -15466690.15246  20594851.4304                   20594845.8984
   2307751.91446   1827816.25444  23627983.9924                   23627981.3674
 -19970025.03148 -15545919.82446  21533211.8204                   21533208.7544
 -20358446.61348 -15849720.15646  21037676.5784                   21037672.4454
  -8651138.96548  -6642283.19545  22136754.8914                   22136751.8204
 -18872135.64548 -14690508.38746  20926241.4694                   20926238.6094
   3083997.30547   2407889.88743  24335179.3594                   24335179.3754
 -13377567.18847 -10410992.11344  23441313.0634                   23441313.4224
 11  7 25  2 25  0.0000000  0  9G27G02G17G05G12G04G10G09G25
   -143590.32046    -95982.54743  24455418.5004                   24455420.1214
 -19823580.84848 -15429100.55946  20604030.9384                   20604025.7344
   2409772.84446   1907313.12544  23647397.9144                   23647395.9104
 -20010256.40248 -15577268.89546  21525555.8674                   21525552.9734
 -20357845.01648 -15849251.33646  21037791.1564                   21037786.7814
  -8531096.45347  -6548743.57045  22159597.6094                   22159595.6094
 -18815977.38348 -14646748.69546  20936928.6564                   20936925.0904
   3208554.67246   2504947.50443  24358881.1954                   24358881.4534
 -13428535.96947 -10450707.95344  23431613.9924                   23431614.5594
 11  7 25  2 25 30.0000000  0  9G27G02G17G05G12G04G10G09G25
    -38067.39146    -13757.00443  24475499.5944                   24475499.3094
 -19775062.25048 -15391293.83646  20613263.7034                   20613258.2034
   2511981.40646   1986956.15644  23666847.8524                   23666844.8364
 -20050081.03548 -15608301.02346  21517977.5554                   21517974.7894
 -20356708.77048 -15848365.91046  21038007.1414                   21038003.6254
  -8410944.98047  -6455119.05545  22182461.6254                   22182459.4064
 -18759172.77348 -14602485.34846  20947737.8444                   20947734.6294
   3333165.10546   2602046.41443  24382594.2974                   24382594.9734
 -13479208.00447 -10490192.55944  23421972.0084                   23421971.3524
 11  7 25  2 26  0.0000000  0  9G27G02G17G05G12G04G10G09G25
     67426.50446     68445.91443  24495573.8134                   24495574.5864
 -19726273.91048 -15353276.93446  20622547.8054                   20622542.2504
   2614370.30546   2066739.72344  23686331.2894                   23686329.3244
 -20089503.37147 -15639019.68746  21510475.9614                   21510472.5744
 -20355043.96148 -15847068.61746  21038324.0704                   21038320.5124
  -8290694.43047  -6361417.33645  22205344.7974                   22205342.0514
 -18701729.83248 -14557724.59046  20958668.8364                   20958665.9614
   3457817.29346   2699177.99643  24406314.1174                   24406314.8524
 -13529588.42647 -10529449.96144  23412384.3834                   23412383.7974
 11  7 25  2 26 30.0000000  0  9G27G02G17G05G12G04G10G09G25
    172896.77746    150630.44542  24515643.4844                   24515645.6414
 -19677209.19148 -15315044.67246  20631884.6334                   20631879.1524
   2716947.64546   2146670.12944  23705850.9534                   23705848.5204
 -20128513.42248 -15669417.07846  21503052.2584                   21503049.8634
 -20352840.85548 -15845351.87946  21038742.7504                   21038739.3054
  -8170338.19547  -6267633.26645  22228247.9384                   22228245.0434
 -18643641.48448 -14512460.92246  20969723.2664                   20969719.7304
   3582515.87546   2796345.70343  24430043.5864                   24430044.4884
 -13579666.58247 -10568471.84844  23402854.6094                   23402854.4304
 11  7 25  2 27  0.0000000  0  9G27G02G17G05G12G04G10G09G25
    278340.18746    232794.02042  24535708.6954                   24535711.0744
 -19627869.96548 -15276598.50046  20641273.4774                   20641268.2274
   2819712.70746   2226746.81644  23725406.0084                   23725404.7194
 -20167109.48048 -15699491.88346  21495708.0704                   21495704.8714
 -20350098.57848 -15843215.00846  21039265.0554                   21039261.0824
  -8049878.87947  -6173768.83645  22251170.6564                   22251168.1054
 -18584909.10948 -14466695.41046  20980898.8204                   20980895.8834
   3707256.98046   2893546.47743  24453781.3914                   24453781.6764
 -13629440.60247 -10607256.77744  23393382.8054                   23393382.5824
 11  7 25  2 27 30.0000000  0  9G27G02G17G05G12G04G10G09G25
    383744.24246    314927.01242  24555767.1334                   24555769.0514
 -19578267.06248 -15237946.86746  20650712.6804                   20650707.2854
   2922656.40246   2306962.66444  23744996.6644                   23744994.1764
 -20205298.52048 -15729249.53946  21488440.8134                   21488437.8554
 -20346825.34048 -15840664.40246  21039888.2424                   21039883.8874
  -7929327.73847  -6079832.87545  22274110.7194                   22274107.9144
 -18525542.78548 -14420435.90646  20992196.6024                   20992192.9574
   3832027.92246   2990770.49243  24477524.0314                   24477524.3524
 -13678917.44547 -10645810.10244  23383967.6334                   23383967.0234
 11  7 25  2 28  0.0000000  0  8G02G17G05G12G04G10G09G25
 -19528393.68748 -15199084.46546  20660203.0084                   20660197.5634
   3025786.57446   2387323.85244  23764621.2344                   23764619.4344
 -20243070.14148 -15758681.91446  21481253.0314                   21481249.6994
 -20343011.43048 -15837692.49246  21040613.4844                   21040609.8594
  -7808678.41047  -5985820.41445  22297069.4064                   22297066.8164
 -18465535.35548 -14373676.84046  21003615.4844                   21003612.0944
   3956833.25046   3088021.28943  24501274.3984                   24501274.1214
 -13728086.50847 -10684123.59044  23374610.6884                   23374611.0234
 11  7 25  2 28 30.0000000  0  8G02G17G05G12G04G10G09G25
 -19478250.71548 -15160011.98846  20669745.2344                   20669739.6134
   3129104.02746   2467830.98044  23784282.4924                   23784278.8094
 -20280421.35248 -15787786.71946  21474145.1804                   21474142.2424
 -20338654.54748 -15834297.48846  21041442.5634                   21041438.6764
  -7687932.46947  -5891732.68445  22320046.5554                   22320043.7734
 -18404887.53548 -14326418.77046  21015156.3674                   21015152.5634
   4081670.22746   3185296.74643  24525029.2974                   24525030.8404
 -13776944.85947 -10722195.00845  23365313.7814                   23365313.8634
 11  7 25  2 29  0.0000000  0  8G02G17G05G12G04G10G09G25
 -19427846.38348 -15120735.86746  20679336.5704                   20679331.5554
   3232602.10546   2548478.82444  23803977.2584                   23803974.4104
 -20317356.53148 -15816567.32446  21467116.6804                   21467114.0084
 -20333760.68048 -15830484.05946  21042373.7664                   21042370.2624
  -7567098.27347  -5797576.18445  22343040.3134                   22343038.3014
 -18343607.09448 -14278667.75846  21026817.0944                   21026813.7424
   4206528.41546   3282588.78543  24548789.5864                   24548790.4384
 -13825496.71547 -10760027.59045  23356074.4844                   23356075.3244
 11  7 25  2 29 30.0000000  0  8G02G17G05G12G04G10G09G25
 -19377171.09048 -15081248.60246  20688980.0474                   20688974.5984
   3336291.50446   2629275.76644  23823708.1024                   23823705.7114
 -20353863.11748 -15845013.96546  21460169.7734                   21460166.4734
 -20328317.74248 -15826242.78946  21043409.6174                   21043405.8014
  -7446167.28947  -5703344.23845  22366053.0394                   22366050.5084
 -18281684.19948 -14230416.13346  21038600.8984                   21038597.2624
   4331415.18746   3379903.00443  24572555.5634                   24572556.0474
 -13873729.05947 -10797611.22745  23346896.2504                   23346896.7274
 11  7 25  2 30  0.0000000  0  8G02G17G05G12G04G10G09G25
 -19326225.25848 -15041550.52346  20698674.3834                   20698668.8164
   3440173.38746   2710222.69144  23843476.8594                   23843474.0744
 -20389937.29348 -15873123.67246  21453304.8524                   21453301.8984
 -20322322.93048 -15821571.48446  21044550.1724                   21044546.5784
  -7325140.00847  -5609037.27345  22389083.6414                   22389081.8834
 -18219118.65248 -14181663.73446  21050506.4844                   21050503.3484
   4456328.40646   3477237.91043  24596325.9774                   24596326.5904
 -13921638.29347 -10834943.07044  23337779.3984                   23337778.8794
 11  7 25  2 30 30.0000000  0  8G02G17G05G12G04G10G09G25
 -19275009.59048 -15001642.19546  20708420.7814                   20708414.8674
   3544248.16847   2791319.93044  23863281.0784                   23863278.8554
 -20425576.57448 -15900894.48846  21446522.8674                   21446519.5984
 -20315774.70748 -15816468.95746  21045796.4224                   21045792.5044
  -7204017.83247  -5514656.35945  22412132.3134                   22412129.9884
 -18155911.03948 -14132411.02746  21062534.6414                   21062531.1724
   4581265.10246   3574591.02743  24620100.4694                   24620100.9694
 -13969221.50447 -10872020.87544  23328724.5474                   23328724.9104
 11  7 25  2 31  0.0000000  0  8G02G17G05G12G04G10G09G25
 -19223530.06648 -14961528.26246  20718216.9614                   20718211.2074
   3648511.65247   2872564.22344  23883122.1414                   23883119.4224
 -20460782.81648 -15928327.88346  21439823.0084                   21439820.5354
 -20308675.97348 -15810937.46146  21047146.8594                   21047143.1994
  -7082806.86347  -5420206.25445  22435197.7504                   22435195.3634
 -18092066.90648 -14082662.32846  21074683.4304                   21074680.5904
   4706217.46946   3671956.41844  24643877.8984                   24643878.9104
 -14016480.53147 -10908846.08644  23319730.8444                   23319731.4104
 11  7 25  2 31 30.0000000  0  8G02G17G05G12G04G10G09G25
 -19171793.93048 -14921214.37946  20728061.5864                   20728056.2974
   3752957.72747   2953950.77044  23902997.9534                   23902994.8754
 -20495559.73048 -15955426.73046  21433205.5474                   21433202.4774
 -20301031.40248 -15804980.62946  21048602.0784                   21048598.4384
  -6961514.86747  -5325693.00045  22458279.0944                   22458276.8164
 -18027593.48048 -14032423.28546  21086952.5554                   21086949.3094
   4831176.51646   3769326.95743  24667657.2114                   24667658.2384
 -14063418.93047 -10945421.48044  23310799.2504                   23310798.6214
 11  7 25  2 32  0.0000000  0  8G02G17G05G12G04G10G09G25
 -19119792.92648 -14880694.09446  20737957.3284                   20737951.9694
   3857595.98047   3035487.09044  23922909.3524                   23922906.4534
 -20529895.87948 -15982182.12946  21426671.1804                   21426668.1414
 -20292830.23048 -15798590.08246  21050162.3754                   21050158.8134
  -6840134.07447  -5231110.55945  22481377.6094                   22481374.5124
 -17962482.05148 -13981687.09846  21099343.0004                   21099339.9534
   4956147.93446   3866707.22343  24691438.3914                   24691438.6454
 -14110024.67247 -10981737.61745  23301930.5944                   23301930.3284
 11  7 25  2 32 30.0000000  0  8G02G17G05G12G04G10G09G25
 -19067539.51248 -14839977.12546  20747900.8834                   20747895.0314
   3962415.29346   3117164.47344  23942856.1954                   23942853.0824
 -20563799.78548 -16008600.71546  21420219.7734                   21420216.6024
 -20284082.40648 -15791773.57046  21051827.0704                   21051823.2194
  -6718677.55147  -5136469.09445  22504489.3134                   22504487.4024
 -17896744.99248 -13930463.39546  21111851.9774                   21111848.8244
   5081117.63746   3964086.04343  24715219.6174                   24715220.6094
 -14156306.38347 -11017801.28945  23293123.6254                   23293123.5474
 11  7 25  2 33  0.0000000  0  8G02G17G05G12G04G10G09G25
 -19015022.09448 -14799054.44946  20757894.4844                   20757888.8014
   4067428.85946   3198993.25043  23962839.5474                   23962836.5354
 -20597256.24248 -16034670.62946  21413853.1094                   21413849.9104
 -20274773.85548 -15784520.13746  21053598.6804                   21053594.8524
  -6597133.82447  -5041759.69945  22527618.1414                   22527616.2974
 -17830370.78947 -13878743.22746  21124482.7114                   21124479.7814
   5206094.99246   4061470.91043  24739001.5704                   24739003.3954
 -14202248.75447 -11053600.48045  23284381.2894                   23284381.1024
 11  7 25  2 33 30.0000000  0  8G02G17G05G12G04G10G09G25
 -20537666.88948 -15985530.88446  20468144.7034                   20468139.1604
   2597213.46346   2053370.92643  23683067.0634                   23683063.2544
 -22205690.44448 -17287995.94546  21107778.2034                   21107775.0704
 -21840329.26348 -17004433.40846  20755682.8284                   20755679.3054
  -8050927.25747  -6174585.74645  22250971.0394                   22250968.3984
 -19338784.81448 -15054130.76746  20837441.1094                   20837438.0784
   3755654.32646   2931257.34043  24462992.5784                   24462993.1884
 -15823277.32747 -12316739.58245  22975909.4694                   22975909.5744
 11  7 25  2 34  0.0000000  0  8G02G17G05G12G04G10G09G25
 -20484638.94948 -15944210.39846  20478235.7504                   20478229.8364
   2702601.81246   2135491.73043  23703121.4224                   23703118.1764
 -22238258.77748 -17313373.82846  21101580.7424                   21101577.6804
 -21829907.90248 -16996312.84846  20757666.3754                   20757662.4804
  -7929228.19947  -6079755.30145  22274129.7274                   22274126.7114
 -19271152.93448 -15001430.59046  20850310.8364                   20850307.7934
   3880623.78946   3028636.04743  24486773.6414                   24486773.9064
 -15868546.97747 -12352014.53944  22967294.7734                   22967294.5354
 11  7 25  2 34 30.0000000  0  8G02G17G05G12G04G10G09G25
 -20431364.74648 -15902698.01646  20488373.8984                   20488367.7774
   2808170.94146   2217753.40244  23723210.5704                   23723207.6604
 -22270386.96948 -17338408.74246  21095467.0314                   21095463.7974
 -21818935.90248 -16987763.21146  20759754.1804                   20759750.5514
  -7807460.77747  -5984871.57445  22297300.8204                   22297298.6884
 -19202901.02348 -14948247.27746  20863298.9924                   20863295.4384
   4005577.54747   3126002.51243  24510552.0634                   24510551.8014
 -15913483.48047 -12387029.88744  22958743.5474                   22958743.8164
 11  7 25  2 35  0.0000000  0  8G02G17G05G12G04G10G09G25
 -20377845.14148 -15860994.42646  20498557.8444                   20498552.4804
   2913921.05946   2300156.07044  23743334.3594                   23743331.6484
 -22302072.12148 -17363098.41846  21089437.4924                   21089434.3094
 -21807411.43748 -16978783.07446  20761947.4384                   20761943.2624
  -7685626.23847  -5889935.55945  22320485.2814                   22320482.9454
 -19134029.80947 -14894581.38746  20876404.5314                   20876400.9534
   4130512.81647   3223354.69543  24534326.3524                   24534325.7854
 -15958083.79347 -12421783.27345  22950256.5474                   22950256.1914
 11  7 25  2 35 30.0000000  0  8G02G17G05G12G04G10G09G25
 -20324078.03948 -15819097.95746  20508789.0864                   20508784.0474
   3019855.34846   2382702.30944  23763492.5864                   23763489.9024
 -22333308.65648 -17387438.53546  21083493.3754                   21083490.4414
 -21795329.84448 -16969368.81646  20764246.1884                   20764242.1174
  -7563722.89147  -5794945.92245  22343683.1724                   22343680.0124
 -19064537.66048 -14840431.63746  20889628.3054                   20889625.2424
   4255429.82446   3320692.58243  24558096.3674                   24558097.4924
 -16002342.28947 -12456270.31344  22941834.3444                   22941833.3594
 11  7 25  2 36  0.0000000  0  8G02G17G05G12G04G10G09G25
 -20270055.96948 -15777002.81346  20519069.3674                   20519063.7504
   3125982.86346   2465399.08244  23783686.9844                   23783685.5744
 -22364085.75448 -17411420.62946  21077636.4454                   21077632.9924
 -21782681.09048 -16959512.61746  20766653.0164                   20766649.4264
  -7441743.77347  -5699897.25045  22366894.9844                   22366891.9534
 -18994416.77047 -14785791.96546  20902972.1024                   20902968.9884
   4380334.04746   3418020.43443  24581864.7344                   24581866.3364
 -16046247.68447 -12490482.19545  22933479.6334                   22933479.2194
 11  7 25  2 36 30.0000000  0  8G02G17G05G12G04G10G09G25
 -20215787.53948 -15734715.70746  20529395.9534                   20529390.9414
   3232296.30546   2548240.71544  23803918.3754                   23803916.0744
 -22394408.91448 -17435049.03546  21071865.9844                   21071862.8874
 -21769471.34448 -16949219.28146  20769166.6884                   20769163.1414
  -7319697.89147  -5604796.53545  22390119.5474                   22390116.4694
 -18923675.83247 -14730669.15646  20916433.8984                   20916430.7894
   4505214.67646   3515329.88743  24605628.6094                   24605631.0864
 -16089804.97747 -12524422.83245  22925190.3134                   22925190.3634
 11  7 25  2 37  0.0000000  0  8G02G17G05G12G04G10G09G25
 -20161278.33648 -15692240.98846  20539769.1884                   20539763.3014
   3338791.54346   2631223.97344  23824184.1884                   23824181.8794
 -22424279.77048 -17458324.97746  21066181.8054                   21066178.6374
 -21755703.92248 -16938491.39546  20771786.7034                   20771783.3594
  -7197590.82447  -5509648.16445  22413355.6174                   22413352.6134
 -18852320.12547 -14675067.30946  20930012.1174                   20930008.8204
   4630064.44545   3612615.29343  24629387.0394                   24629389.1254
 -16133015.77347 -12558093.46945  22916967.7194                   22916967.7424
 11  7 25  2 37 30.0000000  0  8G02G17G05G12G04G10G09G25
 -20106525.32048 -15649576.27746  20550188.3524                   20550182.8094
   3445472.53946   2714352.02344  23844484.4844                   23844482.0004
 -22453691.73448 -17481243.34446  21060584.8054                   21060581.9534
 -21741373.55148 -16927324.84846  20774513.6414                   20774509.8484
  -7075420.27347  -5414450.31645  22436603.5784                   22436600.8324
 -18780347.07447 -14618984.39846  20943708.3204                   20943705.0784
   4754884.37545   3709877.35242  24653139.8134                   24653141.2734
 -16175873.43047 -12591488.89845  22908811.5634                   22908812.0044
 11  7 25  2 38  0.0000000  0  8G02G17G05G12G04G10G09G25
 -20051526.57848 -15606720.09446  20560654.1094                   20560648.4884
   3552342.62946   2797627.44544  23864822.3134                   23864819.0274
 -22482639.57848 -17503800.06246  21055076.2974                   21055073.1374
 -21726475.56248 -16915716.00846  20777349.1024                   20777345.1214
  -6953184.47347  -5319201.64544  22459864.3674                   22459861.8594
 -18707754.98448 -14562419.12546  20957521.6954                   20957518.7544
   4879674.49246   3807116.31643  24676886.4064                   24676887.8914
 -16218372.18447 -12624604.66445  22900724.5314                   22900724.6844
 11  7 25  2 38 30.0000000  0  8G02G17G05G12G04G10G09G25
 -19996290.42248 -15563678.91446  20571165.2424                   20571159.5824
   3659395.12446   2881044.94344  23885192.7664                   23885190.7584
 -22511128.29748 -17525999.02346  21049655.1484                   21049651.9964
 -21711015.85248 -16903669.44946  20780290.5784                   20780286.5784
  -6830891.70347  -5223908.58244  22483135.9614                   22483133.5864
 -18634551.93448 -14505377.78546  20971451.9534                   20971448.9344
   5004424.68446   3904324.15243  24700626.1334                   24700627.0474
 -16260516.41847 -12657444.21545  22892704.6484                   22892704.5004
 11  7 25  2 39  0.0000000  0  8G02G17G05G12G04G10G09G25
 -19940817.08648 -15520452.91046  20581721.4694                   20581715.6484
   3766630.70346   2964605.13744  23905599.7034                   23905596.5744
 -22539154.97748 -17547837.96546  21044321.7344                   21044318.7934
 -21694993.00048 -16891184.08646  20783339.5784                   20783335.7504
  -6708542.98847  -5128571.91844  22506418.1804                   22506415.4414
 -18560738.84448 -14447861.08646  20985498.0554                   20985494.9614
   5129132.56647   4001499.08643  24724357.6804                   24724357.8554
 -16302303.07047 -12690005.12145  22884753.0864                   22884752.3754
 11  7 25  2 39 30.0000000  0  8G02G17G05G12G04G10G09G25
 -19885103.69148 -15477039.85246  20592323.3524                   20592317.8324
   3874053.44546   3048311.22744  23926041.8754                   23926039.3754
 -22566713.08648 -17569311.75846  21039077.7194                   21039074.4344
 -21678401.34048 -16878255.50046  20786496.7274                   20786493.1214
  -6586135.59847  -5033189.53944  22529711.4384                   22529709.3244
 -18486312.83648 -14389866.78146  20999661.0474                   20999657.9694
   5253799.35546   4098641.99643  24748080.8674                   24748080.5944
 -16343725.34447 -12722282.13345  22876870.3984                   22876869.2114
 11  7 25  2 40  0.0000000  0  8G02G17G05G12G04G10G09G25
 -19829157.55948 -15433445.43846  20602969.6024                   20602963.8914
   3981657.55946   3132158.60944  23946517.4064                   23946514.9414
 -22593806.54748 -17590423.51646  21033921.7504                   21033918.3324
 -21661246.11748 -16864887.77746  20789761.5944                   20789757.6374
  -6463677.03947  -4937767.28144  22553014.5314                   22553012.0944
 -18411281.27348 -14331400.61746  21013938.9534                   21013935.9304
   5378415.79347   4195745.69943  24771794.5474                   24771794.6294
 -16384786.86347 -12754278.03545  22869056.6254                   22869056.3284
 11  7 25  2 40 30.0000000  0  8G02G17G05G12G04G10G09G25
 -19772974.05548 -15389666.06346  20613660.8364                   20613655.2934
   4089448.91446   3216151.89844  23967029.8364                   23967026.7894
 -22620427.41048 -17611167.01246  21028855.7274                   21028852.8444
 -21643519.85248 -16851075.07846  20793134.4384                   20793130.5204
  -6341162.99247  -4842301.77744  22576328.1094                   22576325.9304
 -18335639.73847 -14272459.15646  21028333.2664                   21028329.9304
   5502985.07846   4292812.68443  24795498.8914                   24795499.6804
 -16425479.04347 -12785986.16445  22861312.7974                   22861312.5824
 11  7 25  2 41  0.0000000  0  7G02G17G05G12G04G10G25
 -19716550.76248 -15345699.83246  20624397.6954                   20624392.1524
   4197430.95746   3300293.75444  23987578.0314                   23987575.1764
 -22646570.16048 -17631537.94146  21023881.0784                   21023877.8134
 -21625218.63348 -16836814.37146  20796617.0864                   20796613.2424
  -6218591.14847  -4746791.26644  22599652.3914                   22599650.3954
 -18259386.26248 -14213040.84045  21042843.4924                   21042840.9264
 -16465795.97747 -12817401.87145  22853641.1644                   22853640.5664
 11  7 25  2 41 30.0000000  0  7G02G17G05G12G04G10G25
 -19659900.61748 -15301556.84046  20635177.9224                   20635172.1914
   4305592.26246   3384575.30544  24008160.3914                   24008157.7234
 -22672244.17248 -17651543.62546  21018995.6024                   21018992.2584
 -21606352.68748 -16822113.61346  20800207.0234                   20800203.3284
  -6095974.78147  -4651246.04744  22622985.9614                   22622982.8634
 -18182533.90648 -14153155.87946  21057468.3524                   21057465.3094
 -16505746.77047 -12848532.29345  22846038.3754                   22846038.0164
 11  7 25  2 42  0.0000000  0  7G02G17G05G12G04G10G25
 -19603012.18048 -15257228.16446  20646003.2734                   20645997.7934
   4413945.69946   3469006.57844  24028779.8594                   24028776.5234
 -22697434.73848 -17671172.60546  21014201.9844                   21014198.9574
 -21586908.57848 -16806962.34446  20803907.1174                   20803903.3554
  -5973302.59447  -4555657.30944  22646329.6644                   22646327.0744
 -18105071.61747 -14092795.65246  21072208.8284                   21072205.4414
 -16545316.25847 -12879365.58645  22838508.5394                   22838508.6134
 11  7 25  2 42 30.0000000  0  7G02G17G05G12G04G10G25
 -19545889.10548 -15212716.65246  20656873.5314                   20656867.9494
   4522488.50846   3553585.33244  24049433.9534                   24049431.0434
 -22722142.51248 -17690425.38346  21009500.1564                   21009496.8014
 -21566887.96148 -16791361.84846  20807717.2344                   20807713.0984
  -5850578.75047  -4460028.34844  22669683.2274                   22669680.5394
 -18027003.31247 -14031963.20346  21087064.6334                   21087061.6604
 -16584504.50447 -12909901.84045  22831051.5164                   22831051.2894
 11  7 25  2 43  0.0000000  0  7G02G17G05G12G04G10G25
 -19488535.24648 -15168025.32046  20667787.4454                   20667782.1604
   4631217.93046   3638309.55943  24070125.2584                   24070121.9024
 -22746367.85548 -17709302.23846  21004890.1024                   21004887.2424
 -21546292.18748 -16775313.18446  20811636.3054                   20811632.5864
  -5727807.22747  -4364362.21944  22693045.8284                   22693043.4344
 -17948333.34048 -13970661.90646  21102035.1484                   21102031.8444
 -16623311.63347 -12940141.11745  22823666.6884                   22823666.6914
 11  7 25  2 43 30.0000000  0  7G02G17G05G12G04G10G25
 -19430951.38748 -15123154.75046  20678745.3984                   20678740.2114
   4740134.62946   3723179.75043  24090851.3984                   24090847.9454
 -22770108.27348 -17727801.23046  21000372.5084                   21000369.3834
 -21525120.08648 -16758815.41446  20815665.4614                   20815661.6884
  -5604988.98447  -4268659.70344  22716417.3754                   22716414.8634
 -17869062.78548 -13908892.62946  21117119.7664                   21117116.7424
 -16661734.68947 -12970081.12545  22816354.2734                   22816354.2814
 11  7 25  2 44  0.0000000  0  7G02G17G05G12G04G10G25
 -19373132.74248 -15078101.23846  20689748.0234                   20689742.2544
   4849244.49646   3808200.39143  24111613.4224                   24111611.6054
 -22793355.83648 -17745916.18446  20995948.5864                   20995945.7384
 -21503364.88348 -16741863.29346  20819805.0234                   20819801.1174
  -5482119.31647  -4172917.10544  22739798.8204                   22739796.7114
 -17789187.07848 -13846651.80546  21132319.6174                   21132316.2854
 -16699765.28147 -12999715.30945  22809117.9384                   22809116.8984
 11  7 25  2 44 30.0000000  0  7G02G17G05G12G04G10G25
 -19315083.87948 -15032868.34046  20700794.2194                   20700788.5514
   4958544.28546   3893369.10243  24132413.3594                   24132409.1054
 -22816111.80148 -17763648.05946  20991618.5084                   20991614.9694
 -21481029.00048 -16724458.69146  20824055.3984                   20824051.5394
  -5359203.06347  -4077138.19544  22763188.8834                   22763186.3484
 -17708711.62948 -13783943.64546  21147633.7504                   21147630.3014
 -16737404.32047 -13029044.40245  22801955.4844                   22801954.7074
 11  7 25  2 45  0.0000000  0  7G02G17G05G12G04G10G25
 -19256807.38348 -14987458.06346  20711884.2814                   20711878.0594
   5068032.22346   3978684.42243  24153247.7894                   24153245.1524
 -22838375.55948 -17780996.39846  20987381.8204                   20987378.2664
 -21458113.05148 -16706602.10246  20828416.0944                   20828412.2624
  -5236242.98047  -3981325.14144  22786587.6094                   22786585.2734
 -17627639.29347 -13720770.37545  21163060.9694                   21163057.6094
 -16774650.69147 -13058067.52045  22794867.6884                   22794867.4574
 11  7 25  2 45 30.0000000  0  7G02G17G05G12G04G10G25
 -19198311.02348 -14941876.46546  20723015.5864                   20723009.4614
   5177702.02046   4064141.36743  24174116.8204                   24174113.9964
 -22860152.18048 -17797965.16046  20983237.5004                   20983234.5514
 -21434622.95348 -16688298.10946  20832886.2274                   20832882.3834
  -5113247.27047  -3885484.34444  22809992.8674                   22809990.3674
 -17545978.51247 -13657138.57446  21178600.5164                   21178597.4304
 -16811508.61347 -13086787.93445  22787853.9064                   22787853.3134
 11  7 25  2 46  0.0000000  0  7G02G17G05G12G04G10G25
 -19139591.00448 -14896120.57846  20734189.2894                   20734183.7034
   5287558.34446   4149743.70343  24195021.6174                   24195019.5824
 -22881434.60948 -17814548.82846  20979187.7734                   20979184.1024
 -21410553.00048 -16669542.28146  20837466.5394                   20837462.8554
  -4990212.43047  -3789613.01244  22833405.4614                   22833402.2934
 -17463725.94548 -13593045.64846  21194252.4304                   21194249.4774
 -16847970.91847 -13115200.06345  22780915.1884                   22780915.2194
 11  7 25  2 46 30.0000000  0  7G02G17G05G12G04G10G25
 -19080648.57448 -14850191.40646  20745405.6724                   20745399.8754
   5397601.86346   4235491.89843  24215961.9144                   24215960.0474
 -22902220.74248 -17830745.78546  20975232.0234                   20975228.5984
 -21385901.95348 -16650333.65646  20842157.8204                   20842153.3324
  -4867139.11747  -3693711.74644  22856825.7424                   22856822.8284
 -17380883.23048 -13528492.87546  21210017.1954                   21210013.9224
 -16884034.67647 -13143301.65645  22774052.5004                   22774051.8364
 11  7 25  2 47  0.0000000  0  7G02G17G05G12G04G10G25
 -19021482.63348 -14804088.05946  20756664.5864                   20756658.7624
   5507834.04746   4321387.08643  24236940.4144                   24236936.6844
 -22922506.65648 -17846552.94146  20971371.7504                   20971368.3364
 -21360666.73848 -16630669.82846  20846959.6564                   20846955.7504
  -4744026.98047  -3597780.19144  22880252.9694                   22880250.2814
 -17297450.05548 -13463480.00845  21225893.9774                   21225891.0164
 -16919695.52747 -13171089.27745  22767266.1884                   22767266.2274
 11  7 25  2 47 30.0000000  0  7G02G17G05G12G04G10G25
 -18962100.82048 -14757816.50446  20767964.8134                   20767959.2814
   5618248.70346   4407424.46943  24257950.4614                   24257947.7894
 -22942296.66048 -17861973.69146  20967606.0784                   20967602.6914
 -21334853.37148 -16610555.50446  20851871.4534                   20851867.6454
  -4620883.60547  -3501824.32044  22903686.5864                   22903683.7384
 -17213434.57448 -13398013.38745  21241881.6094                   21241878.4844
 -16954957.23447 -13198565.90645  22760556.1884                   22760555.5944
 11  7 25  2 48  0.0000000  0  7G02G17G05G12G04G10G25
 -18902503.53548 -14711377.03946  20779305.5634                   20779300.2934
   5728846.41046   4493604.50043  24278997.0554                   24278993.8714
 -22961588.32448 -17877006.12146  20963934.8524                   20963931.8524
 -21308460.69948 -16589989.75846  20856893.5234                   20856890.3984
  -4497709.62147  -3405844.60544  22927126.1954                   22927122.9654
 -17128837.91048 -13332093.90646  21257979.3134                   21257976.5634
 -16989816.86747 -13225729.18845  22753922.7974                   22753922.6054
 11  7 25  2 48 30.0000000  0  7G02G17G05G12G04G10G25
 -18842691.37148 -14664770.14146  20790687.4694                   20790682.0944
   5839627.85546   4579927.68443  24300077.4844                   24300074.7734
 -22980379.07048 -17891648.22346  20960359.1724                   20960355.7734
 -21281487.34448 -16568971.55146  20862026.8364                   20862022.9694
  -4374505.80947  -3309841.62944  22950570.5864                   22950568.0784
 -17043661.14847 -13265722.38346  21274188.2664                   21274185.4184
 -17024271.37147 -13252576.82845  22747366.3284                   22747365.7854
 11  7 25  2 49  0.0000000  0  7G02G17G05G12G04G10G25
 -18782661.76648 -14617993.80546  20802110.5864                   20802105.4344
   5950596.68746   4666396.94544  24321194.4844                   24321190.8714
 -22998663.26648 -17905895.60546  20956879.5234                   20956876.3634
 -21253928.68448 -16547497.24646  20867271.1644                   20867267.6374
  -4251269.63347  -3213813.43844  22974021.6254                   22974019.0124
 -16957902.60547 -13198897.53546  21290507.7664                   21290504.5354
 -17058314.59447 -13279103.96145  22740888.0554                   22740887.6604
 11  7 25  2 49 30.0000000  0  7G02G17G05G12G04G10G25
 -18722427.69948 -14571058.14546  20813572.7034                   20813567.2344
   6061740.99247   4753002.85244  24342344.9614                   24342341.7464
 -23016451.12548 -17919756.23846  20953494.7424                   20953491.2814
 -21225795.89148 -16525575.58246  20872624.5864                   20872621.1414
  -4128014.14547  -3117770.19544  22997476.3984                   22997474.6454
 -16871575.76648 -13131629.84445  21306935.1334                   21306931.6414
 -17091955.94547 -13305317.94945  22734485.6564                   22734485.6994
 11  7 25  2 50  0.0000000  0  7G02G17G05G12G04G10G25
 -18661976.03148 -14523952.93846  20825076.2584                   20825071.0394
   6173074.68047   4839756.40644  24363529.6564                   24363527.3674
 -23033726.57848 -17933217.58646  20950207.3594                   20950204.0434
 -21197074.20748 -16503195.03946  20878089.9924                   20878086.2074
  -4004726.39847  -3021701.83244  23020936.8754                   23020934.5044
 -16784668.32047 -13063909.74245  21323472.7894                   21323470.1564
 -17125178.78547 -13331205.79745  22728163.7344                   22728163.7854
 11  7 25  2 50 30.0000000  0  8G02G17G05G12G04G10G29G25
 -18601310.46148 -14476681.03946  20836620.3134                   20836615.1724
   6284595.53146   4926655.79744  24384752.2344                   24384749.4964
 -23050489.80548 -17946279.80146  20947017.1334                   20947013.9964
 -21167765.39548 -16480356.99246  20883667.1884                   20883663.4924
  -3881410.30547  -2925611.39144  23044404.0394                   23044400.9104
 -16697184.66847 -12995740.65246  21340120.4844                   21340117.2074
 -11100712.81356  -8641017.92653  24746666.6644                   24746667.1094
 -17157983.20347 -13356767.61745  22721921.1334                   22721921.2074
 11  7 25  2 51  0.0000000  0  8G02G17G05G12G04G10G29G25
 -18540444.25048 -14429252.81646  20848203.2584                   20848197.4454
   6396291.36747   5013691.48844  24406006.9694                   24406004.0824
 -23066751.62548 -17958951.31246  20943922.7894                   20943918.7424
 -21137881.05948 -16457070.47346  20889354.0864                   20889350.0434
  -3758079.00047  -2829509.05144  23067872.9144                   23067870.5474
 -16609138.88347 -12927133.53945  21356875.1884                   21356871.7304
 -11140666.11346  -8672150.24243  24739064.2734                   24739063.6994
 -17190379.00047 -13382011.03145  22715756.7424                   22715755.9614
 11  7 25  2 51 30.0000000  0  8G02G17G05G12G04G10G29G25
 -18479372.86748 -14381664.71546  20859824.4224                   20859818.7854
   6508167.42646   5100867.63744  24427296.7344                   24427293.9924
 -23082504.64148 -17971226.35546  20940925.1414                   20940921.6764
 -21107415.29748 -16433330.91446  20895151.4304                   20895147.6564
  -3634728.29747  -2733391.62144  23091345.5314                   23091342.8524
 -16520527.34047 -12858085.57045  21373737.3284                   21373734.2704
 -11180684.07046  -8703333.02743  24731447.8674                   24731447.7544
 -17222358.32447 -13406929.92645  22709671.6024                   22709670.3444
 11  7 25  2 52  0.0000000  0  8G02G17G05G12G04G10G29G25
 -18418102.17648 -14333921.30146  20871483.6954                   20871478.1844
   6620219.12946   5188180.68044  24448619.1254                   24448616.3094
 -23097751.98848 -17983107.37146  20938023.5004                   20938020.2934
 -21076372.12548 -16409141.41046  20901059.0234                   20901054.9494
  -3511364.07047  -2637263.66844  23114821.1414                   23114818.6094
 -16431356.35547 -12788601.67645  21390706.0004                   21390702.7424
 -11220770.85246  -8734569.31643  24723818.8524                   24723820.2344
 -17253923.26247 -13431525.91445  22703664.7344                   22703663.4304
 11  7 25  2 52 30.0000000  0  8G02G17G05G12G04G10G29G25
 -18356624.33248 -14286016.47746  20883182.8134                   20883177.1294
   6732455.33647   5275637.43744  24469976.8444                   24469974.2974
 -23112482.73848 -17994585.84046  20935220.5784                   20935216.7664
 -21044741.87148 -16384494.45346  20907078.0704                   20907074.1134
  -3387978.53947  -2541119.10944  23138300.3834                   23138298.0124
 -16341619.17647 -12718676.59445  21407782.4304                   21407779.5704
 -11260916.82446  -8765851.75043  24716179.4224                   24716179.8364
 -17285062.57447 -13455790.24245  22697738.8524                   22697738.2424
 11  7 25  2 53  0.0000000  0  8G02G17G05G12G04G10G29G25
 -18294946.70348 -14237955.96946  20894919.8914                   20894914.2734
   6844869.50047   5363232.88744  24491369.1564                   24491365.9614
 -23126701.29348 -18005665.20746  20932514.6094                   20932511.1484
 -21012530.68048 -16359394.80546  20913207.4844                   20913203.7584
  -3264578.98847  -2444963.64544  23161783.0704                   23161780.4104
 -16251324.25447 -12648316.91045  21424965.0554                   21424961.6914
 -11301128.10546  -8797185.05943  24708528.5864                   24708526.8014
 -17315780.32447 -13479726.10545  22691893.5394                   22691892.8404
 11  7 25  2 53 30.0000000  0  8G02G17G05G12G04G10G29G25
 -19808485.60548 -15417336.91846  20606902.7664                   20606897.2274
   5382048.61346   4223372.44144  24213003.6724                   24213000.9384
 -24715823.89148 -19243942.52746  20630114.5084                   20630111.3284
 -22555153.67248 -17561438.67646  20619655.9064                   20619652.0984
  -4716579.98047  -3576393.00444  22885476.0234                   22885473.6334
 -17735887.41848 -13805119.36345  21142461.9774                   21142459.1374
 -12916822.23446 -10056167.35943  24401072.4534                   24401071.3444
 -18921492.12947 -14730930.05145  22386335.9144                   22386335.4574
 11  7 25  2 54  0.0000000  0  8G02G17G05G12G04G10G29G25
 -19746402.68448 -15368960.59446  20618716.6644                   20618711.2384
   5494828.10546   4311252.56643  24234464.5084                   24234461.7894
 -24729004.01648 -19254212.71946  20627606.5314                   20627602.9104
 -22521769.37148 -17535424.92646  20626008.8754                   20626005.0944
  -4593146.98047  -3480211.44544  22908963.8524                   22908961.8834
 -17644473.35247 -13733887.61345  21159857.4924                   21159854.6524
 -12957152.64146 -10087593.49643  24393397.5554                   24393396.1374
 -18951350.16847 -14754195.98045  22380654.7344                   22380654.1884
 11  7 25  2 54 30.0000000  0  8G02G17G05G12G04G10G29G25
 -19684126.58648 -15320433.75446  20630567.7734                   20630562.0164
   5607782.14146   4399268.72343  24255959.1334                   24255956.0434
 -24741670.22748 -19264082.45346  20625196.3674                   20625192.9144
 -22487805.85248 -17508959.83646  20632471.9534                   20632468.0084
  -4469706.87147  -3384024.34044  22932454.3754                   22932451.7154
 -17552510.45747 -13662228.20745  21177357.6484                   21177353.9924
 -12997549.97346 -10119071.82843  24385709.7974                   24385708.8094
 -18980782.58647 -14777130.28545  22375054.5944                   22375053.5594
 11  7 25  2 55  0.0000000  0  8G02G17G05G12G04G10G29G25
 -19621643.38348 -15271745.51246  20642457.7974                   20642452.5434
   5720925.57846   4487432.41443  24277489.2974                   24277486.5394
 -24753806.23448 -19273539.04746  20622887.0554                   20622882.9694
 -22453247.75448 -17482031.43046  20639048.0234                   20639043.8754
  -4346245.94147  -3287821.00444  22955948.3054                   22955945.2234
 -17459986.36348 -13590131.49245  21194964.2814                   21194960.8954
 -13037998.91046 -10150590.33443  24378012.5704                   24378012.8914
 -19009772.51647 -14799719.77745  22369537.0864                   22369536.6134
 11  7 25  2 55 30.0000000  0  8G02G17G05G12G04G10G29G25
 -19558962.81648 -15222903.51646  20654385.3134                   20654379.7154
   5834249.52346   4575736.74243  24299053.7424                   24299051.4414
 -24765419.30548 -19282588.16446  20620676.9534                   20620673.8554
 -22418103.60948 -17454646.36346  20645735.7504                   20645732.2304
  -4222774.02746  -3191609.15244  22979443.6644                   22979441.6094
 -17366911.80947 -13517605.83646  21212675.7034                   21212672.6564
 -13078507.42246 -10182155.26243  24370304.4694                   24370303.8554
 -19038326.25847 -14821969.40245  22364103.4224                   22364102.6724
 11  7 25  2 56  0.0000000  0  8G02G17G05G12G04G10G29G25
 -19496081.92248 -15173905.40246  20666351.3284                   20666345.6174
   5947758.16046   4664184.98443  24320653.6024                   24320651.4384
 -24776503.32048 -19291225.03546  20618567.5004                   20618564.4534
 -22382368.88348 -17426801.10546  20652535.5944                   20652532.1254
  -4099287.69147  -3095386.05944  23002943.3674                   23002939.9534
 -17273284.68747 -13444649.62945  21230492.3594                   21230488.9144
 -13119070.46547 -10213762.80543  24362585.5944                   24362584.0864
 -19066437.06647 -14843873.89145  22358754.4534                   22358753.1294
 11  7 25  2 56 30.0000000  0  8G02G17G05G12G04G10G29G25
 -19433004.41448 -15124754.07846  20678354.4534                   20678349.0354
   6061448.71545   4752775.04343  24342287.5864                   24342286.6334
 -24787059.20748 -19299450.37146  20616558.8594                   20616555.3524
 -22346045.55948 -17398497.20746  20659447.5864                   20659444.1724
  -3975790.94546  -2999154.85944  23026443.1804                   23026440.9774
 -17179109.11347 -13371266.04745  21248413.6024                   21248410.1054
 -13159690.54746 -10245414.73044  24354854.3364                   24354854.8364
 -19094105.29747 -14865433.49645  22353489.0864                   22353488.7504
 11  7 25  2 57  0.0000000  0  8G02G17G05G12G04G10G29G25
 -19369736.02348 -15075454.02046  20690394.1484                   20690388.4774
   6175316.34445   4841503.04743  24363956.7814                   24363954.7974
 -24797090.13748 -19307266.64546  20614650.1484                   20614646.5314
 -22309138.25848 -17369738.25446  20666471.1094                   20666467.0234
  -3852289.52747  -2902919.99644  23049944.6724                   23049942.5704
 -17084392.14847 -13297460.62145  21266437.4844                   21266434.1844
 -13200371.55946 -10277114.16843  24347114.0394                   24347112.6764
 -19121333.47347 -14886650.22345  22348307.0704                   22348306.7704
 11  7 25  2 57 30.0000000  0  8G02G17G05G12G04G10G29G25
 -19306273.49648 -15026002.67646  20702470.3364                   20702464.9844
   6289365.16845   4930372.29342  24385658.7734                   24385657.5824
 -24806590.51648 -19314669.50846  20612841.9614                   20612838.6294
 -22271642.38348 -17340520.67646  20673606.3204                   20673602.4844
  -3728780.21947  -2806679.00444  23073448.7194                   23073445.6684
 -16989131.85547 -13223231.80545  21284565.1804                   21284562.0784
 -13241108.60746 -10308857.29643  24339362.0234                   24339360.5234
 -19148115.07047 -14907518.95345  22343211.1254                   22343210.4344
 11  7 25  2 58  0.0000000  0  8G02G17G05G12G04G10G29G25
 -19242630.57448 -14976410.74646  20714581.2734                   20714576.1414
   6403581.95346   5019372.40243  24407395.2274                   24407391.8244
 -24815571.30948 -19321667.50046  20611133.0394                   20611129.4574
 -22233570.21548 -17310854.04346  20680851.2504                   20680847.5274
  -3605276.84047  -2710442.62944  23096950.4924                   23096947.8244
 -16893343.15647 -13148591.24645  21302792.6724                   21302789.7304
 -13281913.82446 -10340653.55543  24331596.8444                   24331596.6214
 -19174460.44148 -14928047.74645  22338197.8754                   22338197.5044
 11  7 25  2 58 30.0000000  0  8G02G17G05G12G04G10G29G25
 -19178791.14848 -14926665.71146  20726729.3914                   20726724.2384
   6517984.12545   5108516.97343  24429163.4924                   24429161.5634
 -24824013.92648 -19328246.12946  20609526.6564                   20609522.8634
 -22194904.53548 -17280724.93046  20688209.0084                   20688205.0824
  -3481763.18747  -2614198.24244  23120454.3594                   23120451.6644
 -16797010.71547 -13073526.99645  21321124.4144                   21321120.9534
 -13322769.40246 -10372489.10943  24323822.0394                   24323821.1604
 -19200350.11748 -14948221.44145  22333271.3134                   22333270.8204
 11  7 25  2 59  0.0000000  0  8G02G17G05G12G04G10G29G25
 -19114759.46148 -14876770.86346  20738914.1954                   20738908.8134
   6632568.44545   5197803.44543  24450968.8444                   24450966.5354
 -24831919.89148 -19334406.59446  20608021.9614                   20608018.4064
 -22155647.73448 -17250135.19946  20695679.6174                   20695675.7464
  -3358243.47347  -2517949.11344  23143958.8674                   23143956.8364
 -16700140.13747 -12998043.41845  21339557.9844                   21339554.5474
 -13363678.01246 -10404365.93043  24316037.9304                   24316036.0394
 -19225785.09847 -14968040.84445  22328431.1724                   22328430.2624
 11  7 25  2 59 30.0000000  0  7G02G05G12G04G10G29G25
 -19050545.74648 -14826734.19546  20751133.5164                   20751127.9654
 -24839297.19948 -19340155.11346  20606618.2274                   20606614.5864
 -22115809.81648 -17219092.66446  20703260.2194                   20703256.5904
  -3234728.08647  -2421703.35944  23167463.1564                   23167460.3554
 -16602742.72747 -12922149.31645  21358092.4614                   21358088.9574
 -13404648.00046 -10436290.60243  24308241.4304                   24308240.8204
 -19250772.47747 -14987511.46145  22323675.7114                   22323675.5474
 11  7 25  3  0  0.0000000  0  7G02G05G12G04G10G29G25
 -18986140.31648 -14776548.12146  20763390.0864                   20763384.0514
 -24846133.31248 -19345481.92646  20605317.0634                   20605313.8444
 -22075379.43748 -17187588.45746  20710953.6884                   20710950.0314
  -3111207.13747  -2325453.30944  23190968.6884                   23190965.6684
 -16504809.95747 -12845838.06645  21376728.0944                   21376724.9304
 -13445668.12146 -10468254.27343  24300434.4614                   24300434.6294
 -19275299.05147 -15006623.00845  22319008.8594                   22319008.0004
 11  7 25  3  0 30.0000000  0  7G02G05G12G04G10G29G25
 -18921548.84448 -14726217.09046  20775680.9384                   20775675.5704
 -24852431.91848 -19350389.90246  20604118.5004                   20604115.3244
 -22034361.40248 -17155626.34846  20718759.5164                   20718755.8404
  -2987686.25847  -2229203.25844  23214473.3054                   23214471.5944
 -16406349.19947 -12769115.40245  21395465.0084                   21395461.4384
 -13486742.64546 -10500260.36743  24292619.1954                   24292618.1684
 -19299367.48047 -15025377.57445  22314428.4924                   22314428.0204
 11  7 25  3  1  0.0000000  0  7G02G05G12G04G10G29G25
 -18856771.96548 -14675741.57046  20788007.6884                   20788002.2544
 -24858191.09448 -19354877.55546  20603022.5784                   20603019.2194
 -21992754.74248 -17123205.56646  20726677.1174                   20726673.5354
  -2864166.10947  -2132953.80944  23237979.0634                   23237977.1884
 -16307361.62147 -12691982.21545  21414301.5634                   21414298.3954
 -13527869.98846 -10532307.55943  24284792.8444                   24284792.5744
 -19322975.04747 -15043773.00045  22309936.0394                   22309935.2544
 11  7 25  3  1 30.0000000  0  7G02G05G12G04G10G29G25
 -18791805.68448 -14625118.47346  20800370.1804                   20800364.6214
 -24863404.43748 -19358939.87546  20602030.6254                   20602027.1254
 -21950554.48448 -17090322.24246  20734707.3134                   20734703.4804
  -2740642.74647  -2036701.83244  23261484.7114                   23261481.9494
 -16207844.62147 -12614436.50045  21433238.7504                   21433235.4264
 -13569044.48046 -10564391.47343  24276957.7194                   24276956.5434
 -19346114.64548 -15061803.78945  22305532.8984                   22305532.2464
 11  7 25  3  2  0.0000000  0  7G02G05G12G04G10G29G25
 -18726668.34048 -14574362.08246  20812765.4454                   20812759.8404
 -24868087.83248 -19362589.24646  20601139.3524                   20601135.7034
 -21907777.72748 -17056989.69546  20742847.5634                   20742844.0434
  -2617134.28147  -1940461.47344  23284987.5314                   23284985.2344
 -16107818.03147 -12536493.70745  21452273.4144                   21452269.9844
 -13610282.97746 -10596525.27343  24269110.1094                   24269108.8324
 -19368801.37947 -15079481.70345  22301215.7034                   22301214.9804
 11  7 25  3  2 30.0000000  0  7G02G05G12G04G10G29G25
 -18661337.08648 -14523454.60546  20825197.5084                   20825191.8324
 -24872216.15248 -19365806.09046  20600353.5084                   20600350.2664
 -21864401.05548 -17023189.69546  20751101.7344                   20751097.8244
  -2493618.13347  -1844215.15644  23308492.2504                   23308488.9534
 -16007260.14147 -12458136.90645  21471408.9144                   21471405.7034
 -13651560.88746 -10628689.73443  24261255.6024                   24261254.1024
 -19391009.20347 -15096786.45345  22296989.4454                   22296988.3054
 11  7 25  3  3  0.0000000  0  7G02G05G12G04G10G29G25
 -18595822.77348 -14472404.47346  20837664.4454                   20837659.1684
 -24875797.59048 -19368596.80146  20599672.0784                   20599668.7114
 -21820434.07848 -16988929.70746  20759468.5394                   20759464.7584
  -2370104.85547  -1747971.03544  23331996.0864                   23331993.2424
 -15906182.85248 -12379375.38345  21490643.5784                   21490639.4104
 -13692887.45346 -10660892.10243  24253390.7034                   24253389.9654
 -19412745.82847 -15113724.00845  22292852.9774                   22292852.1914
 11  7 25  3  3 30.0000000  0  7G02G05G12G04G10G29G25
 -18530138.55548 -14421221.96946  20850163.7894                   20850158.5514
 -24878843.54748 -19370970.24646  20599092.6334                   20599088.9064
 -21775888.90248 -16954219.18046  20767944.8984                   20767941.4024
  -2246607.56647  -1651739.38744  23355496.4384                   23355493.6484
 -15804600.77347 -12300220.51245  21509973.2894                   21509970.2034
 -13734274.02346 -10693141.32443  24245515.1254                   24245514.9144
 -19434021.22347 -15130302.17245  22288804.4844                   22288803.7344
 11  7 25  3  4  0.0000000  0  7G02G05G12G04G10G29G25
 -18464276.27048 -14369900.70346  20862696.9614                   20862691.6214
 -24881343.35548 -19372918.11346  20598616.9844                   20598613.2934
 -21730756.50448 -16919051.07046  20776533.2814                   20776529.8204
  -2123118.17247  -1555513.87944  23378995.3834                   23378993.1054
 -15702507.40647 -12220667.23445  21529401.3364                   21529398.2344
 -13775710.55946 -10725429.41843  24237630.1094                   24237628.9534
 -19454824.15247 -15146512.20745  22284845.5084                   22284844.7274
 11  7 25  3  4 30.0000000  0  7G02G05G12G04G10G29G25
 -18398235.34048 -14318440.22346  20875264.0864                   20875258.4264
 -24883293.88348 -19374437.97746  20598245.5704                   20598242.0984
 -21685035.16048 -16883424.03146  20785233.6564                   20785230.3244
  -1999635.78147  -1459293.84044  23402493.5634                   23402491.3244
 -15599903.12947 -12140715.82845  21548925.8984                   21548922.9734
 -13817194.70346 -10757754.60543  24229735.7114                   24229733.9184
 -19475150.86348 -15162351.15245  22280977.7584                   22280976.8914
 11  7 25  3  5  0.0000000  0  7G02G05G12G04G10G29G25
 -18332020.41448 -14266844.17246  20887864.3594                   20887858.8524
 -24884697.86748 -19375531.96946  20597978.5164                   20597975.0634
 -21638728.68448 -16847341.06246  20794045.6414                   20794041.7734
  -1876165.27347  -1363083.06644  23425989.3594                   23425986.9694
 -15496794.51247 -12060371.44145  21568546.8134                   21568543.5394
 -13858730.06646 -10790119.72343  24221831.7344                   24221829.3754
 -19495003.19148 -15177820.44945  22277200.1484                   22277199.2734
 11  7 25  3  5 30.0000000  0  7G02G05G12G04G10G29G25
 -18265627.28148 -14215109.25846  20900498.6724                   20900493.0744
 -24885549.33248 -19376195.42646  20597816.3984                   20597812.7154
 -21591832.50448 -16810798.57046  20802969.7664                   20802966.0514
  -1752702.47747  -1266878.28543  23449484.2274                   23449480.5784
 -15393178.76647 -11979631.88745  21588264.5474                   21588261.1294
 -13900310.44546 -10822519.93743  24213918.6884                   24213916.3554
 -19514373.83248 -15192914.42245  22273513.6724                   22273512.8754
 11  7 25  3  6  0.0000000  0  7G02G05G12G04G10G29G25
 -18199064.57448 -14163242.20346  20913164.9224                   20913159.4574
 -24885854.53948 -19376433.21946  20597758.2734                   20597755.0044
 -21544354.28948 -16773802.55546  20812004.5164                   20812001.1054
  -1629255.80147  -1170686.09444  23472974.8524                   23472971.6374
 -15289065.78947 -11898504.87945  21608076.6414                   21608073.2304
 -13941942.69147 -10854960.56243  24205996.9224                   24205994.2854
 -19533268.50848 -15207637.51646  22269918.3594                   22269917.4414
 11  7 25  3  6 30.0000000  0  7G02G05G12G04G10G29G25
 -18132329.22348 -14111240.61746  20925864.3524                   20925858.9304
 -24885607.83248 -19376240.95347  20597805.0234                   20597801.6524
 -21496289.63748 -16736349.57046  20821151.0704                   20821147.0354
  -1505821.71146  -1074503.66843  23496462.5234                   23496460.1024
 -15184453.74647 -11816988.98845  21627983.5004                   21627980.1914
 -13983621.45346 -10887437.40644  24198064.4694                   24198064.0634
 -19551680.60548 -15221984.57446  22266414.3204                   22266413.8404
 11  7 25  3  7  0.0000000  0  7G02G05G12G04G10G29G25
 -18065425.57848 -14059107.89546  20938595.3754                   20938589.7274
 -24884811.51248 -19375620.41447  20597956.6334                   20597952.9494
 -21447642.40648 -16698442.62546  20830407.8754                   20830404.4384
  -1382404.61747   -978334.50044  23519948.5394                   23519946.3364
 -15079348.53147 -11735088.82045  21647984.5554                   21647980.9454
 -14025349.66047 -10919952.75844  24190124.9304                   24190124.0164
 -19569611.66847 -15235956.80545  22263002.1644                   22263002.0314
 11  7 25  3  7 30.0000000  0  7G02G05G12G04G10G29G25
 -17998350.42248 -14006841.53146  20951359.9224                   20951353.6174
 -24883460.77348 -19374567.86746  20598213.7504                   20598210.3204
 -21398408.98048 -16660078.91046  20839776.8364                   20839773.3834
  -1259001.50046   -882176.21144  23543431.1334                   23543429.8754
 -14973748.85547 -11652803.34845  21668079.3834                   21668075.8714
 -14067122.36346 -10952502.80544  24182175.6414                   24182174.5514
 -19587055.76248 -15249549.58245  22259682.3834                   22259681.8754
 11  7 25  3  8  0.0000000  0  7G02G05G12G04G10G29G25
 -17931115.80148 -13954450.90646  20964153.9774                   20964148.4144
 -24881565.62948 -19373091.09847  20598574.4774                   20598570.8634
 -21348600.37948 -16621266.99646  20849255.3054                   20849251.7774
  -1135624.28147   -786038.11344  23566909.3284                   23566907.0784
 -14867667.94547 -11570142.89845  21688265.9304                   21688262.6644
 -14108950.03946 -10985095.66444  24174215.5474                   24174214.8484
 -19604021.88748 -15262769.92645  22256454.4454                   22256453.2464
 11  7 25  3  8 30.0000000  0  7G02G05G12G04G10G29G25
 -17863719.03948 -13901933.94546  20976979.2734                   20976973.5824
 -24879121.02748 -19371186.18047  20599039.2814                   20599036.0124
 -21298213.44148 -16582004.43446  20858843.2034                   20858839.7464
  -1012270.02047   -689917.91843  23590383.2194                   23590380.8054
 -14761104.71947 -11487106.59845  21708544.0004                   21708540.5594
 -14150828.23446 -11017727.87544  24166246.4774                   24166245.7154
 -19620504.39848 -15275613.41845  22253317.7034                   22253316.7854
 11  7 25  3  9  0.0000000  0  7G02G05G12G04G10G29G25
 -17796154.73048 -13849286.41846  20989836.1094                   20989830.8714
 -24876120.02748 -19368847.70746  20599610.5474                   20599607.0044
 -21247242.11748 -16542286.51646  20868543.3364                   20868538.9654
   -888933.21547   -593811.33644  23613853.1094                   23613850.7704
 -14654055.07847 -11403691.28145  21728915.0234                   21728911.7814
 -14192749.34046 -11050393.52344  24158269.5634                   24158268.4104
 -19636494.83648 -15288073.48845  22250275.2424                   22250273.9454
 11  7 25  3  9 30.0000000  0  7G02G05G12G04G10G29G25
 -17728433.72348 -13796516.78546  21002723.1724                   21002717.8134
 -24872570.92648 -19366082.15247  20600285.7274                   20600282.2774
 -21195696.16848 -16502120.83246  20878352.0634                   20878348.0044
   -765624.92647   -497726.96544  23637318.2504                   23637316.2114
 -14546531.48847 -11319906.64545  21749376.1954                   21749372.9534
 -14234722.99246 -11083100.07443  24150281.6484                   24150280.4694
 -19652001.40648 -15300156.52046  22247323.9064                   22247323.3984
 11  7 25  3 10  0.0000000  0  7G02G05G12G04G10G29G25
 -17660543.21148 -13743615.07446  21015642.3134                   21015636.6604
 -24868459.24248 -19362878.21147  20601068.3134                   20601064.7624
 -21143562.79348 -16461497.41446  20888272.6484                   20888268.4494
   -642331.53147   -401654.15644  23660780.1094                   23660777.3204
 -14438522.68748 -11235743.92245  21769929.2194                   21769926.0314
 -14276734.18746 -11115835.93744  24142286.6414                   24142285.2424
 -19667008.14848 -15311850.05946  22244468.3524                   22244467.9694
 11  7 25  3 10 30.0000000  0  7G02G05G12G04G10G29G25
 -17592489.37148 -13690586.09446  21028592.4384                   21028586.5354
 -24863789.02348 -19359239.05547  20601956.8524                   20601953.3554
 -21090847.35248 -16420420.44546  20898304.1024                   20898300.2304
   -519059.35947   -305597.91044  23684238.0634                   23684235.6454
 -14330036.55147 -11151209.26245  21790574.1954                   21790570.5314
 -14318787.36346 -11148604.48843  24134284.1254                   24134282.5124
 -19681518.38348 -15323156.68746  22241707.2664                   22241705.9694
 11  7 25  3 11  0.0000000  0  7G02G05G12G04G10G29G25
 -17524278.15648 -13637434.48446  21041572.6484                   21041566.8674
 -24858564.86348 -19355168.25447  20602951.0084                   20602947.4884
 -21037555.42248 -16378894.25846  20908445.0944                   20908441.5474
   -395814.53946   -209562.97744  23707691.1254                   23707688.2774
 -14221080.66047 -11066308.55945  21811307.2034                   21811303.6804
 -14360886.89146 -11181409.14144  24126273.2424                   24126271.9024
 -19695535.35548 -15334078.97346  22239039.8984                   22239039.0394
 11  7 25  3 11 30.0000000  0  7G02G05G12G04G10G29G25
 -17455900.25448 -13584152.99246  21054584.2274                   21054578.8244
 -24852776.00048 -19350657.41447  20604052.7894                   20604048.9654
 -20983676.90648 -16336911.00046  20918698.0004                   20918693.5664
   -272587.62546   -113542.02344  23731140.0394                   23731137.3524
 -14111647.49247 -10981035.93445  21832131.5704                   21832128.5124
 -14403021.95346 -11214241.50044  24118254.5164                   24118253.5164
 -19709047.14848 -15344607.60546  22236468.4454                   22236468.0744
 11  7 25  3 12  0.0000000  0  7G02G05G12G04G10G29G25
 -17387359.86748 -13530744.87546  21067627.1484                   21067621.5554
 -24846423.69548 -19345707.54347  20605261.3984                   20605258.0044
 -20929215.80148 -16294473.77046  20929061.6254                   20929057.4804
   -149382.50046    -17538.02743  23754584.7974                   23754582.7774
 -14001742.55948 -10895395.73445  21853045.9304                   21853042.7774
 -14445194.54346 -11247103.06244  24110229.5634                   24110228.6644
 -19722054.89148 -15354743.45746  22233993.1334                   22233992.1844
 11  7 25  3 12 30.0000000  0  7G02G05G12G04G10G29G25
 -17318661.37148 -13477213.57046  21080700.4224                   21080694.4454
 -24839511.02348 -19340321.01647  20606576.6024                   20606572.9104
 -20874176.40648 -16251585.93046  20939535.1094                   20939531.5784
    -26203.52347     78445.55944  23778025.3914                   23778022.9734
 -13891372.03948 -10809392.71945  21874048.8984                   21874045.1994
 -14487407.27046 -11279995.96144  24102196.8204                   24102194.4384
 -19734560.42648 -15364487.99246  22231613.5164                   22231612.5004
 11  7 25  3 13  0.0000000  0  7G02G05G12G04G10G29G25
 -18825221.71948 -14651156.68846  20794011.1484                   20794005.4844
 -26407455.37948 -20562095.82047  20308206.8204                   20308203.1254
 -22393975.23048 -17435844.75046  20650327.0314                   20650322.9884
  -1478465.37146  -1053187.06644  23501668.4534                   23501666.5634
 -15355953.18447 -11950624.76245  21595348.0004                   21595344.6174
 -16105079.04147 -12540519.26244  23794364.0944                   23794362.3014
 -21321980.52348 -16601438.66446  21929537.6484                   21929536.4924
 11  7 25  3 13 30.0000000  0  7G02G05G12G04G10G29G25
 -18756206.93448 -14597378.92246  20807144.3984                   20807138.1054
 -26399416.83648 -20555831.98847  20309736.5164                   20309733.2304
 -22337777.17648 -17392054.05946  20661021.2114                   20661017.3324
  -1355337.83247   -957243.57043  23525099.8594                   23525097.1884
 -15244656.69147 -11863900.21145  21616527.4304                   21616523.8244
 -16147366.55547 -12573470.41444  23786316.7664                   23786315.5824
 -21333473.03148 -16610393.82846  21927350.6024                   21927349.4924
 11  7 25  3 14  0.0000000  0  7G02G05G12G04G10G29G25
 -18687030.12948 -14543474.91046  20820308.2034                   20820302.3834
 -26390809.18448 -20549124.69547  20311374.3594                   20311370.5634
 -22280995.37148 -17347808.49246  20671826.5474                   20671822.4774
  -1232232.05546   -861316.94543  23548525.3754                   23548523.1414
 -15132895.88347 -11776813.85945  21637794.6414                   21637791.0864
 -16189684.96147 -12606445.67244  23778263.6954                   23778262.3284
 -21344451.32048 -16618948.28546  21925261.6724                   21925260.7154
 11  7 25  3 14 30.0000000  0  7G02G05G12G04G10G29G25
 -18617707.15248 -14489456.99646  20833499.8134                   20833494.1564
 -26381646.37948 -20541984.81647  20313118.4924                   20313114.9224
 -22223645.69948 -17303120.43046  20682739.6174                   20682735.7194
  -1109163.48447   -765419.37943  23571945.2504                   23571942.5164
 -15020688.26247 -11689379.33645  21659146.8444                   21659143.6844
 -16232048.50847 -12639456.15644  23770202.4774                   23770201.0354
 -21354928.37548 -16627112.17246  21923267.6954                   21923266.5004
 11  7 25  3 15  0.0000000  0  7G02G05G12G04G10G29G25
 -18548226.91848 -14435316.53546  20846721.5004                   20846715.7544
 -26371915.28148 -20534402.11747  20314969.8674                   20314966.1454
 -22165716.59448 -17257980.86346  20693763.3134                   20693759.6174
   -986121.13746   -669542.25043  23595358.9454                   23595356.2664
 -14908024.74247 -11601589.58245  21680586.4694                   21680582.8404
 -16274444.11746 -12672491.60244  23762134.7814                   23762133.2814
 -21364890.47748 -16634874.78946  21921371.5944                   21921371.1844
 11  7 25  3 15 30.0000000  0  7G02G05G12G04G10G29G25
 -18478596.99248 -14381059.44146  20859971.1954                   20859965.7544
 -26361622.50048 -20526381.73447  20316928.7194                   20316925.2774
 -22107215.13748 -17212395.30146  20704895.5474                   20704891.5664
   -863112.66447   -573691.50843  23618766.5634                   23618763.8054
 -14794914.63747 -11513451.82845  21702109.7734                   21702106.3364
 -16316877.47347 -12705556.46944  23754059.4304                   23754058.0084
 -21374342.81348 -16642240.20746  21919572.7114                   21919571.8444
 11  7 25  3 16  0.0000000  0  7G02G05G12G04G10G29G25
 -18408808.39848 -14326678.71546  20873252.1644                   20873246.7114
 -26350757.07448 -20517915.13747  20318996.1724                   20318992.5164
 -22048132.63748 -17166356.98046  20716138.7274                   20716134.5944
   -740128.44147   -477859.61743  23642169.6564                   23642166.9774
 -14681350.40647 -11424960.19545  21723720.4694                   21723717.1214
 -16359337.46946 -12738642.14143  23745979.7114                   23745977.4494
 -21383273.48448 -16649199.14846  21917873.3284                   21917872.2814
 11  7 25  3 16 30.0000000  0  7G02G05G12G04G10G29G25
 -18338874.50448 -14272184.76246  20886559.8444                   20886554.1374
 -26339331.30548 -20509011.92247  20321170.1024                   20321166.9144
 -21988482.18448 -17119876.09446  20727489.7114                   20727485.7544
   -617181.78546   -382057.02343  23665565.9454                   23665563.3404
 -14567347.18847 -11336126.50845  21745414.2734                   21745411.4144
 -16401835.72747 -12771757.56343  23737892.2584                   23737890.2894
 -21391693.39148 -16655760.08246  21916271.1954                   21916270.2624
 11  7 25  3 17  0.0000000  0  7G02G05G12G04G10G29G25
 -18268791.03948 -14217574.25846  20899896.5704                   20899890.6374
 -26327339.06348 -20499667.28947  20323452.7114                   20323448.7114
 -21928259.33248 -17072949.18746  20738949.8754                   20738946.1414
   -494268.15646   -286280.18443  23688955.7734                   23688952.7704
 -14452902.52047 -11246948.83645  21767193.0234                   21767189.4844
 -16444366.55147 -12804898.40643  23729799.6024                   23729796.5904
 -21399595.71148 -16661917.70746  21914767.8204                   21914766.4654
 11  7 25  3 17 30.0000000  0  7G02G05G12G04G10G29G25
 -18198548.28148 -14162839.63746  20913262.8444                   20913257.0354
 -26314769.42248 -20489872.74647  20325844.3984                   20325840.6214
 -21867453.91048 -17025568.33646  20750520.1564                   20750516.7154
   -371378.10546   -190521.67243  23712340.7584                   23712337.7304
 -14338009.18047 -11157421.56645  21789056.0864                   21789052.8794
 -16486918.44547 -12838055.69544  23721701.6484                   23721698.4844
 -21406968.43048 -16667662.66446  21913364.4454                   21913363.3284
 11  7 25  3 18  0.0000000  0  7G02G05G12G04G10G29G25
 -18128168.03948 -14107997.89146  20926655.7664                   20926649.9534
 -26301642.27048 -20479643.76647  20328342.5704                   20328338.4654
 -21806087.70348 -16977750.50446  20762198.2424                   20762193.9574
   -248532.95746    -94798.16843  23735717.1094                   23735714.5594
 -14222690.31647 -11067562.71145  21811001.0314                   21810997.4964
 -16529510.54346 -12871244.25043  23713596.2894                   23713593.8204
 -21413830.59848 -16673009.79346  21912058.8134                   21912057.6484
 11  7 25  3 18 30.0000000  0  7G02G05G12G04G10G29G25
 -18057634.85248 -14053036.95746  20940078.1414                   20940072.5784
 -26287941.30548 -20468967.66447  20330949.4454                   20330945.7584
 -21744145.66048 -16929483.96546  20773985.3364                   20773981.7034
   -125716.86347       902.68443  23759088.6564                   23759085.9734
 -14106932.69147 -10977361.96145  21833028.6724                   21833025.7274
 -16572126.28147 -12904451.28144  23705486.4384                   23705484.6254
 -21420164.43048 -16677945.22746  21910853.2344                   21910852.3594
 11  7 25  3 19  0.0000000  0  7G02G05G12G04G10G29G25
 -17986950.91048 -13997958.55146  20953529.0784                   20953523.0514
 -26273666.71148 -20457844.57847  20333665.5634                   20333662.1414
 -21681629.79348 -16880770.29346  20785881.8054                   20785878.0314
     -2932.16446     96579.04343  23782453.8834                   23782450.7974
 -13990740.09047 -10886822.27745  21855139.5474                   21855136.0204
 -16614765.73047 -12937676.71144  23697372.9844                   23697371.5824
 -21425969.44948 -16682468.62146  21909748.7504                   21909747.4574
 11  7 25  3 19 30.0000000  0  7G02G05G12G04G10G29G25
 -17916119.88348 -13942765.55546  20967007.8594                   20967001.8984
 -26258821.19948 -20446276.62547  20336490.6414                   20336487.2114
 -21618543.84048 -16831612.41046  20797886.4614                   20797882.4064
    119817.60946    192228.24643  23805812.0394                   23805809.5554
 -13874117.97347 -10795947.90245  21877331.9774                   21877328.5904
 -16657431.05146 -12970922.28944  23689253.9614                   23689252.2034
 -21431247.05948 -16686581.03146  21908744.1174                   21908743.4654
 11  7 25  3 20  0.0000000  0  7G02G05G12G04G10G29G25
 -17845143.69148 -13887459.42246  20980513.6564                   20980508.0594
 -26243405.53548 -20434264.39547  20339424.0554                   20339420.6994
 -21554889.45748 -16782011.57446  20809999.4614                   20809996.1724
    242531.01646    287849.09043  23829163.7274                   23829161.4384
 -13757070.13347 -10704741.82845  21899605.2274                   21899602.0704
 -16700121.95346 -13004187.84444  23681130.3914                   23681127.4574
 -21435996.78948 -16690282.11746  21907840.6094                   21907839.6294
 11  7 25  3 20 30.0000000  0  7G02G05G12G04G10G29G25
 -17774017.48448 -13832036.40646  20994048.8364                   20994042.7894
 -26227413.33248 -20421802.91447  20342467.5004                   20342464.1174
 -21490662.15248 -16731964.32446  20822221.8284                   20822217.7734
    365213.09046    383445.48843  23852509.5234                   23852507.3054
 -13639593.83647 -10613201.86745  21921960.6414                   21921957.8404
 -16742831.60946 -13037467.99244  23673002.4454                   23673000.8054
 -21440211.28148 -16693566.14546  21907038.5784                   21907037.7504
 11  7 25  3 21  0.0000000  0  7G02G05G12G04G10G29G25
 -17702747.61348 -13776501.44146  21007610.9304                   21007605.0944
 -26210849.76248 -20408896.21947  20345619.2894                   20345615.3874
 -21425868.67648 -16681475.89146  20834551.5084                   20834547.7234
    487857.19146    479012.30143  23875847.2734                   23875845.4774
 -13521697.61347 -10521334.68445  21944395.4844                   21944392.5824
 -16785564.98847 -13070766.61344  23664870.1334                   23664868.7624
 -21443894.95748 -16696436.52346  21906337.7584                   21906336.5704
 11  7 25  3 21 30.0000000  0  7G02G05G12G04G10G29G25
 -17631331.76248 -13720852.73046  21021200.7584                   21021195.1994
 -26193711.50048 -20395541.69947  20348880.6174                   20348876.9774
 -21360506.43448 -16630544.27346  20846989.7814                   20846985.4224
    610466.09846    574551.71543  23899179.6804                   23899177.0204
 -13403380.67647 -10429139.67645  21966910.5234                   21966906.7114
 -16828317.88547 -13104080.44244  23656735.2584                   23656733.7074
 -21447042.96148 -16698889.50446  21905738.1884                   21905737.5594
 11  7 25  3 22  0.0000000  0  7G02G05G12G04G10G29G25
 -17559780.53148 -13665098.52346  21034816.6884                   21034810.9104
 -26176007.67248 -20381746.48847  20352249.4534                   20352245.9064
 -21294586.21948 -16579177.87146  20859533.8054                   20859529.8244
    733029.68446    670055.81643  23922502.1724                   23922500.1804
 -13284655.57047 -10336626.60945  21989503.1094                   21989499.8984
 -16871098.54347 -13137415.91844  23648593.8054                   23648591.6994
 -21449663.39548 -16700931.37546  21905239.6094                   21905238.8524
 11  7 25  3 22 30.0000000  0  7G02G05G12G04G10G29G25
 -17488081.23048 -13609228.93846  21048460.5634                   21048454.7894
 -26157724.36748 -20367499.73047  20355728.8284                   20355725.0904
 -21228095.89548 -16527367.22746  20872186.6724                   20872182.8244
    855560.69946    765534.52043  23945819.5004                   23945816.9414
 -13165511.73447 -10243787.25445  22012175.5314                   22012171.7274
 -16913892.69147 -13170761.92244  23640450.2194                   23640448.0514
 -21451741.46548 -16702550.60946  21904844.3594                   21904843.3674
 11  7 25  3 23  0.0000000  0  7G02G05G12G04G10G29G25
 -17416240.86348 -13553249.43046  21062131.0084                   21062125.7114
 -26138867.39848 -20352805.96947  20359316.9144                   20359313.6844
 -21161042.40648 -16475117.76246  20884946.2504                   20884941.9064
    978052.22346    860982.46943  23969128.6334                   23969125.9654
 -13045957.96147 -10150628.48045  22034925.6414                   22034922.5474
 -16956705.11347 -13204122.15644  23632303.1804                   23632300.4144
 -21453281.83648 -16703750.87146  21904550.9064                   21904550.0004
 11  7 25  3 23 30.0000000  0  7G02G05G12G04G10G29G25
 -17344259.78148 -13497160.26646  21075829.1804                   21075823.7584
 -26119436.44148 -20337664.94947  20363014.8284                   20363010.9454
 -21093426.35948 -16422429.92646  20897813.0784                   20897809.0984
   1100504.14146    956399.53144  23992430.7034                   23992428.9104
 -12925997.19547 -10057152.56345  22057753.3444                   22057749.9924
 -16999534.52747 -13237495.61744  23624153.4064                   23624150.4144
 -21454282.86748 -16704530.85246  21904360.7734                   21904359.8284
 11  7 25  3 24  0.0000000  0  7G02G05G12G04G10G29G25
 -17272134.30548 -13440958.59046  21089553.6174                   21089548.3554
 -26099426.44948 -20322072.71947  20366822.2424                   20366818.7814
 -21025244.16448 -16369300.94146  20910787.6724                   20910783.7194
   1222920.36346   1051788.84043  24015725.6334                   24015723.3284
 -12805627.12547  -9963357.70345  22080658.7974                   22080655.8554
 -17042375.53546 -13270878.10544  23616001.0944                   23615998.2234
 -21454738.59848 -16704885.91446  21904273.4774                   21904272.6884
 11  7 25  3 24 30.0000000  0  7G02G05G12G04G10G29G25
 -17199867.32847 -13384646.65646  21103305.5314                   21103300.5434
 -26078839.55548 -20306030.96147  20370740.1564                   20370736.1884
 -20956499.79747 -16315733.89146  20923869.3834                   20923865.5824
   1345298.09046   1147148.08643  24039012.7664                   24039010.2734
 -12684853.08247  -9869248.07445  22103641.8834                   22103638.2424
 -17085229.28147 -13304270.52044  23607846.0784                   23607844.2544
 -21454649.97348 -16704816.83246  21904291.0004                   21904289.6334
 11  7 25  3 25  0.0000000  0  7G02G05G12G04G10G29G25
 -17127467.08248 -13328230.86746  21117083.1954                   21117077.5084
 -26057682.54748 -20289544.94947  20374765.9924                   20374762.1134
 -20887201.27747 -16261735.05546  20937056.5554                   20937052.5864
   1467629.57847   1242471.33643  24062292.5084                   24062290.0864
 -12563685.05547  -9774831.41845  22126699.1174                   22126695.7734
 -17128101.57446 -13337677.34444  23599686.7194                   23599685.2934
 -21454022.72348 -16704328.03146  21904410.1334                   21904408.5664
 11  7 25  3 25 30.0000000  0  7G02G05G12G04G10G29G25
 -17054928.39547 -13271707.20746  21130886.9694                   21130881.4384
 -26035949.63348 -20272610.18747  20378901.6804                   20378897.7814
 -20817343.78148 -16207300.63346  20950350.0864                   20950345.8244
   1589920.10947   1337762.69143  24085563.4454                   24085560.9344
 -12442120.04347  -9680105.42645  22149832.0084                   22149828.6294
 -17170985.71947 -13371093.40644  23591526.3834                   23591524.7074
 -21452849.71948 -16703413.95746  21904633.0944                   21904632.1454
 11  7 25  3 26  0.0000000  0  7G02G05G12G04G10G29G25
 -16982246.78948 -13215072.19946  21144717.6804                   21144712.0044
 -26013635.23848 -20255222.32847  20383147.9454                   20383144.3634
 -20746923.42248 -16152427.62546  20963750.4064                   20963746.6374
   1712174.32847   1433025.74643  24108828.1564                   24108825.2384
 -12320155.60948  -9585068.20345  22173041.7034                   22173037.9184
 -17213875.14547 -13404513.62944  23583365.3444                   23583362.4304
 -21451124.41448 -16702069.53146  21904961.2814                   21904960.2074
 11  7 25  3 26 30.0000000  0  7G02G05G12G04G10G29G25
 -16909426.13348 -13158328.81346  21158574.8834                   21158569.1134
 -25990742.25448 -20237383.62147  20387504.1884                   20387500.6604
 -20675944.80148 -16097119.60246  20977257.1414                   20977252.9734
   1834388.53146   1528257.64843  24132083.3674                   24132081.6804
 -12197797.68848  -9489724.35245  22196324.7274                   22196321.8794
 -17256771.64147 -13437939.38744  23575201.6644                   23575199.3404
 -21448848.71148 -16700296.20346  21905394.4384                   21905393.6914
 11  7 25  3 27  0.0000000  0  7G02G05G12G04G10G29G25
 -16836470.99648 -13101480.64146  21172457.6334                   21172451.9774
 -25967274.70348 -20219097.19147  20391969.9304                   20391966.2194
 -20604412.77348 -16041380.34846  20990869.2344                   20990865.2624
   1956558.08646   1623454.70343  24155332.1724                   24155329.8834
 -12075053.22747  -9394079.29745  22219682.5164                   22219679.4264
 -17299678.39847 -13471373.11344  23567036.7814                   23567034.4734
 -21446025.35948 -16698096.14146  21905931.8914                   21905930.8914
 11  7 25  3 27 30.0000000  0  7G02G05G12G04G10G29G25
 -16763377.87548 -13044524.96146  21186366.9454                   21186361.4654
 -25943227.93448 -20200359.42647  20396545.9924                   20396542.0554
 -20532324.11748 -15985207.38346  21004587.4694                   21004583.1844
   2078687.34046   1718620.35543  24178572.8444                   24178569.7974
 -11951920.12547  -9298131.41845  22243114.3524                   22243110.4414
 -17342589.69947 -13504810.35944  23558871.0394                   23558868.9614
 -21442648.51648 -16695464.79346  21906574.3284                   21906573.5124
 11  7 25  3 28  0.0000000  0  7G02G05G12G04G10G29G25
 -16690148.03948 -12987462.75046  21200302.3364                   21200296.5234
 -25918602.72348 -20181170.92647  20401231.8054                   20401227.7154
 -20459680.91448 -15928602.27346  21018411.0084                   21018407.1844
   2200774.83246   1813753.52343  24201805.4064                   24201802.2544
 -11828402.46147  -9201883.87945  22266618.7894                   22266615.2974
 -17385504.90647 -13538250.65244  23550704.8914                   23550701.4924
 -21438717.78148 -16692401.85546  21907322.5394                   21907321.1524
 11  7 25  3 28 30.0000000  0  7G02G05G12G04G10G29G25
 -16616786.16048 -12930297.62546  21214262.4454                   21214256.6644
 -25893402.57448 -20161534.42247  20406027.1884                   20406023.9774
 -20386488.21148 -15871568.98846  21032338.8754                   21032334.7344
   2322816.15646   1908850.68043  24225028.3674                   24225025.8634
 -11704507.08647  -9105342.01245  22290195.0634                   22290191.8404
 -17428426.86747 -13571696.26243  23542536.9614                   23542533.3284
 -21434235.69148 -16688909.28946  21908175.1804                   21908174.3054
 11  7 25  3 29  0.0000000  0  7G02G05G12G04G10G29G25
 -16543287.30548 -12873025.78546  21228248.2974                   21228242.7384
 -25867621.82448 -20141445.50847  20410933.3674                   20410929.5554
 -20312741.35248 -15814103.90246  21046372.4614                   21046368.4964
   2444816.81646   2003916.14143  24248244.5944                   24248241.6374
 -11580230.67247  -9008503.23844  22313843.8984                   22313840.6214
 -17471348.34446 -13605141.45744  23534368.9694                   23534366.4614
 -21429195.33248 -16684981.70746  21909134.6884                   21909133.1724
 11  7 25  3 29 30.0000000  0  7G02G05G12G04G10G29G25
 -16469659.69948 -12815653.60946  21242259.4454                   21242253.7544
 -25841268.13348 -20120910.14847  20415948.2734                   20415944.2624
 -20238450.10248 -15756214.61346  21060509.5164                   21060505.7384
   2566768.29746   2098943.30543  24271450.8524                   24271448.2894
 -11455584.03547  -8911375.98045  22337563.7274                   22337560.4224
 -17514276.18446 -13638591.58244  23526200.5634                   23526197.8364
 -21423603.35548 -16680624.30546  21910198.8674                   21910197.0904
 11  7 25  3 30  0.0000000  0  7G02G05G12G04G10G29G25
 -16395895.89848 -12758175.31646  21256296.6954                   21256290.3324
 -25814333.09848 -20099921.78547  20421073.6644                   20421069.9384
 -20163607.12548 -15697895.39846  21074751.6954                   21074747.5744
   2688679.08946   2193938.76342  24294649.3914                   24294647.3244
 -11330561.26647  -8813955.64845  22361354.8914                   22361351.1724
 -17557200.41047 -13672038.93444  23518031.3674                   23518029.4224
 -21417450.03148 -16675829.47746  21911369.6954                   21911368.1134
